Date StartTime U_cm/s V_cm/s W_cm/s Ustd_cm/s Vstd_cm/s Wstd_cm/s Uvar_(cm/s)^2 Vvar_(cm/s)^2 Wvar_(cm/s)^2 KE_(m/s)^2 TurbulentKE_(m/s)^2 HorizWindSpeed_cm/s FrictionSpeec_cm/s DragCoef SpeedOfSound_m/s SonicTemperature_C Pressure_mb 
09/12/2014  00:00:00     -131.538      -77.516      -11.986       40.507       50.340       26.098     1640.844     2534.099      681.116        1.415        0.243      152.680       19.492        0.016      342.818       18.494      862.929
09/12/2014  00:01:00     -120.999      -72.132      -12.624       32.009       53.050       25.041     1024.549     2814.285      627.043        1.223        0.223      140.868       11.453        0.007      342.869       18.580      862.930
09/12/2014  00:02:00     -108.778      -89.961       -7.799       39.769       31.262       22.595     1581.607      977.327      510.541        1.153        0.153      141.158       21.313        0.023      342.899       18.633      862.937
09/12/2014  00:03:00     -140.870      -84.104       -3.093       24.722       25.027       23.551      611.165      626.353      554.627        1.436        0.090      164.067       18.034        0.012      342.827       18.509      862.942
09/12/2014  00:04:00     -155.315      -70.739      -11.976       14.647       13.703       15.547      214.535      187.780      241.697        1.496        0.032      170.665        9.480        0.003      342.905       18.641      862.942
09/12/2014  00:05:00     -130.186      -52.829      -15.568       13.648       15.441       10.230      186.280      238.415      104.661        1.026        0.026      140.496        4.493        0.001      342.912       18.653      862.933
09/12/2014  00:06:00     -141.261      -48.571      -16.406       15.201       20.150        9.858      231.078      406.008       97.170        1.166        0.037      149.379        4.908        0.001      342.922       18.672      862.939
09/12/2014  00:07:00     -135.869      -48.009       -9.586       13.170       13.942       10.065      173.438      194.387      101.314        1.066        0.023      144.101        6.450        0.002      342.826       18.508      862.958
09/12/2014  00:08:00     -125.232      -52.856      -18.144       14.408       10.590       12.601      207.602      112.154      158.781        0.964        0.024      135.929        6.901        0.003      342.821       18.498      862.959
09/12/2014  00:09:00     -110.430      -61.536      -13.276       28.765       19.084       15.412      827.416      364.209      237.540        0.879        0.071      126.418       11.693        0.009      342.748       18.376      862.960
09/12/2014  00:10:00     -125.386      -83.236      -14.104       29.560       18.306       20.333      873.785      335.119      413.447        1.224        0.081      150.499       13.203        0.008      342.746       18.374      862.955
09/12/2014  00:11:00      -99.850      -64.860       -4.701       30.176       23.799       20.774      910.600      566.391      431.558        0.805        0.095      119.066       16.168        0.018      342.716       18.319      862.947
09/12/2014  00:12:00     -130.258      -59.416      -14.928       11.960       17.179       13.743      143.030      295.110      188.877        1.067        0.031      143.169        8.242        0.003      342.773       18.417      862.950
09/12/2014  00:13:00     -117.620      -39.567      -12.837       15.315       18.159       15.345      234.545      329.739      235.468        0.818        0.040      124.097        8.821        0.005      342.767       18.406      862.960
09/12/2014  00:14:00     -106.779      -44.235      -15.680       10.260       11.411        7.392      105.270      130.201       54.648        0.695        0.015      115.579        4.803        0.002      342.713       18.316      862.949
09/12/2014  00:15:00     -106.076      -57.642      -18.573       22.318       17.643       14.017      498.075      311.283      196.477        0.796        0.050      120.726        8.014        0.004      342.697       18.288      862.929
09/12/2014  00:16:00     -102.280      -52.995      -16.577       21.080       18.369       13.120      444.357      337.438      172.138        0.725        0.048      115.194        8.584        0.006      342.647       18.203      862.933
09/12/2014  00:17:00      -92.806      -31.826      -13.012        9.490       10.810        9.496       90.051      116.858       90.165        0.505        0.015       98.112        6.286        0.004      342.723       18.332      862.933
09/12/2014  00:18:00      -82.154      -12.303      -17.143        9.195       10.692        9.619       84.549      114.313       92.530        0.374        0.015       83.070        4.033        0.002      342.809       18.477      862.922
09/12/2014  00:19:00      -90.954       -0.473      -20.019        9.810        8.620        7.570       96.245       74.304       57.310        0.445        0.011       90.955        5.232        0.003      342.799       18.460      862.919
09/12/2014  00:20:00      -75.388      -22.694      -11.402       10.513        9.246        8.813      110.514       85.493       77.668        0.330        0.014       78.730        6.249        0.006      342.820       18.497      862.925
09/12/2014  00:21:00      -50.919       -8.297      -15.771       13.251       11.203        8.606      175.601      125.511       74.071        0.164        0.019       51.590        5.104        0.010      343.235       19.204      862.914
09/12/2014  00:22:00      -54.787      -12.231       -8.920       10.635       12.784        9.190      113.101      163.429       84.461        0.180        0.018       56.136        7.929        0.020      343.252       19.233      862.903
09/12/2014  00:23:00      -38.032        5.854       -6.796       17.308       27.922        9.613      299.577      779.617       92.413        0.135        0.059       38.480       10.877        0.080      343.025       18.848      862.912
09/12/2014  00:24:00      -41.873       38.046      -13.771       21.786       24.353        9.823      474.610      593.045       96.482        0.228        0.058       56.576        8.854        0.024      343.585       19.800      862.919
09/12/2014  00:25:00      -51.219      -29.368       -6.858       11.046       16.477       10.235      122.009      271.499      104.764        0.202        0.025       59.041        6.649        0.013      342.893       18.622      862.912
09/12/2014  00:26:00      -49.701      -36.768      -10.863       11.767       10.160       11.447      138.466      103.220      131.023        0.216        0.019       61.822        5.353        0.007      342.735       18.352      862.919
09/12/2014  00:27:00      -88.051      -45.421      -16.344       21.941       17.825       12.759      481.400      317.730      162.781        0.552        0.048       99.076        4.189        0.002      342.571       18.074      862.939
09/12/2014  00:28:00     -129.567      -74.722      -12.091       33.805       33.158       18.475     1142.762     1099.470      341.337        1.255        0.129      149.569        8.978        0.004      342.499       17.952      862.940
09/12/2014  00:29:00     -117.825     -101.885       -6.376       36.283       43.541       23.234     1316.455     1895.814      539.833        1.403        0.188      155.767       19.870        0.016      342.669       18.239      862.953
09/12/2014  00:30:00      -98.610     -123.245       -6.921       42.802       46.066       28.632     1832.023     2122.046      819.794        1.487        0.239      157.839       22.044        0.020      342.549       18.036      862.963
09/12/2014  00:31:00      -94.729      -66.993       -6.184       26.378       28.903       18.702      695.815      835.363      349.747        0.769        0.094      116.025        9.585        0.007      342.551       18.041      862.967
09/12/2014  00:32:00     -117.326      -52.432       -9.733       22.918       19.446       17.193      525.219      378.151      295.606        0.890        0.060      128.508       11.154        0.008      342.563       18.061      862.972
09/12/2014  00:33:00     -102.863      -44.392      -15.101       13.609       16.037       11.435      185.198      257.191      130.755        0.668        0.029      112.033        8.415        0.006      342.578       18.087      862.974
09/12/2014  00:34:00      -97.473      -36.791      -15.362        8.292       14.853       10.835       68.765      220.607      117.393        0.575        0.020      104.185        6.057        0.003      342.576       18.081      862.975
09/12/2014  00:35:00     -106.596      -20.527      -10.199       13.163       15.427        9.553      173.276      237.982       91.262        0.620        0.025      108.554        3.371        0.001      342.493       17.942      863.000
09/12/2014  00:36:00     -108.081      -77.053      -15.124       20.790       22.394       20.027      432.235      501.474      401.070        0.959        0.067      132.736       11.772        0.008      342.426       17.828      863.013
09/12/2014  00:37:00     -100.153      -74.454       -4.709       32.082       24.546       18.644     1029.265      602.491      347.607        0.879        0.099      124.796       15.014        0.014      342.376       17.742      863.029
09/12/2014  00:38:00     -110.574      -63.889       -5.668       20.948       17.129       11.749      438.820      293.388      138.039        0.861        0.044      127.704       11.744        0.008      342.426       17.827      863.038
09/12/2014  00:39:00     -118.387      -55.188      -14.218       26.469       20.165       17.247      700.627      406.641      297.457        0.933        0.070      130.618       13.067        0.010      342.441       17.852      863.045
09/12/2014  00:40:00     -119.379      -35.710      -13.363       14.671       23.239       13.395      215.232      540.051      179.433        0.832        0.047      124.605       11.271        0.008      342.427       17.829      863.054
09/12/2014  00:41:00     -129.208      -28.590      -18.304       14.111       14.161       14.221      199.108      200.526      202.225        0.922        0.030      132.333        8.794        0.004      342.373       17.737      863.055
09/12/2014  00:42:00     -117.436      -34.149      -16.345       10.200       11.371       10.102      104.049      129.291      102.052        0.778        0.017      122.300        4.336        0.001      342.383       17.753      863.052
09/12/2014  00:43:00     -116.627      -30.750      -16.941       13.356       12.027        9.389      178.378      144.641       88.161        0.762        0.021      120.612        4.945        0.002      342.358       17.710      863.066
09/12/2014  00:44:00     -132.963      -23.969      -21.359       21.063       13.798       11.891      443.637      190.378      141.393        0.974        0.039      135.106        6.559        0.002      342.409       17.798      863.072
09/12/2014  00:45:00     -128.946      -29.494      -17.698       21.258       21.928       15.754      451.917      480.827      248.202        0.950        0.059      132.276        7.270        0.003      342.381       17.751      863.077
09/12/2014  00:46:00     -135.219      -73.618      -16.074       12.743       22.596       13.153      162.384      510.581      172.994        1.240        0.042      153.960        7.127        0.002      342.330       17.665      863.086
09/12/2014  00:47:00      -91.403      -64.098       -8.709       33.556       27.979       24.519     1126.018      782.808      601.169        0.752        0.125      111.638       16.713        0.022      342.325       17.654      863.101
09/12/2014  00:48:00     -115.823      -65.291      -15.173       24.669       23.390       14.786      608.539      547.084      218.631        0.964        0.069      132.959       10.425        0.006      342.221       17.480      863.115
09/12/2014  00:49:00      -78.581      -62.280       -4.985       36.094       31.727       21.848     1302.776     1006.618      477.319        0.643        0.139      100.269       23.995        0.057      342.245       17.520      863.121
09/12/2014  00:50:00     -111.215      -45.764      -15.056        9.834       12.668        9.431       96.717      160.479       88.936        0.752        0.017      120.263        3.850        0.001      342.289       17.593      863.124
09/12/2014  00:51:00     -101.422      -37.494      -16.669       16.567       11.495        6.700      274.465      132.128       44.893        0.621        0.023      108.131        1.625        0.000      342.326       17.657      863.138
09/12/2014  00:52:00     -117.350      -41.308      -14.517       14.065        8.796       10.594      197.815       77.361      112.241        0.804        0.019      124.408        7.493        0.004      342.301       17.615      863.135
09/12/2014  00:53:00      -79.278      -44.148       -2.143       35.087       18.257       18.228     1231.069      333.329      332.253        0.507        0.095       90.742       19.969        0.048      342.237       17.506      863.146
09/12/2014  00:54:00      -25.720      -41.811       13.351       26.880       23.877       22.399      722.518      570.094      501.719        0.219        0.090       49.089       17.786        0.131      342.109       17.289      863.158
09/12/2014  00:55:00      -74.601      -73.249       -5.524       46.719       39.251       24.834     2182.669     1540.676      616.750        0.765        0.217      104.550       24.875        0.057      342.199       17.442      863.173
09/12/2014  00:56:00     -113.398      -68.619      -13.472       31.417       22.322       18.542      987.020      498.273      343.805        0.979        0.091      132.543       12.489        0.009      342.220       17.477      863.173
09/12/2014  00:57:00     -103.570      -62.759       -4.328       40.785       23.881       18.912     1663.425      570.305      357.665        0.864        0.130      121.101       19.911        0.027      342.181       17.411      863.169
09/12/2014  00:58:00      -37.382      -55.693       -7.135       30.223       27.660       16.779      913.414      765.079      281.524        0.325        0.098       67.076       12.089        0.032      342.217       17.473      863.191
09/12/2014  00:59:00      -27.580      -42.930        6.296       29.757       29.071       22.690      885.473      845.104      514.814        0.244        0.112       51.026       19.236        0.142      342.257       17.540      863.196
09/12/2014  01:00:00      -92.268      -70.891      -11.425       26.132       23.824       17.627      682.860      567.573      310.722        0.762        0.078      116.357       14.639        0.016      342.285       17.588      863.189
09/12/2014  01:01:00      -86.262      -66.628      -10.489       31.079       27.804       19.462      965.925      773.068      378.762        0.705        0.106      108.997       12.564        0.013      342.212       17.463      863.194
09/12/2014  01:02:00      -85.562      -50.728       -1.722       45.385       31.006       20.767     2059.823      961.382      431.268        0.667        0.173       99.469       21.124        0.045      342.089       17.256      863.200
09/12/2014  01:03:00      -94.836      -91.797        0.475       40.567       33.511       29.896     1645.669     1123.005      893.786        1.054        0.183      131.986       22.602        0.029      342.067       17.218      863.204
09/12/2014  01:04:00     -121.849      -68.710       -8.034       23.809       38.130       15.346      566.851     1453.898      235.493        1.094        0.113      139.886       11.447        0.007      342.151       17.360      863.203
09/12/2014  01:05:00     -144.332      -80.683       -8.992       38.266       30.158       25.407     1464.274      909.529      645.510        1.522        0.151      165.353       21.895        0.018      342.171       17.392      863.205
09/12/2014  01:06:00     -129.384      -71.557       -3.728       28.711       28.180       23.061      824.303      794.128      531.831        1.201        0.108      147.853       18.770        0.016      342.099       17.272      863.202
09/12/2014  01:07:00      -89.355      -72.988       -3.420       35.674       24.721       18.087     1272.650      611.125      327.144        0.777        0.111      115.376       11.408        0.010      342.082       17.244      863.200
09/12/2014  01:08:00     -109.195      -72.759        3.407       43.183       33.308       22.939     1864.792     1109.417      526.221        1.036        0.175      131.215       21.963        0.028      342.033       17.158      863.218
09/12/2014  01:09:00     -133.641      -84.423       -6.141       40.093       39.911       23.845     1607.409     1592.871      568.580        1.440        0.188      158.074       24.115        0.023      342.005       17.112      863.216
09/12/2014  01:10:00     -110.914      -65.274        0.808       45.146       42.216       23.058     2038.143     1782.192      531.672        1.046        0.218      128.696       24.542        0.036      342.006       17.114      863.212
09/12/2014  01:11:00     -147.636      -77.197       -3.595       25.753       19.931       16.795      663.202      397.242      282.083        1.456        0.067      166.601       11.040        0.004      342.004       17.110      863.219
09/12/2014  01:12:00     -112.534      -70.075       -4.615       39.144       27.517       20.170     1532.230      757.168      406.847        1.015        0.135      132.568       16.241        0.015      341.985       17.077      863.224
09/12/2014  01:13:00      -92.308      -76.075       -5.368       46.618       30.366       21.703     2173.274      922.085      471.029        0.895        0.178      119.617       16.545        0.019      341.934       16.993      863.219
09/12/2014  01:14:00     -127.715     -100.386       -2.258       33.796       30.099       27.448     1142.139      905.935      753.383        1.460        0.140      162.445       18.363        0.013      341.951       17.022      863.234
09/12/2014  01:15:00     -146.172      -74.625       -3.895       41.457       24.900       19.713     1718.688      619.988      388.591        1.484        0.136      164.120       21.683        0.017      341.979       17.067      863.234
09/12/2014  01:16:00     -128.489      -80.061       -6.868       24.195       28.507       20.898      585.397      812.622      436.735        1.240        0.092      151.391       17.591        0.014      341.991       17.089      863.231
09/12/2014  01:17:00      -88.249      -54.231      -14.326       16.221       18.913       12.677      263.136      357.700      160.696        0.586        0.039      103.581        6.572        0.004      341.982       17.072      863.233
09/12/2014  01:18:00     -109.184      -31.501       -9.294       23.206       17.582       14.886      538.534      309.142      221.585        0.703        0.053      113.638       14.220        0.016      341.942       17.005      863.234
09/12/2014  01:19:00     -120.581      -57.360       -8.312       11.037       13.949        9.034      121.820      194.582       81.609        0.915        0.020      133.529        6.249        0.002      341.992       17.089      863.222
09/12/2014  01:20:00     -112.395      -48.790       -9.963       18.264       17.648       12.475      333.574      311.467      155.636        0.796        0.040      122.527        9.959        0.007      341.998       17.100      863.227
09/12/2014  01:21:00     -103.198      -63.157      -14.307       14.494       17.656        9.172      210.090      311.729       84.131        0.772        0.030      120.991        5.459        0.002      342.012       17.126      863.233
09/12/2014  01:22:00     -100.136      -70.467      -12.926       14.180       18.008       12.223      201.060      324.271      149.394        0.792        0.034      122.445        6.601        0.003      342.011       17.122      863.231
09/12/2014  01:23:00      -88.700      -64.537      -12.062       22.918       19.685       12.770      525.256      387.486      163.067        0.663        0.054      109.694        8.636        0.006      342.081       17.241      863.236
09/12/2014  01:24:00     -110.167      -59.976      -17.555       13.685       15.315       11.172      187.275      234.559      124.818        0.829        0.027      125.435        5.071        0.002      342.039       17.169      863.244
09/12/2014  01:25:00     -119.664      -57.522      -14.444       25.554       13.275       15.203      653.005      176.218      231.139        0.945        0.053      132.771       13.979        0.011      342.065       17.214      863.242
09/12/2014  01:26:00     -128.831      -59.808      -16.230       18.780       16.648        9.304      352.707      277.171       86.567        1.058        0.036      142.037        6.909        0.002      342.003       17.110      863.239
09/12/2014  01:27:00      -98.170      -60.704       -8.464       31.057       21.719       19.646      964.562      471.719      385.949        0.761        0.091      115.422       14.659        0.016      341.936       16.995      863.245
09/12/2014  01:28:00     -118.905      -69.372       -9.744       21.784       17.978       17.045      474.528      323.206      290.527        1.007        0.054      137.663       11.683        0.007      341.879       16.898      863.244
09/12/2014  01:29:00     -119.482      -56.485      -11.728       15.460       16.398       10.565      239.026      268.902      111.623        0.911        0.031      132.161        6.155        0.002      341.857       16.860      863.236
09/12/2014  01:30:00     -106.365      -62.438      -11.189       16.228       16.155       13.704      263.352      260.977      187.807        0.802        0.036      123.337        5.584        0.002      341.834       16.821      863.239
09/12/2014  01:31:00      -95.884      -59.925      -10.627       14.529       11.942       11.893      211.101      142.605      141.448        0.670        0.025      113.070        6.148        0.003      341.837       16.825      863.244
09/12/2014  01:32:00     -110.884      -60.190       -8.616       11.600        9.540        8.693      134.551       91.016       75.565        0.815        0.015      126.167        4.140        0.001      341.896       16.927      863.234
09/12/2014  01:33:00     -118.363      -48.406      -15.003        8.888        9.074        5.839       79.001       82.332       34.092        0.839        0.010      127.879        2.751        0.000      341.874       16.892      863.229
09/12/2014  01:34:00     -115.532      -44.577      -14.087       13.508       13.302        9.798      182.462      176.955       96.007        0.799        0.023      123.833        5.527        0.002      341.851       16.851      863.231
09/12/2014  01:35:00     -115.403      -49.405       -6.897       13.360       22.460       10.683      178.493      504.446      114.125        0.830        0.040      125.534        6.862        0.003      341.789       16.747      863.228
09/12/2014  01:36:00     -114.039      -63.272      -14.820       10.736       12.409       11.138      115.252      153.983      124.058        0.881        0.020      130.416        5.335        0.002      341.803       16.770      863.226
09/12/2014  01:37:00     -121.000      -57.421      -15.461       13.905       15.424       12.984      193.344      237.901      168.580        0.939        0.030      133.933        2.836        0.000      341.764       16.703      863.219
09/12/2014  01:38:00     -110.322      -79.034      -13.064       30.818       22.741       16.664      949.729      517.163      277.689        1.017        0.087      135.711       12.337        0.008      341.707       16.607      863.214
09/12/2014  01:39:00     -121.646      -89.229       -5.738       27.064       25.238       17.005      732.474      636.944      289.159        1.223        0.083      150.863       14.658        0.009      341.685       16.570      863.219
09/12/2014  01:40:00     -118.284      -74.252      -18.804       19.386       23.476       13.183      375.822      551.135      173.803        1.048        0.055      139.658        6.821        0.002      341.756       16.690      863.208
09/12/2014  01:41:00     -115.547      -64.791      -18.331       18.606       16.294       12.630      346.172      265.496      159.512        0.933        0.039      132.473        9.023        0.005      341.745       16.671      863.209
09/12/2014  01:42:00     -119.264      -71.268      -14.118       18.930       22.653       14.594      358.355      513.164      212.977        1.029        0.054      138.935       11.065        0.006      341.687       16.574      863.208
09/12/2014  01:43:00     -125.447      -81.703      -14.174       22.189       15.506       14.039      492.370      240.446      197.093        1.177        0.046      149.708       11.265        0.006      341.677       16.556      863.196
09/12/2014  01:44:00     -122.246      -65.978      -13.433       24.077       25.249       18.544      579.706      637.488      343.891        1.052        0.078      138.914       15.158        0.012      341.679       16.560      863.187
09/12/2014  01:45:00     -130.015      -56.854      -24.853       10.678       16.686        8.119      114.025      278.410       65.911        1.061        0.023      141.903        7.022        0.002      341.722       16.632      863.192
09/12/2014  01:46:00     -102.687      -33.361      -13.478       15.353       14.471       12.994      235.728      209.410      168.845        0.623        0.031      107.971        8.272        0.006      341.674       16.550      863.190
09/12/2014  01:47:00     -110.040      -51.930      -17.478       11.078       16.376        9.852      122.711      268.187       97.069        0.780        0.024      121.678        5.764        0.002      341.660       16.526      863.182
09/12/2014  01:48:00      -72.763      -69.074       -5.988       39.105       21.972       17.944     1529.177      482.753      321.972        0.622        0.117      100.327       14.345        0.020      341.657       16.521      863.194
09/12/2014  01:49:00      -64.289      -72.441       -9.666       34.318       24.977       19.404     1177.734      623.850      376.510        0.583        0.109       96.855       16.971        0.031      341.583       16.398      863.211
09/12/2014  01:50:00      -86.261      -89.179       -2.910       62.329       39.990       31.525     3884.880     1599.226      993.827        1.094        0.324      124.072       35.796        0.083      341.586       16.400      863.204
09/12/2014  01:51:00     -109.998     -121.579       -0.690       41.216       57.043       27.920     1698.732     3253.912      779.543        1.631        0.287      163.954       21.878        0.018      341.601       16.425      863.201
09/12/2014  01:52:00     -102.225      -56.081       -2.712       38.216       33.652       26.457     1460.444     1132.439      699.995        0.845        0.165      116.598       23.129        0.039      341.581       16.391      863.200
09/12/2014  01:53:00     -116.687      -57.084       -9.562       38.349       34.316       24.201     1470.610     1177.595      585.692        1.010        0.162      129.902       22.591        0.030      341.604       16.432      863.194
09/12/2014  01:54:00     -109.913      -58.211       -2.302       31.958       27.505       17.537     1021.320      756.537      307.552        0.878        0.104      124.375       14.513        0.014      341.627       16.471      863.192
09/12/2014  01:55:00     -108.161      -67.843      -11.847       24.891       18.813       14.132      619.553      353.921      199.708        0.881        0.059      127.678        8.352        0.004      341.586       16.401      863.196
09/12/2014  01:56:00     -121.960     -102.378       -9.744       22.307       29.092       20.120      497.600      846.354      404.797        1.360        0.087      159.234       14.448        0.008      341.541       16.323      863.190
09/12/2014  01:57:00      -96.880      -93.536       -5.517       36.594       43.589       22.090     1339.098     1900.025      487.980        1.095        0.186      134.665       14.168        0.011      341.544       16.332      863.187
09/12/2014  01:58:00      -71.271      -43.246       -3.997       31.614       34.944       24.928      999.467     1221.083      621.380        0.490        0.142       83.365       19.815        0.056      341.556       16.352      863.192
09/12/2014  01:59:00      -91.508      -52.146        0.905       42.149       44.052       25.318     1776.549     1940.594      640.980        0.773        0.218      105.323       19.350        0.034      341.621       16.460      863.190
09/12/2014  02:00:00     -101.240      -51.339       -4.438       34.375       14.872       18.686     1181.657      221.187      349.157        0.733        0.088      113.514       18.190        0.026      341.539       16.320      863.185
09/12/2014  02:01:00     -113.505      -74.134       -5.880       26.511       15.275       14.999      702.832      233.326      224.967        0.979        0.058      135.571       13.369        0.010      341.557       16.354      863.182
09/12/2014  02:02:00      -91.598      -63.829       -9.462       43.068       21.797       15.610     1854.840      475.098      243.665        0.756        0.129      111.644       17.060        0.023      341.538       16.319      863.196
09/12/2014  02:03:00     -110.102      -93.930       -0.128       44.581       33.104       20.138     1987.478     1095.868      405.534        1.222        0.174      144.725       20.976        0.021      341.534       16.313      863.206
09/12/2014  02:04:00     -105.801      -60.353       -9.884       46.281       52.079       24.770     2141.949     2712.236      613.545        1.020        0.273      121.804       20.910        0.029      341.525       16.299      863.207
09/12/2014  02:05:00     -132.319      -80.508       -8.810       54.819       35.323       25.003     3005.147     1247.706      625.137        1.447        0.244      154.886       17.342        0.013      341.484       16.226      863.216
09/12/2014  02:06:00     -143.375      -84.173      -11.565       36.258       34.618       23.918     1314.611     1198.411      572.082        1.543        0.154      166.257       20.062        0.015      341.576       16.384      863.232
09/12/2014  02:07:00     -123.025      -78.652       -7.236       41.699       31.283       20.201     1738.782      978.627      408.062        1.225        0.156      146.018       18.460        0.016      341.624       16.464      863.232
09/12/2014  02:08:00      -95.193      -75.657        0.501       48.499       35.091       22.300     2352.148     1231.399      497.298        0.943        0.204      121.597       19.345        0.025      341.595       16.417      863.232
09/12/2014  02:09:00      -89.872      -67.091        1.543       41.319       32.906       24.895     1707.266     1082.825      619.764        0.799        0.170      112.153       24.341        0.047      341.618       16.455      863.244
09/12/2014  02:10:00      -82.536      -68.141        2.717       48.965       42.118       28.255     2397.595     1773.951      798.332        0.822        0.248      107.030       22.076        0.043      341.602       16.428      863.251
09/12/2014  02:11:00      -79.082      -72.459       10.153       47.051       36.895       24.409     2213.777     1361.263      595.821        0.789        0.209      107.258       28.579        0.071      341.620       16.459      863.255
09/12/2014  02:12:00     -104.278      -63.764       -0.828       44.400       36.011       24.247     1971.361     1296.792      587.938        0.940        0.193      122.228       26.311        0.046      341.633       16.482      863.256
09/12/2014  02:13:00     -100.941      -61.537       -3.818       38.006       22.050       18.420     1444.436      486.211      339.278        0.813        0.113      118.220       18.307        0.024      341.692       16.580      863.265
09/12/2014  02:14:00      -96.188      -56.356       -7.949       30.418       19.682       13.363      925.262      387.369      178.578        0.699        0.075      111.481       11.404        0.010      341.588       16.405      863.256
09/12/2014  02:15:00     -100.540      -64.407       -8.709       19.780       17.743       12.264      391.233      314.808      150.403        0.759        0.043      119.401        7.987        0.004      341.555       16.348      863.246
09/12/2014  02:16:00     -111.360      -58.264       -7.974       18.053       17.509       14.905      325.906      306.563      222.156        0.836        0.043      125.681        5.698        0.002      341.426       16.132      863.249
09/12/2014  02:17:00     -117.761      -77.376       -4.045       19.869       21.828       13.726      394.770      476.466      188.389        1.047        0.053      140.907       11.649        0.007      341.354       16.007      863.259
09/12/2014  02:18:00     -122.374      -78.393       -2.652       35.163       30.519       25.227     1236.459      931.411      636.389        1.197        0.140      145.330       22.436        0.024      341.398       16.082      863.264
09/12/2014  02:19:00     -159.823      -77.873      -16.263       41.433       22.910       23.699     1716.733      524.846      561.620        1.734        0.140      177.785       20.792        0.014      341.437       16.149      863.257
09/12/2014  02:20:00     -147.130      -76.067      -12.150       44.723       27.563       19.403     2000.112      759.743      376.487        1.536        0.157      165.630       16.359        0.010      341.388       16.064      863.262
09/12/2014  02:21:00      -97.215      -72.967        9.104       56.088       48.303       30.331     3145.881     2333.185      919.995        1.063        0.320      121.552       28.659        0.056      341.311       15.937      863.281
09/12/2014  02:22:00     -127.973     -117.401       -3.183       48.253       47.337       32.977     2328.357     2240.804     1087.456        1.791        0.283      173.666       22.708        0.017      341.256       15.843      863.285
09/12/2014  02:23:00     -134.183      -91.677      -14.975       28.461       35.087       22.056      810.039     1231.093      486.478        1.458        0.126      162.511       16.817        0.011      341.338       15.982      863.287
09/12/2014  02:24:00     -119.044      -78.294       -8.565       34.141       40.324       25.288     1165.590     1625.987      639.479        1.190        0.172      142.483       22.057        0.024      341.287       15.895      863.288
09/12/2014  02:25:00     -118.438      -71.841       -0.694       47.880       25.701       20.075     2292.519      660.520      403.009        1.127        0.168      138.523       19.594        0.020      341.280       15.884      863.291
09/12/2014  02:26:00     -113.060      -81.526       -0.090       45.244       35.843       24.897     2047.013     1284.722      619.860        1.169        0.198      139.388       26.110        0.035      341.253       15.838      863.288
09/12/2014  02:27:00     -160.435      -99.089       -4.981       36.656       34.280       25.679     1343.671     1175.101      659.399        1.938        0.159      188.568       22.795        0.015      341.291       15.903      863.290
09/12/2014  02:28:00     -114.794      -80.557        2.226       51.058       40.157       29.834     2606.942     1612.598      890.048        1.239        0.255      140.239       24.933        0.032      341.203       15.753      863.291
09/12/2014  02:29:00     -121.913      -79.342       -5.888       54.916       32.486       25.067     3015.799     1055.337      628.332        1.295        0.235      145.457       25.863        0.032      341.225       15.791      863.290
09/12/2014  02:30:00     -118.763      -71.035       -0.156       52.028       30.194       26.384     2706.950      911.680      696.118        1.173        0.216      138.386       22.866        0.027      341.241       15.817      863.286
09/12/2014  02:31:00      -99.484      -66.434       -2.732       41.901       35.138       18.394     1755.684     1234.705      338.340        0.882        0.166      119.627       18.705        0.024      341.236       15.808      863.287
09/12/2014  02:32:00     -116.382      -78.283       -2.078       40.460       31.326       26.845     1637.041      981.346      720.651        1.151        0.167      140.261       18.412        0.017      341.246       15.826      863.294
09/12/2014  02:33:00      -84.759      -82.205        3.087       46.413       36.893       27.130     2154.160     1361.086      736.010        0.910        0.213      118.075       22.195        0.035      341.222       15.785      863.294
09/12/2014  02:34:00     -108.704      -87.421       -7.950       30.533       33.826       19.728      932.239     1144.186      389.212        1.099        0.123      139.496       15.662        0.013      341.200       15.749      863.289
09/12/2014  02:35:00     -130.966      -72.885       -9.516       36.276       33.389       22.642     1315.946     1114.810      512.676        1.275        0.147      149.881       17.496        0.014      341.166       15.691      863.284
09/12/2014  02:36:00     -115.277      -82.478        4.147       55.933       33.119       30.645     3128.471     1096.873      939.088        1.264        0.258      141.744       30.323        0.046      341.099       15.576      863.269
09/12/2014  02:37:00     -145.682     -111.866       -7.610       37.659       34.029       25.077     1418.187     1157.988      628.844        1.850        0.160      183.678       24.158        0.017      341.109       15.593      863.256
09/12/2014  02:38:00     -113.633      -78.511        2.141       63.511       37.002       34.289     4033.603     1369.174     1175.725        1.283        0.329      138.118       36.335        0.069      341.115       15.603      863.245
09/12/2014  02:39:00     -100.809      -72.075       -1.012       43.022       38.074       25.474     1850.928     1449.633      648.924        0.965        0.197      123.924       20.332        0.027      341.100       15.579      863.259
09/12/2014  02:40:00     -111.251      -91.506        3.648       45.250       36.674       28.864     2047.572     1344.957      833.118        1.249        0.211      144.050       24.546        0.029      341.058       15.508      863.254
09/12/2014  02:41:00      -88.536      -64.868        9.190       53.402       42.535       27.614     2851.764     1809.245      762.530        0.878        0.271      109.757       29.557        0.073      341.021       15.446      863.247
09/12/2014  02:42:00     -123.446      -90.807       -2.984       34.871       33.748       22.893     1216.018     1138.930      524.068        1.319        0.144      153.248       17.805        0.013      341.018       15.440      863.260
09/12/2014  02:43:00     -102.394      -68.161       -0.286       39.477       27.398       24.177     1558.410      750.648      584.535        0.901        0.145      123.006       18.669        0.023      341.041       15.478      863.265
09/12/2014  02:44:00     -106.344      -50.573       -2.520       37.886       27.086       16.991     1435.352      733.662      288.678        0.816        0.123      117.757       17.832        0.023      341.034       15.466      863.260
09/12/2014  02:45:00     -106.256      -36.763       -7.617       21.916       17.742       17.041      480.301      314.762      290.399        0.689        0.054      112.436       11.211        0.010      341.070       15.529      863.261
09/12/2014  02:46:00      -99.999      -34.186       -3.655       21.283       20.777       13.127      452.970      431.695      172.311        0.612        0.053      105.681        8.606        0.007      341.063       15.516      863.275
09/12/2014  02:47:00     -127.260      -37.626      -12.039       27.143       17.180       10.607      736.749      295.162      112.514        0.945        0.057      132.706        7.614        0.003      341.053       15.498      863.285
09/12/2014  02:48:00     -147.728      -57.317       -6.134       16.058       15.357       11.334      257.868      235.831      128.455        1.288        0.031      158.458        7.812        0.002      341.065       15.520      863.280
09/12/2014  02:49:00     -130.541      -60.534      -12.654       16.215       14.186       11.522      262.940      201.249      132.766        1.073        0.030      143.893        4.895        0.001      340.964       15.349      863.268
09/12/2014  02:50:00     -117.818      -45.387      -18.494       17.606       14.948       12.226      309.964      223.428      149.483        0.848        0.034      126.258        6.406        0.003      340.920       15.272      863.272
09/12/2014  02:51:00     -125.275      -59.695      -12.694       19.193       15.426       13.785      368.376      237.962      190.037        1.011        0.040      138.771       11.569        0.007      340.936       15.302      863.276
09/12/2014  02:52:00     -105.335      -76.194      -16.101       28.887       23.339       16.390      834.448      544.720      268.621        0.940        0.082      130.004        7.347        0.003      340.978       15.372      863.271
09/12/2014  02:53:00      -95.691      -79.659       -5.923       40.998       33.719       21.114     1680.876     1136.982      445.806        0.940        0.163      124.508       18.728        0.023      340.984       15.381      863.267
09/12/2014  02:54:00      -97.385      -66.429        0.004       37.584       25.027       22.753     1412.546      626.363      517.681        0.823        0.128      117.884       18.950        0.026      340.929       15.289      863.274
09/12/2014  02:55:00      -97.684      -73.966       -2.658       35.706       31.804       18.442     1274.902     1011.496      340.121        0.882        0.131      122.528       16.328        0.018      340.904       15.246      863.273
09/12/2014  02:56:00     -120.780      -76.446      -12.209       25.298       18.107       20.602      640.009      327.847      424.446        1.099        0.070      142.940       10.024        0.005      340.938       15.303      863.265
09/12/2014  02:57:00     -131.912      -62.191      -19.026       15.060       17.252       15.387      226.800      297.647      236.759        1.120        0.038      145.837        4.867        0.001      340.880       15.207      863.259
09/12/2014  02:58:00     -146.789      -52.210      -16.004       14.844       14.682       11.471      220.358      215.571      131.585        1.255        0.028      155.798        7.304        0.002      340.885       15.214      863.259
09/12/2014  02:59:00     -155.744      -62.346      -10.801       22.514       20.508       14.664      506.875      420.566      215.033        1.470        0.057      167.760       11.468        0.005      340.874       15.195      863.252
09/12/2014  03:00:00     -149.990      -53.026       -0.529       27.445       20.899       19.803      753.202      436.762      392.146        1.345        0.079      159.087       17.196        0.012      340.937       15.301      863.257
09/12/2014  03:01:00     -120.352      -73.995       -1.381       31.223       21.276       20.287      974.894      452.651      411.569        1.090        0.092      141.279       18.944        0.018      340.965       15.349      863.264
09/12/2014  03:02:00     -132.960      -63.856       -9.129       28.347       25.992       17.387      803.576      675.581      302.296        1.181        0.089      147.499       11.659        0.006      340.973       15.364      863.272
09/12/2014  03:03:00     -106.064      -76.205       -3.606       36.816       30.322       22.717     1355.446      919.440      516.050        0.993        0.140      130.602       15.910        0.015      340.919       15.272      863.268
09/12/2014  03:04:00      -77.296      -79.692        1.779       54.445       43.228       27.196     2964.214     1868.675      739.645        0.895        0.279      111.020       28.186        0.064      340.807       15.084      863.263
09/12/2014  03:05:00      -98.516      -72.301        5.641       50.500       38.155       26.785     2550.255     1455.796      717.442        0.984        0.236      122.200       25.285        0.043      340.848       15.152      863.257
09/12/2014  03:06:00      -99.251      -55.244       -0.049       50.943       32.161       26.933     2595.152     1034.311      725.383        0.863        0.218      113.590       18.151        0.026      340.838       15.135      863.263
09/12/2014  03:07:00     -109.070      -74.824       -5.147       56.797       33.504       25.150     3225.908     1122.535      632.503        1.125        0.249      132.269       26.037        0.039      340.874       15.196      863.266
09/12/2014  03:08:00      -63.125      -58.949        4.499       54.469       31.055       24.588     2966.827      964.428      604.582        0.601        0.227       86.370       24.662        0.082      340.846       15.147      863.263
09/12/2014  03:09:00     -118.386      -72.335        3.579       52.593       36.113       22.184     2766.034     1304.157      492.146        1.191        0.228      138.736       22.857        0.027      340.856       15.164      863.256
09/12/2014  03:10:00     -120.926      -91.045        3.762       50.218       43.334       28.124     2521.804     1877.844      790.962        1.406        0.260      151.369       30.804        0.041      340.799       15.069      863.265
09/12/2014  03:11:00     -163.707      -90.994      -16.556       27.981       18.625       21.610      782.910      346.889      466.976        1.848        0.080      187.296       16.896        0.008      340.874       15.195      863.258
09/12/2014  03:12:00     -128.480      -82.297       -3.234       35.467       32.762       25.456     1257.902     1073.328      648.003        1.313        0.149      152.577       20.437        0.018      340.861       15.173      863.250
09/12/2014  03:13:00     -101.299      -81.845        4.357       41.906       35.108       26.906     1756.088     1232.540      723.928        1.035        0.186      130.231       23.588        0.033      340.853       15.160      863.254
09/12/2014  03:14:00      -77.576      -63.379        1.036       41.264       28.697       23.139     1702.723      823.527      535.410        0.655        0.153      100.175       22.950        0.052      340.827       15.117      863.266
09/12/2014  03:15:00      -86.432      -58.858        7.194       50.938       30.433       21.820     2594.709      926.184      476.134        0.749        0.200      104.570       24.637        0.056      340.808       15.084      863.269
09/12/2014  03:16:00      -87.483      -57.018       -0.612       42.915       35.764       18.018     1841.696     1279.040      324.664        0.717        0.172      104.424       17.415        0.028      340.884       15.213      863.264
09/12/2014  03:17:00     -100.946      -59.319       -3.186       24.447       23.670       13.695      597.641      560.264      187.542        0.753        0.067      117.085       11.870        0.010      340.895       15.232      863.260
09/12/2014  03:18:00      -92.058      -65.054       -6.458       33.942       23.439       18.041     1152.057      549.368      325.480        0.739        0.101      112.724       18.080        0.026      340.893       15.226      863.268
09/12/2014  03:19:00      -90.013      -58.931        2.853       33.877       21.979       17.637     1147.656      483.072      311.080        0.676        0.097      107.588       18.510        0.030      340.848       15.152      863.267
09/12/2014  03:20:00      -75.518      -59.014        3.120       32.309       26.782       15.366     1043.881      717.299      236.121        0.560        0.100       95.842       12.195        0.016      340.828       15.118      863.258
09/12/2014  03:21:00      -77.317      -46.264        1.244       29.989       22.466       19.150      899.334      504.699      366.719        0.495        0.089       90.102       17.838        0.039      340.774       15.027      863.249
09/12/2014  03:22:00      -84.821      -46.424       -2.460       24.138       16.435       13.448      582.648      270.122      180.837        0.519        0.052       96.694        8.539        0.008      340.779       15.035      863.255
09/12/2014  03:23:00      -60.612      -39.537        0.923       33.424       24.690       18.391     1117.153      609.574      338.237        0.365        0.103       72.367       14.888        0.042      340.731       14.955      863.252
09/12/2014  03:24:00      -68.083      -51.186        1.362       32.758       23.246       21.511     1073.067      540.375      462.721        0.467        0.104       85.178       16.941        0.040      340.725       14.943      863.255
09/12/2014  03:25:00      -85.800      -73.269       -4.227       32.708       28.035       18.356     1069.827      785.971      336.930        0.747        0.110      112.827       14.091        0.016      340.774       15.027      863.262
09/12/2014  03:26:00     -115.832      -52.675       -5.177       20.165       19.055       12.945      406.634      363.108      167.581        0.858        0.047      127.246        9.343        0.005      340.805       15.079      863.255
09/12/2014  03:27:00     -116.614      -52.713       -6.392       22.524       16.168       14.086      507.346      261.408      198.409        0.869        0.048      127.975       13.736        0.012      340.806       15.079      863.235
09/12/2014  03:28:00      -94.292      -62.272       -2.563       22.519       17.578       15.865      507.125      308.989      251.690        0.692        0.053      112.999       10.537        0.009      340.787       15.049      863.219
09/12/2014  03:29:00      -75.994      -46.528        4.749       37.310       24.895       17.412     1392.023      619.742      303.191        0.514        0.116       89.106       17.951        0.041      340.752       14.989      863.219
09/12/2014  03:30:00      -35.993      -25.262        4.707       29.834       16.697       16.009      890.042      278.778      256.281        0.169        0.071       43.974       11.161        0.064      340.658       14.832      863.228
09/12/2014  03:31:00      -29.567      -35.178       13.178       50.820       31.778       20.220     2582.714     1009.867      408.858        0.314        0.200       45.954       26.608        0.335      340.682       14.870      863.235
09/12/2014  03:32:00      -87.299      -97.006       -8.707       32.445       36.036       18.239     1052.678     1298.567      332.652        0.990        0.134      130.504       10.377        0.006      340.721       14.935      863.240
09/12/2014  03:33:00      -53.751      -66.614       -2.852       36.720       39.058       21.602     1348.347     1525.566      466.659        0.534        0.167       85.595       21.517        0.063      340.719       14.934      863.249
09/12/2014  03:34:00     -116.635      -46.056       -7.581       29.720       27.605       19.707      883.280      762.045      388.356        0.891        0.102      125.399       12.365        0.010      340.654       14.824      863.259
09/12/2014  03:35:00     -120.148      -59.264       -7.923       33.298       33.391       22.909     1108.726     1114.985      524.816        1.038        0.137      133.969       19.880        0.022      340.609       14.748      863.267
09/12/2014  03:36:00     -116.821      -65.180       -3.653       53.697       28.826       17.905     2883.395      830.954      320.584        1.097        0.202      133.775       23.039        0.030      340.569       14.679      863.264
09/12/2014  03:37:00     -103.998      -73.141        2.299       33.617       25.501       17.537     1130.083      650.294      307.535        0.913        0.104      127.142       12.590        0.010      340.576       14.692      863.258
09/12/2014  03:38:00      -93.542      -56.900        5.851       41.772       26.842       22.838     1744.871      720.472      521.580        0.750        0.149      109.488       24.196        0.049      340.538       14.628      863.255
09/12/2014  03:39:00      -79.174      -57.608        0.137       39.331       31.090       22.099     1546.916      966.583      488.375        0.629        0.150       97.915       19.292        0.039      340.547       14.643      863.259
09/12/2014  03:40:00     -127.817      -79.248       -6.569       17.028       22.673       16.901      289.949      514.077      285.657        1.188        0.054      150.391        9.728        0.004      340.615       14.758      863.254
09/12/2014  03:41:00     -132.364      -69.365       -4.280       30.531       21.457       22.278      932.160      460.412      496.315        1.212        0.094      149.438       15.022        0.010      340.637       14.795      863.250
09/12/2014  03:42:00     -112.431      -80.082       -3.651       37.630       24.263       18.749     1416.005      588.706      351.511        1.071        0.118      138.036       18.674        0.018      340.643       14.807      863.243
09/12/2014  03:43:00      -86.584      -71.455        1.141       49.676       29.709       22.923     2467.669      882.608      525.449        0.824        0.194      112.261       25.310        0.051      340.509       14.578      863.234
09/12/2014  03:44:00     -123.022      -77.522        4.349       46.492       31.601       24.117     2161.524      998.646      581.645        1.245        0.187      145.410       21.418        0.022      340.477       14.523      863.236
09/12/2014  03:45:00     -103.902      -53.327        2.944       59.462       31.411       25.384     3535.757      986.645      644.342        0.941        0.258      116.788       24.748        0.045      340.518       14.594      863.235
09/12/2014  03:46:00     -117.372      -79.931        4.209       39.892       32.004       23.501     1591.352     1024.283      552.307        1.167        0.158      142.004       22.207        0.024      340.536       14.624      863.231
09/12/2014  03:47:00     -132.401      -70.389       -6.599       27.253       24.613       19.238      742.740      605.800      370.093        1.212        0.086      149.949       13.297        0.008      340.532       14.618      863.223
09/12/2014  03:48:00     -105.525      -58.408        1.544       45.282       33.350       22.197     2050.424     1112.227      492.704        0.910        0.183      120.611       21.129        0.031      340.485       14.537      863.234
09/12/2014  03:49:00      -78.863      -76.008        1.889       50.148       36.805       22.608     2514.827     1354.621      511.142        0.819        0.219      109.529       25.448        0.054      340.509       14.579      863.239
09/12/2014  03:50:00      -88.299      -74.412        4.581       38.125       28.592       22.230     1453.538      817.475      494.191        0.806        0.138      115.473       13.261        0.013      340.484       14.535      863.235
09/12/2014  03:51:00     -101.320      -60.564       -0.951       30.569       30.042       22.427      934.452      902.507      502.979        0.814        0.117      118.041       18.946        0.026      340.418       14.425      863.234
09/12/2014  03:52:00     -118.027      -51.554       -7.885       16.823       19.065       10.475      283.009      363.476      109.736        0.870        0.038      128.795        9.134        0.005      340.481       14.530      863.242
09/12/2014  03:53:00     -124.202      -48.364      -11.876       13.626       14.440       12.427      185.675      208.516      154.438        0.923        0.027      133.286        7.308        0.003      340.448       14.475      863.236
09/12/2014  03:54:00     -122.976      -53.581       -5.167       15.933       18.179       14.608      253.859      330.491      213.387        0.941        0.040      134.142       11.269        0.007      340.371       14.345      863.244
09/12/2014  03:55:00      -99.782      -60.572       -3.201       22.087       23.685       17.174      487.820      560.974      294.943        0.749        0.067      116.728       13.291        0.013      340.422       14.432      863.261
09/12/2014  03:56:00      -98.257      -71.825       -7.843       34.658       21.500       17.848     1201.154      462.243      318.550        0.843        0.099      121.710       10.843        0.008      340.416       14.421      863.259
09/12/2014  03:57:00     -123.885      -68.793       -6.952       25.381       18.204       14.837      644.201      331.403      220.148        1.066        0.060      141.704       12.655        0.008      340.358       14.322      863.255
09/12/2014  03:58:00     -125.793      -71.125       -7.899       18.414       15.940       12.116      339.092      254.093      146.787        1.084        0.037      144.508        7.940        0.003      340.403       14.399      863.252
09/12/2014  03:59:00     -108.652      -63.851       -4.448       30.363       25.325       20.045      921.919      641.364      401.803        0.893        0.098      126.025       14.938        0.014      340.331       14.277      863.263
09/12/2014  04:00:00      -99.764      -70.366       -4.530       46.145       31.442       19.790     2129.379      988.588      391.636        0.922        0.175      122.083       20.293        0.028      340.321       14.262      863.270
09/12/2014  04:01:00     -117.318      -62.789       -2.749       29.400       26.972       19.960      864.346      727.474      398.417        0.985        0.100      133.064       16.797        0.016      340.378       14.357      863.268
09/12/2014  04:02:00     -109.170      -65.310       -6.594       26.759       31.004       19.952      716.034      961.219      398.072        0.915        0.104      127.215       15.575        0.015      340.405       14.402      863.269
09/12/2014  04:03:00     -114.849      -44.694        2.783       40.688       33.983       20.039     1655.475     1154.840      401.569        0.920        0.161      123.239       12.204        0.010      340.390       14.377      863.275
09/12/2014  04:04:00     -110.806      -66.766       -3.576       37.061       25.018       16.799     1373.512      625.905      282.216        0.951        0.114      129.366        8.822        0.005      340.432       14.447      863.281
09/12/2014  04:05:00      -90.093      -75.655        2.927       40.625       41.388       22.666     1650.383     1712.991      513.754        0.886        0.194      117.645       22.592        0.037      340.402       14.397      863.288
09/12/2014  04:06:00      -91.034      -76.704       -0.913       37.438       32.095       19.344     1401.607     1030.091      374.189        0.849        0.140      119.040       18.690        0.025      340.394       14.384      863.302
09/12/2014  04:07:00      -98.641      -78.888       -4.582       38.247       31.262       21.105     1462.835      977.341      445.404        0.943        0.144      126.307       17.515        0.019      340.368       14.342      863.310
09/12/2014  04:08:00      -90.345      -66.701       -1.893       36.451       30.111       23.279     1328.693      906.693      541.917        0.770        0.139      112.300       21.831        0.038      340.414       14.417      863.313
09/12/2014  04:09:00      -77.575      -54.238       -2.383       36.375       29.749       19.565     1323.125      885.028      382.790        0.578        0.130       94.655       14.864        0.025      340.404       14.401      863.317
09/12/2014  04:10:00      -93.765     -103.744       -7.905       55.707       48.613       29.109     3103.271     2363.236      847.330        1.296        0.316      139.838       26.345        0.035      340.386       14.370      863.329
09/12/2014  04:11:00     -133.592     -138.628      -13.933       43.911       64.058       33.288     1928.190     4103.447     1108.060        2.220        0.357      192.522       25.864        0.018      340.320       14.257      863.340
09/12/2014  04:12:00     -131.815      -78.867       -4.685       53.569       48.887       28.709     2869.598     2389.911      824.209        1.485        0.304      153.607       27.901        0.033      340.335       14.283      863.332
09/12/2014  04:13:00     -146.234      -61.665       -2.575       47.657       44.495       27.236     2271.148     1979.780      741.818        1.509        0.250      158.703       21.274        0.018      340.306       14.235      863.325
09/12/2014  04:14:00      -97.127      -67.886       -0.876       61.410       50.472       28.070     3771.227     2547.430      787.936        1.057        0.355      118.500       30.646        0.067      340.326       14.269      863.328
09/12/2014  04:15:00      -92.038      -67.382        3.104       34.052       35.791       23.127     1159.506     1281.020      534.859        0.800        0.149      114.067       17.839        0.024      340.343       14.297      863.329
09/12/2014  04:16:00      -66.935      -51.141       10.503       51.876       34.111       21.575     2691.169     1163.555      465.493        0.576        0.216       84.236       23.162        0.076      340.304       14.232      863.322
09/12/2014  04:17:00      -66.051      -64.055        4.228       49.615       43.281       23.986     2461.636     1873.247      575.311        0.670        0.246       92.010       21.631        0.055      340.389       14.374      863.311
09/12/2014  04:18:00      -70.201      -47.564        0.216       55.434       39.545       21.208     3072.957     1563.842      449.799        0.614        0.254       84.797       14.114        0.028      340.345       14.302      863.316
09/12/2014  04:19:00      -35.551      -38.636        8.301       40.110       26.686       20.408     1608.814      712.130      416.471        0.278        0.137       52.504       16.943        0.104      340.324       14.265      863.328
09/12/2014  04:20:00      -83.539      -52.020        3.684       42.043       31.299       22.760     1767.603      979.625      518.006        0.648        0.163       98.412       22.563        0.053      340.335       14.286      863.330
09/12/2014  04:21:00      -92.165      -55.101       -5.402       33.108       43.320       22.112     1096.151     1876.592      488.927        0.751        0.173      107.381       22.446        0.044      340.353       14.316      863.327
09/12/2014  04:22:00      -83.364      -61.229       -5.718       37.183       39.679       24.471     1382.546     1574.453      598.808        0.714        0.178      103.434       17.807        0.030      340.298       14.223      863.340
09/12/2014  04:23:00      -98.471      -92.175       -6.135       24.037       31.530       18.414      577.759      994.127      339.085        1.007        0.096      134.881       15.345        0.013      340.318       14.256      863.349
09/12/2014  04:24:00     -102.697      -70.064      -13.750       31.768       33.881       24.374     1009.218     1147.947      594.074        0.920        0.138      124.321       22.620        0.033      340.301       14.227      863.345
09/12/2014  04:25:00      -98.309      -60.166       -1.204       35.494       30.334       22.733     1259.799      920.149      516.771        0.799        0.135      115.259       20.409        0.031      340.297       14.221      863.348
09/12/2014  04:26:00     -105.290      -59.393      -11.441       44.954       30.511       23.494     2020.856      930.894      551.985        0.912        0.175      120.886       15.262        0.016      340.311       14.244      863.353
09/12/2014  04:27:00      -88.871      -61.145       -1.531       42.172       29.376       21.849     1778.456      862.920      477.368        0.738        0.156      107.874       21.112        0.038      340.256       14.151      863.370
09/12/2014  04:28:00      -98.928      -65.854        0.317       46.154       33.097       22.364     2130.185     1095.414      500.147        0.892        0.186      118.842       21.518        0.033      340.261       14.158      863.377
09/12/2014  04:29:00      -88.350      -64.267       -0.219       38.673       35.385       25.408     1495.577     1252.079      645.558        0.766        0.170      109.251       16.477        0.023      340.271       14.175      863.371
09/12/2014  04:30:00     -102.035      -58.229        2.740       40.257       32.830       21.984     1620.629     1077.840      483.316        0.850        0.159      117.481       17.363        0.022      340.241       14.125      863.377
09/12/2014  04:31:00      -76.858      -51.351        7.072       44.242       32.089       25.541     1957.364     1029.685      652.364        0.612        0.182       92.434       22.708        0.060      340.232       14.109      863.378
09/12/2014  04:32:00      -96.148      -70.687        1.119       37.458       42.749       21.141     1403.127     1827.442      446.932        0.896        0.184      119.336       19.357        0.026      340.217       14.085      863.373
09/12/2014  04:33:00      -90.850      -60.577       -0.533       42.160       30.453       18.913     1777.425      927.414      357.690        0.749        0.153      109.194       14.823        0.018      340.204       14.062      863.381
09/12/2014  04:34:00     -108.487      -88.333       -4.127       22.613       31.162       19.868      511.363      971.092      394.744        1.073        0.094      139.901       13.793        0.010      340.215       14.083      863.389
09/12/2014  04:35:00     -109.177      -79.396       -1.922       23.381       23.153       18.823      546.682      536.066      354.319        0.983        0.072      134.994       13.520        0.010      340.181       14.024      863.382
09/12/2014  04:36:00     -100.297      -39.008       -0.929       35.230       29.272       17.062     1241.156      856.865      291.098        0.699        0.119      107.615        8.765        0.007      340.125       13.930      863.379
09/12/2014  04:37:00      -95.715      -27.642       -2.525       31.781       27.777       17.311     1010.052      771.536      299.667        0.601        0.104       99.626       16.133        0.026      340.033       13.774      863.379
09/12/2014  04:38:00     -122.799      -18.610       -5.627       25.159       24.720       17.002      632.971      611.064      289.066        0.850        0.077      124.201       10.085        0.007      339.991       13.704      863.376
09/12/2014  04:39:00     -137.707      -20.870      -11.381       30.196       27.480       20.056      911.782      755.178      402.235        1.080        0.103      139.279       13.740        0.010      339.869       13.496      863.367
09/12/2014  04:40:00     -128.333      -33.756        4.124       54.422       29.055       22.179     2961.741      844.170      491.889        1.096        0.215      132.698       26.713        0.041      339.809       13.398      863.350
09/12/2014  04:41:00     -175.377      -38.105       -5.554       42.568       34.170       22.448     1812.040     1167.623      503.921        1.786        0.174      179.469       18.407        0.011      339.903       13.555      863.342
09/12/2014  04:42:00     -175.139      -56.155        3.241       43.131       30.105       21.183     1860.274      906.308      448.730        1.853        0.161      183.921       16.978        0.009      339.909       13.565      863.344
09/12/2014  04:43:00     -134.580      -43.892        1.214       40.242       24.711       18.790     1619.453      610.623      353.079        1.131        0.129      141.557       17.353        0.015      339.967       13.665      863.339
09/12/2014  04:44:00     -123.285      -65.610       -2.933       36.423       28.117       19.140     1326.602      790.582      366.323        1.100        0.124      139.657       17.860        0.016      340.017       13.749      863.336
09/12/2014  04:45:00     -102.658      -49.628        3.114       50.491       29.092       20.941     2549.324      846.370      438.524        0.842        0.192      114.025       13.983        0.015      340.002       13.722      863.336
09/12/2014  04:46:00      -78.858      -55.380        3.995       53.496       31.464       27.837     2861.873      989.975      774.887        0.696        0.231       96.361       24.226        0.063      339.984       13.692      863.340
09/12/2014  04:47:00      -94.063      -65.842       -0.628       43.486       35.518       23.510     1891.002     1261.498      552.707        0.844        0.185      114.817       21.397        0.035      340.021       13.753      863.330
09/12/2014  04:48:00      -72.374      -41.407        1.243       47.171       35.192       25.496     2225.119     1238.474      650.067        0.553        0.206       83.381       28.310        0.115      339.972       13.673      863.312
09/12/2014  04:49:00     -114.965      -36.189       -2.520       27.758       23.608       15.881      770.494      557.342      252.222        0.806        0.079      120.526       12.623        0.011      339.974       13.674      863.305
09/12/2014  04:50:00     -111.562      -41.050       -1.340       38.729       25.351       14.405     1499.964      642.692      207.510        0.824        0.118      118.874       16.626        0.020      339.999       13.717      863.312
09/12/2014  04:51:00     -101.844      -51.338       -0.629       27.007       26.863       18.271      729.386      721.597      333.834        0.740        0.089      114.051       13.999        0.015      339.985       13.694      863.319
09/12/2014  04:52:00      -91.191      -61.080       -3.213       30.593       22.765       14.837      935.941      518.267      220.134        0.687        0.084      109.757        7.458        0.005      340.006       13.728      863.320
09/12/2014  04:53:00     -105.397      -74.302       -7.056       27.481       26.159       18.068      755.204      684.305      326.464        0.922        0.088      128.955       11.512        0.008      340.039       13.784      863.315
09/12/2014  04:54:00      -84.698      -63.192       -2.070       35.605       18.574       18.994     1267.702      344.976      360.786        0.657        0.099      105.673       13.629        0.017      339.975       13.677      863.300
09/12/2014  04:55:00      -68.473      -44.088        1.507       38.612       20.567       15.277     1490.914      422.997      233.379        0.439        0.107       81.439       10.555        0.017      339.983       13.691      863.303
09/12/2014  04:56:00      -68.870      -35.256       -2.689       23.706       15.838       13.361      561.960      250.849      178.523        0.349        0.050       77.370        6.992        0.008      339.937       13.614      863.299
09/12/2014  04:57:00      -95.297      -37.427       -2.089       21.383       19.389       12.004      457.243      375.951      144.100        0.573        0.049      102.383       11.179        0.012      340.003       13.725      863.292
09/12/2014  04:58:00      -85.819      -49.536       -0.898       32.271       20.950       17.295     1041.399      438.899      299.124        0.580        0.089       99.090       15.882        0.026      340.043       13.791      863.292
09/12/2014  04:59:00      -42.993      -14.936        1.048       32.139       20.298       15.275     1032.918      412.011      233.334        0.188        0.084       45.514       18.560        0.166      340.002       13.721      863.297
09/12/2014  05:00:00      -63.371      -33.936       -1.659       16.947       12.325       13.246      287.185      151.900      175.452        0.289        0.031       71.885        9.766        0.018      340.054       13.809      863.313
09/12/2014  05:01:00      -76.658      -37.010       -4.291       13.885       14.416        6.310      192.801      207.827       39.816        0.385        0.022       85.124        5.334        0.004      340.057       13.814      863.319
09/12/2014  05:02:00      -79.600      -49.858       -4.919       23.941       21.336       16.370      573.153      455.226      267.969        0.507        0.065       93.925        9.245        0.010      340.014       13.744      863.317
09/12/2014  05:03:00      -79.540      -53.758       -6.001       27.562       26.662       18.220      759.687      710.861      331.983        0.553        0.090       96.002       10.334        0.012      340.014       13.743      863.316
09/12/2014  05:04:00      -83.652      -58.147       -3.940       29.598       27.058       17.722      876.034      732.140      314.076        0.616        0.096      101.876       11.908        0.014      340.071       13.837      863.319
09/12/2014  05:05:00      -88.142      -48.640       -2.938       23.116       19.631       15.754      534.342      385.385      248.185        0.566        0.058      100.672       10.614        0.011      340.082       13.859      863.316
09/12/2014  05:06:00     -115.654      -52.666      -10.375       20.154       15.715       12.911      406.183      246.952      166.705        0.854        0.041      127.081       12.667        0.010      340.092       13.872      863.307
09/12/2014  05:07:00     -100.897      -41.156       -7.561       14.235       14.632       10.921      202.639      214.084      119.257        0.623        0.027      108.968        7.291        0.004      339.992       13.706      863.306
09/12/2014  05:08:00     -101.847      -27.571      -10.371        8.178       11.009        6.829       66.888      121.192       46.641        0.574        0.012      105.513        4.014        0.001      340.021       13.754      863.308
09/12/2014  05:09:00      -91.144      -42.411      -11.628       10.490       15.295        9.138      110.031      233.951       83.505        0.533        0.021      100.528        5.107        0.003      340.042       13.791      863.316
09/12/2014  05:10:00      -78.457      -33.382       -3.932       15.834       13.936       14.757      250.710      194.201      217.761        0.397        0.033       85.263        8.286        0.009      340.042       13.790      863.323
09/12/2014  05:11:00      -88.752      -46.836       -9.998       14.630       16.781       11.168      214.031      281.587      124.722        0.540        0.031      100.352        3.013        0.001      340.019       13.751      863.326
09/12/2014  05:12:00      -84.880      -57.587       -9.116       33.058       19.976       17.291     1092.839      399.042      298.996        0.620        0.090      102.572       14.172        0.019      340.034       13.777      863.330
09/12/2014  05:13:00      -78.958      -57.960       -3.706       40.831       30.064       18.986     1667.200      903.838      360.477        0.627        0.147       97.947       13.174        0.018      339.901       13.553      863.337
09/12/2014  05:14:00     -111.266      -69.816       -1.541       32.783       35.135       22.720     1074.705     1234.477      516.192        1.004        0.141      131.356       20.290        0.024      339.847       13.463      863.340
09/12/2014  05:15:00     -120.248      -66.387        1.216       48.724       26.188       19.464     2374.042      685.802      378.829        1.115        0.172      137.357       24.331        0.031      339.854       13.474      863.343
09/12/2014  05:16:00      -84.815      -61.073        1.461       40.716       25.868       20.098     1657.799      669.163      403.912        0.683        0.137      104.516       19.111        0.033      339.831       13.436      863.349
09/12/2014  05:17:00      -81.048      -47.385        2.286       48.509       24.025       23.788     2353.124      577.198      565.871        0.616        0.175       93.883       27.164        0.084      339.896       13.544      863.356
09/12/2014  05:18:00      -98.960      -51.354       -0.071       28.284       21.338       20.084      799.975      455.295      403.369        0.704        0.083      111.492       17.658        0.025      339.914       13.574      863.360
09/12/2014  05:19:00     -111.774      -69.426       -4.527       23.223       22.715       17.581      539.321      515.954      309.082        0.935        0.068      131.580       13.341        0.010      339.908       13.564      863.359
09/12/2014  05:20:00      -99.863      -60.672        0.887       41.431       29.465       23.153     1716.487      868.209      536.070        0.839        0.156      116.849       22.703        0.038      339.902       13.555      863.355
09/12/2014  05:21:00      -93.054      -50.048        1.832       31.378       31.907       20.735      984.571     1018.068      429.950        0.680        0.122      105.659       20.174        0.036      339.872       13.503      863.358
09/12/2014  05:22:00      -94.442      -57.009        2.476       43.544       26.222       21.318     1896.084      687.588      454.449        0.761        0.152      110.314       18.125        0.027      339.865       13.491      863.364
09/12/2014  05:23:00     -121.295      -67.775        3.936       42.841       31.346       21.334     1835.356      982.562      455.133        1.130        0.164      138.946       18.285        0.017      339.879       13.515      863.369
09/12/2014  05:24:00     -136.585      -62.763        3.484       52.889       25.385       29.593     2797.209      644.388      875.721        1.346        0.216      150.316       29.077        0.037      339.850       13.467      863.356
09/12/2014  05:25:00     -116.606      -67.205        0.917       50.003       32.016       27.572     2500.261     1025.041      760.225        1.120        0.214      134.587       23.149        0.030      339.880       13.517      863.348
09/12/2014  05:26:00      -98.259      -69.432        1.588       52.115       33.183       24.268     2715.937     1101.090      588.946        0.944        0.220      120.314       20.926        0.030      339.860       13.484      863.348
09/12/2014  05:27:00      -56.399      -58.304        8.081       52.180       38.324       25.339     2722.739     1468.760      642.083        0.574        0.242       81.119       24.608        0.092      339.834       13.439      863.359
09/12/2014  05:28:00      -97.679      -67.106        1.254       44.529       41.612       30.775     1982.867     1731.579      947.123        0.935        0.233      118.509       29.141        0.060      339.887       13.529      863.357
09/12/2014  05:29:00     -109.195      -76.360        3.888       48.138       41.347       24.220     2317.238     1709.560      586.619        1.119        0.231      133.245       25.644        0.037      339.858       13.480      863.356
09/12/2014  05:30:00     -108.665      -83.931        3.082       52.950       30.987       25.879     2803.748      960.219      669.709        1.165        0.222      137.304       22.098        0.026      339.838       13.445      863.355
09/12/2014  05:31:00      -85.144      -54.331        9.983       40.396       33.081       23.272     1631.820     1094.378      541.598        0.678        0.163      101.002       23.741        0.055      339.797       13.377      863.360
09/12/2014  05:32:00     -109.947      -80.621        5.570       30.791       34.368       25.011      948.089     1181.127      625.571        1.069        0.138      136.338       15.070        0.012      339.806       13.392      863.358
09/12/2014  05:33:00      -97.479      -55.448        7.921       46.550       36.689       26.132     2166.882     1346.075      682.866        0.842        0.210      112.146       25.270        0.051      339.807       13.393      863.349
09/12/2014  05:34:00      -96.571      -59.405        2.854       49.183       27.624       26.298     2418.939      763.096      691.562        0.837        0.194      113.380       25.636        0.051      339.808       13.397      863.353
09/12/2014  05:35:00      -82.696      -57.305       -0.355       42.069       29.046       22.240     1769.780      843.666      494.610        0.661        0.155      100.611       22.770        0.051      339.839       13.448      863.350
09/12/2014  05:36:00      -67.531      -46.820        4.416       38.081       22.044       23.913     1450.196      485.919      571.811        0.464        0.125       82.174       23.351        0.081      339.840       13.449      863.350
09/12/2014  05:37:00      -64.198      -66.569        6.062       32.936       32.370       21.545     1084.774     1047.833      464.171        0.559        0.130       92.481       20.855        0.051      339.833       13.437      863.357
09/12/2014  05:38:00      -85.273      -75.717       -0.618       40.927       46.839       21.826     1675.042     2193.865      476.354        0.867        0.217      114.037       27.135        0.057      339.803       13.387      863.373
09/12/2014  05:39:00     -110.416     -117.036      -13.128       34.115       41.470       23.095     1163.818     1719.768      533.361        1.474        0.171      160.901       17.724        0.012      339.781       13.351      863.388
09/12/2014  05:40:00     -104.434      -74.296       -3.235       38.676       45.085       23.438     1495.808     2032.688      549.326        1.026        0.204      128.165       18.375        0.021      339.758       13.313      863.391
09/12/2014  05:41:00     -112.236      -71.276       -9.199       30.565       36.039       20.298      934.210     1298.784      411.995        1.020        0.132      132.956       14.474        0.012      339.747       13.291      863.395
09/12/2014  05:42:00     -121.661      -73.581       -5.559       48.119       37.639       23.692     2315.420     1416.700      561.329        1.227        0.215      142.181       22.703        0.025      339.734       13.271      863.391
09/12/2014  05:43:00     -127.946      -85.127       -2.104       50.281       34.476       21.204     2528.141     1188.569      449.608        1.389        0.208      153.677       22.309        0.021      339.773       13.335      863.400
09/12/2014  05:44:00     -101.539      -63.208       -0.990       36.243       36.648       22.841     1313.548     1343.108      521.702        0.874        0.159      119.605       19.982        0.028      339.753       13.303      863.414
09/12/2014  05:45:00      -98.670      -68.815       -4.979       36.757       28.055       20.053     1351.043      787.067      402.142        0.852        0.127      120.297       15.145        0.016      339.762       13.318      863.415
09/12/2014  05:46:00     -101.030      -66.901       -1.459       30.181       28.847       21.233      910.906      832.166      450.834        0.844        0.110      121.173       17.630        0.021      339.774       13.338      863.415
09/12/2014  05:47:00      -88.936      -48.947       -2.610       26.412       23.960       14.988      697.583      574.059      224.644        0.590        0.075      101.516       11.529        0.013      339.768       13.329      863.420
09/12/2014  05:48:00      -84.144      -56.479       -1.401       32.689       22.144       14.974     1068.549      490.365      224.219        0.603        0.089      101.341       16.427        0.026      339.781       13.348      863.435
09/12/2014  05:49:00      -70.943      -58.924        2.744       32.981       30.385       19.608     1087.743      923.229      384.455        0.545        0.120       92.222       15.604        0.029      339.762       13.316      863.444
09/12/2014  05:50:00      -40.258      -26.157       12.505       43.497       33.708       24.343     1891.952     1136.227      592.591        0.304        0.181       48.009       22.122        0.212      339.696       13.207      863.443
09/12/2014  05:51:00      -61.347      -47.257        6.850       49.069       33.229       24.754     2407.755     1104.172      612.762        0.508        0.206       77.438       25.788        0.111      339.669       13.161      863.447
09/12/2014  05:52:00      -86.300      -62.584        4.444       41.062       26.844       19.025     1686.075      720.602      361.934        0.708        0.138      106.604       15.034        0.020      339.732       13.266      863.450
09/12/2014  05:53:00      -78.540      -55.460        0.408       28.191       30.141       19.456      794.741      908.485      378.545        0.566        0.104       96.148       15.227        0.025      339.697       13.208      863.446
09/12/2014  05:54:00      -90.813      -61.786        2.477       24.810       27.357       18.336      615.548      748.412      336.203        0.689        0.085      109.839       13.148        0.014      339.729       13.262      863.451
09/12/2014  05:55:00      -57.336      -37.740        1.417       46.249       29.517       19.520     2138.936      871.237      381.020        0.405        0.170       68.642       22.577        0.108      339.705       13.222      863.469
09/12/2014  05:56:00      -60.540      -52.474        0.929       27.620       27.269       14.943      762.868      743.593      223.282        0.407        0.086       80.116        9.236        0.013      339.666       13.155      863.490
09/12/2014  05:57:00      -76.136      -49.076       -5.012       27.227       28.258       16.918      741.310      798.517      286.225        0.503        0.091       90.582       12.199        0.018      339.699       13.210      863.498
09/12/2014  05:58:00      -41.043      -37.254       11.273       46.642       24.854       21.994     2175.464      617.709      483.730        0.324        0.164       55.429       24.616        0.197      339.656       13.139      863.505
09/12/2014  05:59:00      -52.745      -61.758       -0.530       42.260       25.200       17.338     1785.869      635.020      300.604        0.466        0.136       81.217       17.877        0.048      339.676       13.173      863.516
09/12/2014  06:00:00      -70.180      -52.511        1.513       35.642       22.292       16.060     1270.354      496.950      257.921        0.485        0.101       87.650       15.962        0.033      339.677       13.175      863.535
09/12/2014  06:01:00     -105.070      -75.555       -4.684       22.287       30.021       15.977      496.730      901.233      255.270        0.921        0.083      129.415       13.579        0.011      339.665       13.152      863.545
09/12/2014  06:02:00     -114.733      -55.114       -6.038       36.249       25.319       21.433     1314.002      641.047      459.378        0.933        0.121      127.284       15.873        0.016      339.712       13.234      863.545
09/12/2014  06:03:00      -86.779      -46.663       -3.814       52.236       26.585       22.200     2728.578      706.763      492.831        0.682        0.196       98.530       25.883        0.069      339.630       13.093      863.545
09/12/2014  06:04:00      -95.371      -63.228       -0.027       44.614       33.117       22.067     1990.383     1096.742      486.933        0.833        0.179      114.426       21.254        0.035      339.601       13.046      863.564
09/12/2014  06:05:00      -55.018      -52.920        7.901       46.589       30.967       19.211     2170.509      958.982      369.068        0.469        0.175       76.338       21.411        0.079      339.628       13.092      863.582
09/12/2014  06:06:00      -60.993      -37.437        6.178       50.581       28.645       25.651     2558.471      820.550      657.969        0.460        0.202       71.566       29.929        0.175      339.637       13.107      863.602
09/12/2014  06:07:00      -66.175      -48.052        5.376       51.859       38.321       23.261     2689.320     1468.502      541.082        0.571        0.235       81.781       26.025        0.101      339.589       13.026      863.604
09/12/2014  06:08:00     -121.066      -70.543       -4.301       39.563       32.599       24.017     1565.257     1062.671      576.796        1.143        0.160      140.119       17.766        0.016      339.638       13.109      863.611
09/12/2014  06:09:00     -106.787      -82.361       -1.265       50.321       33.075       27.213     2532.163     1093.984      740.574        1.128        0.218      134.859       27.894        0.043      339.672       13.165      863.617
09/12/2014  06:10:00      -96.557      -86.904       -0.446       54.258       37.973       26.959     2943.977     1441.933      726.808        1.099        0.256      129.906       22.011        0.029      339.586       13.021      863.620
09/12/2014  06:11:00     -127.352     -105.977        1.609       53.887       59.145       31.099     2903.759     3498.134      967.122        1.741        0.368      165.679       28.734        0.030      339.561       12.977      863.630
09/12/2014  06:12:00     -100.482      -87.568       -5.542       55.062       41.128       30.232     3031.828     1691.525      913.948        1.172        0.282      133.284       25.984        0.038      339.556       12.970      863.637
09/12/2014  06:13:00     -111.576      -90.345        2.804       62.560       41.812       35.719     3913.707     1748.251     1275.847        1.378        0.347      143.567       34.617        0.058      339.541       12.943      863.641
09/12/2014  06:14:00     -134.540     -128.859       -7.098       42.609       44.270       27.397     1815.558     1959.855      750.598        1.964        0.226      186.295       23.437        0.016      339.464       12.814      863.640
09/12/2014  06:15:00     -136.042      -97.369       -0.408       52.980       55.764       28.536     2806.890     3109.586      814.286        1.736        0.337      167.297       26.993        0.026      339.500       12.876      863.629
09/12/2014  06:16:00     -112.851      -70.792        3.493       51.716       35.159       23.957     2674.547     1236.185      573.948        1.112        0.224      133.217       25.984        0.038      339.541       12.945      863.624
09/12/2014  06:17:00      -77.481      -43.386        1.604       47.389       26.186       23.727     2245.746      685.724      562.981        0.569        0.175       88.801       24.319        0.075      339.513       12.898      863.626
09/12/2014  06:18:00     -107.643      -48.899       -3.524       33.568       21.403       17.144     1126.838      458.106      293.923        0.793        0.094      118.229       12.189        0.011      339.542       12.947      863.630
09/12/2014  06:19:00      -94.490      -55.403       -4.793       36.946       26.751       21.413     1365.001      715.611      458.511        0.728        0.127      109.534       19.220        0.031      339.487       12.852      863.647
09/12/2014  06:20:00      -63.418      -44.636        3.590       45.057       39.223       27.315     2030.148     1538.466      746.117        0.517        0.216       77.551       23.897        0.095      339.450       12.791      863.656
09/12/2014  06:21:00      -99.376      -52.612        0.329       51.481       28.836       23.745     2650.258      831.509      563.828        0.834        0.202      112.444       21.177        0.035      339.389       12.689      863.661
09/12/2014  06:22:00      -94.914      -72.091       -0.870       37.441       31.071       25.540     1401.860      965.389      652.311        0.861        0.151      119.188       21.749        0.033      339.377       12.668      863.664
09/12/2014  06:23:00      -97.147      -47.859       -1.654       39.040       34.087       22.287     1524.153     1161.902      496.726        0.746        0.159      108.296       15.518        0.021      339.336       12.599      863.666
09/12/2014  06:24:00     -126.558      -23.902       -6.120       23.133       20.086       14.882      535.137      403.443      221.484        0.889        0.058      128.796       10.433        0.007      339.297       12.532      863.680
09/12/2014  06:25:00     -127.622      -31.931       -8.002       18.162       18.176       13.230      329.875      330.371      175.030        0.910        0.042      131.556        6.107        0.002      339.292       12.527      863.690
09/12/2014  06:26:00     -123.284      -58.141       -7.574       22.021       22.866       14.668      484.936      522.864      215.140        0.993        0.061      136.306        8.682        0.004      339.278       12.501      863.712
09/12/2014  06:27:00     -121.572      -43.325       -6.149       22.775       25.204       17.115      518.706      635.243      292.921        0.907        0.072      129.061       10.893        0.007      339.251       12.458      863.721
09/12/2014  06:28:00     -131.797      -62.721       -0.010       31.579       30.814       18.518      997.218      949.530      342.925        1.180        0.114      145.960       17.532        0.014      339.258       12.468      863.722
09/12/2014  06:29:00     -143.210      -62.819       -5.645       28.639       26.734       19.552      820.197      714.731      382.281        1.320        0.096      156.382       13.742        0.008      339.234       12.429      863.725
09/12/2014  06:30:00     -111.298      -61.776        0.519       29.798       32.866       19.184      887.907     1080.167      368.026        0.927        0.117      127.293       14.145        0.012      339.281       12.506      863.730
09/12/2014  06:31:00     -108.933      -67.672       -5.015       42.312       25.816       19.850     1790.307      666.476      394.036        0.966        0.143      128.242       22.080        0.030      339.348       12.621      863.739
09/12/2014  06:32:00     -111.855      -48.978       -5.550       23.873       24.045       14.616      569.903      578.184      213.636        0.815        0.068      122.108       12.661        0.011      339.340       12.607      863.746
09/12/2014  06:33:00     -102.904      -36.818       -8.465       25.330       16.624       15.159      641.584      276.369      229.795        0.658        0.057      109.293       12.576        0.013      339.299       12.534      863.754
09/12/2014  06:34:00     -117.921      -30.768       -4.312       15.517       13.729       12.623      240.782      188.473      159.334        0.773        0.029      121.869        8.195        0.005      339.266       12.482      863.759
09/12/2014  06:35:00     -135.708      -26.373      -13.207       20.095       20.853       13.390      403.827      434.861      179.296        1.015        0.051      138.246       11.572        0.007      339.280       12.505      863.764
09/12/2014  06:36:00     -142.297      -38.249       -8.911       15.454       17.363       13.034      238.827      301.467      169.889        1.125        0.036      147.347        9.124        0.004      339.228       12.416      863.767
09/12/2014  06:37:00     -105.522      -51.966       -8.360       22.365       17.616       16.795      500.199      310.332      282.079        0.750        0.055      117.624       10.716        0.008      339.119       12.235      863.779
09/12/2014  06:38:00     -103.231      -37.740      -15.306       17.695       16.660       15.306      313.124      277.565      234.271        0.657        0.041      109.914        9.280        0.007      339.024       12.075      863.787
09/12/2014  06:39:00      -98.311      -63.465      -15.159       15.661       11.767       11.782      245.266      138.470      138.822        0.722        0.026      117.017        6.653        0.003      338.959       11.965      863.793
09/12/2014  06:40:00      -97.804      -71.211       -1.380       25.119       17.105       16.084      630.959      292.581      258.679        0.791        0.059      120.982       10.467        0.007      338.952       11.954      863.804
09/12/2014  06:41:00     -112.951      -62.611      -11.535       15.012       15.990       10.404      225.358      255.683      108.235        0.870        0.029      129.143        5.319        0.002      338.978       11.998      863.810
09/12/2014  06:42:00      -56.782      -37.226       -4.179       43.306       38.300       21.333     1875.411     1466.904      455.110        0.421        0.190       67.897       18.900        0.077      338.985       12.010      863.820
09/12/2014  06:43:00      -94.079      -59.859      -14.334       19.006       19.374       14.906      361.221      375.361      222.174        0.680        0.048      111.507        8.962        0.006      339.080       12.168      863.832
09/12/2014  06:44:00      -74.879      -49.496       -4.102       41.555       21.587       17.755     1726.825      465.995      315.229        0.529        0.125       89.759       18.620        0.043      339.213       12.392      863.835
09/12/2014  06:45:00      -49.614      -42.778        5.753       45.408       26.095       18.380     2061.852      680.950      337.832        0.370        0.154       65.510        9.099        0.019      339.281       12.506      863.840
09/12/2014  06:46:00      -34.265      -33.934        4.608       33.249       34.248       23.180     1105.486     1172.959      537.325        0.258        0.141       48.224       20.795        0.186      339.215       12.397      863.840
09/12/2014  06:47:00      -59.494      -56.928        0.128       29.787       27.581       19.706      887.275      760.685      388.339        0.441        0.102       82.343       14.024        0.029      339.152       12.290      863.854
09/12/2014  06:48:00      -69.421      -52.181        4.161       32.398       26.006       19.072     1049.604      676.296      363.749        0.482        0.104       86.845       14.626        0.028      339.165       12.313      863.881
09/12/2014  06:49:00      -74.883      -61.501       -2.039       45.413       24.834       16.985     2062.384      616.712      288.473        0.618        0.148       96.901       22.347        0.053      339.251       12.456      863.898
09/12/2014  06:50:00      -87.916      -56.758       -0.310       34.051       30.381       20.270     1159.447      922.977      410.869        0.672        0.125      104.646       17.168        0.027      339.262       12.474      863.895
09/12/2014  06:51:00      -89.479      -76.933       -2.729       45.477       37.361       24.070     2068.200     1395.844      579.378        0.899        0.202      118.005       18.241        0.024      339.264       12.478      863.896
09/12/2014  06:52:00      -73.667      -73.861       11.077       49.699       32.839       26.174     2470.018     1078.428      685.088        0.762        0.212      104.318       26.805        0.066      339.238       12.433      863.900
09/12/2014  06:53:00     -117.996      -73.341       -1.297       51.254       34.877       23.930     2627.002     1216.414      572.642        1.186        0.221      138.932       21.912        0.025      339.318       12.569      863.908
09/12/2014  06:54:00     -138.759      -70.975       -0.903       36.763       25.999       19.244     1351.529      675.953      370.319        1.334        0.120      155.857       16.425        0.011      339.345       12.614      863.900
09/12/2014  06:55:00      -89.152      -59.774        2.852       33.385       25.889       17.657     1114.537      670.247      311.785        0.681        0.105      107.336       12.453        0.013      339.333       12.594      863.898
09/12/2014  06:56:00      -73.432      -46.002       -1.301       31.669       29.623       20.007     1002.943      877.523      400.269        0.490        0.114       86.652       17.152        0.039      339.354       12.630      863.895
09/12/2014  06:57:00      -95.500      -32.493        0.495       31.078       20.423       16.874      965.845      417.107      284.742        0.592        0.083      100.876       15.852        0.025      339.326       12.583      863.890
09/12/2014  06:58:00      -66.442      -50.127        2.786       34.892       25.138       24.206     1217.485      631.915      585.927        0.468        0.122       83.230       16.624        0.040      339.333       12.593      863.893
09/12/2014  06:59:00      -67.046      -45.168        4.397       36.196       32.016       18.437     1310.181     1025.055      339.930        0.461        0.134       80.841       15.510        0.037      339.324       12.579      863.881
09/12/2014  07:00:00      -83.323      -43.992       -5.453       25.473       21.211       13.805      648.852      449.908      190.588        0.510        0.064       94.223        9.494        0.010      339.363       12.645      863.876
09/12/2014  07:01:00     -101.239      -37.916      -10.473       15.524       19.001       14.640      240.980      361.025      214.316        0.631        0.041      108.106        8.670        0.006      339.337       12.601      863.874
09/12/2014  07:02:00      -85.292      -50.095        4.145       40.738       23.740       18.051     1659.589      563.597      325.835        0.617        0.127       98.915       14.637        0.022      339.348       12.621      863.874
09/12/2014  07:03:00      -82.707      -42.989        5.511       35.321       33.523       19.736     1247.594     1123.771      389.502        0.574        0.138       93.212       18.313        0.039      339.414       12.730      863.882
09/12/2014  07:04:00      -92.794      -69.314        1.779       40.820       32.513       21.725     1666.273     1057.080      471.967        0.831        0.160      115.824       18.042        0.024      339.449       12.791      863.880
09/12/2014  07:05:00      -92.492      -76.477       -2.432       24.860       26.711       19.081      618.009      713.497      364.095        0.805        0.085      120.014       13.719        0.013      339.483       12.847      863.881
09/12/2014  07:06:00      -76.501      -45.438       -1.273       36.237       32.599       20.959     1313.131     1062.722      439.277        0.537        0.141       88.978       17.873        0.040      339.466       12.819      863.887
09/12/2014  07:07:00      -87.578      -46.045       -2.775       32.316       25.213       17.048     1044.307      635.711      290.644        0.588        0.099       98.945        8.324        0.007      339.518       12.905      863.895
09/12/2014  07:08:00      -89.281      -68.788        0.014       36.259       27.549       20.277     1314.701      758.935      411.157        0.759        0.124      112.707       20.706        0.034      339.509       12.891      863.914
09/12/2014  07:09:00      -98.660      -48.954        0.526       37.024       26.813       20.348     1370.740      718.922      414.029        0.732        0.125      110.138       22.749        0.043      339.544       12.950      863.934
09/12/2014  07:10:00      -60.306      -48.335        6.762       38.181       25.507       22.053     1457.786      650.604      486.330        0.431        0.130       77.286       18.713        0.059      339.524       12.918      863.936
09/12/2014  07:11:00      -38.100      -41.284        5.731       31.653       26.037       20.939     1001.882      677.949      438.427        0.265        0.106       56.177       17.577        0.098      339.583       13.016      863.943
09/12/2014  07:12:00      -27.368      -30.737       12.983       34.589       27.283       19.785     1196.420      744.387      391.457        0.210        0.117       41.155       18.329        0.198      339.606       13.054      863.956
09/12/2014  07:13:00      -76.362      -56.473       -0.073       35.690       29.110       21.844     1273.796      847.415      477.174        0.581        0.130       94.976       18.347        0.037      339.573       13.000      863.970
09/12/2014  07:14:00      -70.304      -29.813       -3.481       37.752       28.883       18.555     1425.229      834.200      344.299        0.422        0.130       76.364       12.317        0.026      339.566       12.987      863.966
09/12/2014  07:15:00      -60.542      -59.203       -2.180       30.926       34.918       15.956      956.407     1219.300      254.587        0.480        0.122       84.678       16.471        0.038      339.650       13.128      863.978
09/12/2014  07:16:00      -79.943      -56.651       -9.289       28.772       32.065       17.846      827.829     1028.134      318.476        0.593        0.109       97.981        6.867        0.005      339.673       13.168      863.984
09/12/2014  07:17:00      -81.742      -73.005       -1.741       23.650       30.518       20.554      559.314      931.326      422.469        0.696        0.096      109.597       14.991        0.019      339.598       13.042      863.991
09/12/2014  07:18:00      -74.829      -71.814       -8.031       17.447       22.365       14.507      304.390      500.173      210.465        0.592        0.051      103.714        7.124        0.005      339.643       13.118      863.999
09/12/2014  07:19:00      -65.582      -64.729       -2.307       26.952       17.457       14.880      726.388      304.752      221.426        0.487        0.063       92.145       11.666        0.016      339.683       13.184      864.006
09/12/2014  07:20:00      -84.292      -88.226      -10.948       30.377       19.515       15.644      922.776      380.835      244.727        0.828        0.077      122.020       15.749        0.017      339.655       13.138      864.001
09/12/2014  07:21:00      -92.369      -83.983       -6.865       32.583       17.429       18.518     1061.650      303.775      342.921        0.867        0.085      124.841       14.697        0.014      339.617       13.075      864.010
09/12/2014  07:22:00      -64.567      -62.105        3.908       18.455       36.488       16.920      340.599     1331.344      286.303        0.500        0.098       89.587        8.733        0.010      339.644       13.119      864.006
09/12/2014  07:23:00      -90.701      -52.512        0.610       28.571       23.658       16.812      816.303      559.720      282.649        0.632        0.083      104.806       16.750        0.026      339.693       13.200      864.011
09/12/2014  07:24:00      -96.117      -44.401       -4.642       18.480       17.499       11.594      341.519      306.220      134.426        0.601        0.039      105.877        7.998        0.006      339.685       13.187      864.018
09/12/2014  07:25:00      -67.188      -55.843        0.167       25.094       22.024       13.175      629.688      485.036      173.587        0.446        0.064       87.365        9.744        0.012      339.703       13.219      864.022
09/12/2014  07:26:00      -62.849      -33.248       -2.750       21.666       20.973       13.447      469.409      439.873      180.814        0.308        0.055       71.101       12.015        0.029      339.786       13.359      864.042
09/12/2014  07:27:00      -38.990      -24.311        7.099       22.863       20.498       16.981      522.719      420.173      288.357        0.170        0.062       45.949       12.617        0.075      339.837       13.444      864.043
09/12/2014  07:28:00      -65.914      -49.366        0.419       28.591       20.394       16.088      817.451      415.932      258.823        0.414        0.075       82.351       14.646        0.032      339.848       13.464      864.055
09/12/2014  07:29:00      -46.949      -42.517        6.340       33.663       24.633       16.834     1133.185      606.800      283.369        0.304        0.101       63.340       14.966        0.056      339.928       13.598      864.052
09/12/2014  07:30:00      -61.793      -39.497        5.964       41.420       32.026       19.589     1715.638     1025.674      383.736        0.427        0.156       73.337       21.509        0.086      339.905       13.559      864.063
09/12/2014  07:31:00      -68.544      -49.877        2.855       38.352       27.737       20.834     1470.867      769.357      434.053        0.493        0.134       84.771       20.803        0.060      339.898       13.546      864.053
09/12/2014  07:32:00      -89.612      -48.351        0.623       28.012       30.017       20.454      784.652      901.034      418.349        0.624        0.105      101.824       15.504        0.023      339.916       13.579      864.059
09/12/2014  07:33:00      -45.389      -37.656       -1.303       29.207       18.284       12.560      853.045      334.293      157.752        0.241        0.067       58.976       10.526        0.032      340.022       13.757      864.052
09/12/2014  07:34:00      -12.320      -20.608        2.895       23.065       15.719       14.594      532.001      247.077      212.972        0.079        0.050       24.010       14.418        0.361      340.036       13.780      864.055
09/12/2014  07:35:00      -36.844      -24.319        2.237       32.575       16.392       14.989     1061.154      268.707      224.663        0.175        0.078       44.146       11.811        0.072      340.126       13.932      864.051
09/12/2014  07:36:00      -68.517      -32.696       -5.833       13.785       11.389       10.860      190.032      129.699      117.935        0.312        0.022       75.918        5.883        0.006      340.073       13.844      864.055
09/12/2014  07:37:00      -64.882      -39.528       -2.429       14.588       16.514       12.248      212.820      272.715      150.015        0.321        0.032       75.975        5.188        0.005      340.128       13.936      864.058
09/12/2014  07:38:00      -51.533      -15.032       -9.345        7.597        9.906        9.064       57.716       98.129       82.150        0.160        0.012       53.681        4.826        0.008      340.105       13.896      864.063
09/12/2014  07:39:00      -51.525      -32.757       -3.886       10.719        7.896       11.815      114.902       62.340      139.594        0.203        0.016       61.056        5.220        0.007      340.144       13.962      864.063
09/12/2014  07:40:00      -58.858      -22.528       -7.854        9.765        5.611        7.170       95.347       31.480       51.412        0.211        0.009       63.022        2.065        0.001      340.197       14.051      864.066
09/12/2014  07:41:00      -30.010      -27.773       -6.590       19.086       12.324        8.569      364.288      151.890       73.422        0.115        0.029       40.889        7.607        0.035      340.292       14.213      864.064
09/12/2014  07:42:00      -40.363      -21.689        1.812       19.828       13.406       13.954      393.165      179.709      194.722        0.144        0.038       45.821       14.155        0.095      340.391       14.377      864.068
09/12/2014  07:43:00      -18.034      -28.160        7.838       13.621       15.863       12.903      185.534      251.631      166.495        0.089        0.030       33.440       12.503        0.140      340.357       14.321      864.070
09/12/2014  07:44:00        9.042      -25.099       -4.819       33.775       20.198       18.442     1140.763      407.973      340.111        0.131        0.094       26.678       16.047        0.362      340.105       13.896      864.068
09/12/2014  07:45:00        4.718       -2.990        0.789       22.554       20.138       18.084      508.661      405.548      327.035        0.064        0.062        5.586        5.448        0.951      340.153       13.976      864.056
09/12/2014  07:46:00       16.368      -10.127       -1.428       26.034       18.851       22.989      677.784      355.364      528.501        0.097        0.078       19.247       12.446        0.418      340.209       14.070      864.056
09/12/2014  07:47:00       21.080        0.551        5.636       23.394       20.343       18.955      547.297      413.839      359.277        0.090        0.066       21.087       11.260        0.285      340.247       14.137      864.063
09/12/2014  07:48:00       26.782      -12.109       -1.875       23.337       21.744       23.009      544.595      472.802      529.435        0.121        0.077       29.392       18.327        0.389      340.288       14.205      864.071
09/12/2014  07:49:00       10.655        5.751       20.695       17.675       15.915       17.671      312.396      253.293      312.252        0.073        0.044       12.108        9.142        0.570      340.806       15.080      864.086
09/12/2014  07:50:00       24.092      -15.742        0.551       26.287       16.636       17.111      691.029      276.752      292.795        0.104        0.063       28.779        7.983        0.077      340.261       14.160      864.104
09/12/2014  07:51:00       35.813      -15.813        7.012       35.648       25.253       23.909     1270.780      637.725      571.640        0.203        0.124       39.149       21.577        0.304      340.378       14.358      864.123
09/12/2014  07:52:00       26.260       -6.248       18.336       32.208       26.842       25.163     1037.355      720.468      633.161        0.173        0.120       26.993       20.266        0.564      340.395       14.386      864.129
09/12/2014  07:53:00      -12.853      -16.962       24.093       20.273       16.942       12.840      411.007      287.043      164.868        0.095        0.043       21.282       10.743        0.255      340.773       15.026      864.132
09/12/2014  07:54:00       -7.622      -25.307       14.448       20.861       27.988       25.617      435.175      783.340      656.221        0.139        0.094       26.430       17.580        0.442      340.691       14.886      864.134
09/12/2014  07:55:00       46.017      -24.595       -2.427       26.045       25.133       24.807      678.325      631.686      615.368        0.233        0.096       52.178       10.957        0.044      340.349       14.308      864.141
09/12/2014  07:56:00       22.612      -34.349        0.493       23.690       26.120       15.297      561.210      682.264      233.989        0.158        0.074       41.124        7.797        0.036      340.432       14.448      864.146
09/12/2014  07:57:00       17.575      -13.620        7.435       16.983       16.249       17.223      288.430      264.036      296.641        0.070        0.042       22.235       12.533        0.318      340.708       14.916      864.147
09/12/2014  07:58:00      -16.243       -2.932        5.963       24.792       10.765       15.143      614.635      115.895      229.326        0.063        0.048       16.506       15.706        0.905      340.937       15.303      864.148
09/12/2014  07:59:00       -9.139      -28.811        2.071       22.365       31.518       18.935      500.174      993.398      358.541        0.138        0.093       30.226       15.397        0.259      340.661       14.836      864.157
09/12/2014  08:00:00        7.665       -7.744       10.610       26.074       25.149       27.940      679.877      632.492      780.625        0.116        0.105       10.896       10.991        1.018      340.811       15.090      864.159
09/12/2014  08:01:00      -27.232      -23.994       22.164       18.094       23.209       16.388      327.387      538.669      268.569        0.147        0.057       36.294       11.726        0.104      340.698       14.899      864.156
09/12/2014  08:02:00       13.664       -9.430       -5.332       32.287       29.196       21.726     1042.462      852.402      472.007        0.134        0.118       16.602       14.921        0.808      340.518       14.594      864.148
09/12/2014  08:03:00       -3.878       18.289       26.084       23.402       25.818       16.827      547.646      666.549      283.133        0.126        0.075       18.696        7.820        0.175      340.808       15.085      864.141
09/12/2014  08:04:00       17.169      -25.806       -8.711       28.085       29.066       23.598      788.748      844.806      556.843        0.161        0.110       30.995       19.194        0.383      340.533       14.620      864.140
09/12/2014  08:05:00       33.681      -25.585        6.462       24.090       22.771       23.037      580.313      518.510      530.715        0.173        0.081       42.297       13.318        0.099      340.593       14.721      864.140
09/12/2014  08:06:00       22.373      -14.304       -0.587       21.668       12.838       13.490      469.501      164.819      181.987        0.076        0.041       26.554        3.415        0.017      340.805       15.081      864.142
09/12/2014  08:07:00       28.395       -8.145        3.732       19.433       15.399       23.848      377.651      237.118      568.738        0.103        0.059       29.540       10.626        0.129      340.843       15.143      864.140
09/12/2014  08:08:00       17.740       13.349        8.237       16.366       14.443       16.431      267.837      208.587      269.962        0.065        0.037       22.201        5.595        0.064      340.857       15.168      864.150
09/12/2014  08:09:00      -12.087       -4.088       -6.069       15.619       16.186       12.913      243.966      261.996      166.755        0.044        0.034       12.759       10.846        0.723      340.826       15.114      864.154
09/12/2014  08:10:00        2.085        5.411       13.539       17.931       25.893       17.749      321.511      670.449      315.026        0.076        0.065        5.799       16.193        7.797      340.907       15.251      864.154
09/12/2014  08:11:00      -30.110      -23.198       -2.060       17.267       19.107       18.371      298.144      365.073      337.511        0.122        0.050       38.010        9.671        0.065      340.785       15.044      864.146
09/12/2014  08:12:00       27.877      -45.840       11.050       36.419       37.606       24.735     1326.313     1414.220      611.841        0.318        0.168       53.652       21.009        0.153      341.063       15.515      864.137
09/12/2014  08:13:00       34.686      -10.869       19.644       37.391       21.229       19.820     1398.056      450.671      392.819        0.197        0.112       36.349       18.431        0.257      341.034       15.467      864.132
09/12/2014  08:14:00       17.769        6.465        4.562       10.458       14.971       18.592      109.372      224.124      345.648        0.053        0.034       18.909        7.426        0.154      341.097       15.573      864.127
09/12/2014  08:15:00       21.121       14.923        2.600       12.913       12.318       17.244      166.734      151.729      297.355        0.065        0.031       25.861       11.531        0.199      341.150       15.663      864.118
09/12/2014  08:16:00       -2.226        8.926        6.575       18.206       24.716       21.083      331.448      610.893      444.504        0.076        0.069        9.199       13.139        2.040      341.102       15.582      864.124
09/12/2014  08:17:00       15.791       13.262        9.905       25.081       22.888       22.223      629.062      523.879      493.877        0.108        0.082       20.622       21.433        1.080      341.386       16.062      864.120
09/12/2014  08:18:00       18.802       16.002        6.492       16.882       17.687       19.689      285.017      312.822      387.669        0.082        0.049       24.690        8.807        0.127      341.183       15.719      864.120
09/12/2014  08:19:00       18.638       10.841       24.296       22.129       16.662       17.131      489.684      277.625      293.468        0.106        0.053       21.561       13.308        0.381      341.324       15.957      864.111
09/12/2014  08:20:00       15.481       20.634       13.441       12.612       11.727       19.764      159.069      137.515      390.621        0.077        0.034       25.796        8.378        0.105      341.218       15.779      864.106
09/12/2014  08:21:00       -6.086        0.366        9.166       23.397       12.558       16.193      547.423      157.692      262.215        0.054        0.048        6.097       13.361        4.802      341.403       16.092      864.099
09/12/2014  08:22:00       16.120      -16.276       -3.134       24.284       23.685       21.002      589.724      560.956      441.068        0.106        0.080       22.908       12.104        0.279      341.222       15.786      864.105
09/12/2014  08:23:00       11.144        3.056        3.181       20.136       19.034       20.018      405.458      362.297      400.706        0.066        0.058       11.555       14.396        1.552      341.476       16.215      864.098
09/12/2014  08:24:00       19.408       13.281       11.517       22.103       22.530       19.365      488.557      507.595      374.993        0.103        0.069       23.517        6.687        0.081      341.402       16.090      864.100
09/12/2014  08:25:00       28.060       28.837        3.113       15.208       19.022       14.265      231.280      361.851      203.494        0.121        0.040       40.236        7.061        0.031      341.182       15.717      864.107
09/12/2014  08:26:00       21.547       22.299        5.363       16.765       16.192       16.338      281.063      262.182      266.919        0.090        0.041       31.009       10.661        0.118      341.271       15.868      864.107
09/12/2014  08:27:00       18.415        1.175       -3.029       15.223        9.616       11.465      231.753       92.475      131.449        0.040        0.023       18.452        6.653        0.130      341.424       16.130      864.099
09/12/2014  08:28:00       13.602       -6.980        2.971       14.275       14.670       19.051      203.769      215.215      362.943        0.051        0.039       15.288        7.929        0.269      341.619       16.459      864.098
09/12/2014  08:29:00       -8.214       -1.618       10.950       11.880       18.293       14.186      141.136      334.618      201.254        0.043        0.034        8.372        8.913        1.133      341.702       16.598      864.098
09/12/2014  08:30:00      -22.960      -56.016       -0.194       22.432       22.590       17.406      503.184      510.293      302.961        0.249        0.066       60.539       14.310        0.056      341.484       16.230      864.095
09/12/2014  08:31:00       -3.757      -46.571        8.928       26.048       21.699       19.621      678.497      470.855      384.985        0.190        0.077       46.722       16.196        0.120      341.591       16.409      864.089
09/12/2014  08:32:00      -41.230      -46.375       -5.422        9.629       16.679        6.915       92.723      278.202       47.822        0.215        0.021       62.053        4.350        0.005      341.393       16.074      864.082
09/12/2014  08:33:00       -4.556        0.229       15.628       15.066        9.061       20.075      226.971       82.104      402.993        0.049        0.036        4.562       15.521       11.578      342.180       17.410      864.075
09/12/2014  08:34:00       26.875       23.503       20.342       18.364       11.561       15.077      337.232      133.647      227.328        0.119        0.035       35.703       10.345        0.084      341.801       16.767      864.075
09/12/2014  08:35:00       19.066        5.917       15.278       20.945       13.272       16.233      438.686      176.155      263.507        0.075        0.044       19.963       14.724        0.544      341.748       16.676      864.078
09/12/2014  08:36:00       33.491       10.182       -1.628       14.196       13.336       19.756      201.522      177.858      390.313        0.100        0.038       35.005        5.459        0.024      341.466       16.198      864.079
09/12/2014  08:37:00       13.866       -8.317        6.551       21.613       28.919       21.957      467.119      836.316      482.100        0.104        0.089       16.169       19.343        1.431      341.893       16.923      864.087
09/12/2014  08:38:00       -3.721       -2.471        3.788       12.898       17.014       18.298      166.363      289.465      334.814        0.041        0.040        4.467       14.469       10.491      341.924       16.974      864.091
09/12/2014  08:39:00        4.853       -2.882       27.283       11.652        6.690        7.249      135.773       44.762       52.554        0.050        0.012        5.644        1.275        0.051      342.520       17.988      864.091
09/12/2014  08:40:00        5.959       21.057       20.114       23.653       15.416       15.888      559.478      237.641      252.432        0.097        0.052       21.884        9.159        0.175      341.985       17.079      864.091
09/12/2014  08:41:00       20.965       -4.512       10.704       23.357       28.821       23.715      545.572      830.678      562.404        0.126        0.097       21.445       21.561        1.011      341.963       17.042      864.086
09/12/2014  08:42:00        9.665       11.240       -0.192       28.579       19.003       22.788      816.786      361.121      519.295        0.096        0.085       14.824       14.312        0.932      341.965       17.045      864.083
09/12/2014  08:43:00       14.640        8.889       -6.118       10.597       10.108       15.770      112.305      102.176      248.690        0.040        0.023       17.127        6.146        0.129      341.997       17.099      864.083
09/12/2014  08:44:00       30.977       -4.149        3.168       19.649       17.399       17.901      386.070      302.709      320.445        0.100        0.050       31.254       12.203        0.152      341.705       16.603      864.080
09/12/2014  08:45:00        5.723        0.868        9.650       20.514       27.860       18.579      420.841      776.153      345.171        0.083        0.077        5.788       13.901        5.768      341.949       17.016      864.076
09/12/2014  08:46:00       -7.098      -12.268       -4.215       29.660       25.043       15.066      879.722      627.146      226.998        0.098        0.087       14.174       16.282        1.320      342.053       17.194      864.080
09/12/2014  08:47:00      -26.278      -33.541        7.678       26.674       27.648       20.113      711.496      764.393      404.539        0.188        0.094       42.609       14.342        0.113      341.920       16.967      864.086
09/12/2014  08:48:00       34.758      -24.744        2.896       26.310       24.426       20.463      692.202      596.628      418.740        0.177        0.085       42.666       11.138        0.068      341.818       16.796      864.077
09/12/2014  08:49:00       19.932       -2.556       15.626       29.625       20.955       23.752      877.636      439.093      564.167        0.126        0.094       20.095       20.874        1.079      342.224       17.486      864.074
09/12/2014  08:50:00       14.392       21.313       32.887       26.130       18.692       19.432      682.759      349.384      377.621        0.158        0.070       25.717       12.644        0.242      342.395       17.776      864.069
09/12/2014  08:51:00       -7.342       11.343       38.503       17.582       23.343       15.669      309.112      544.913      245.513        0.138        0.055       13.512       11.209        0.688      342.746       18.373      864.071
09/12/2014  08:52:00       -4.015       -1.911       21.154       23.031       21.467       17.942      530.441      460.826      321.901        0.089        0.066        4.446       11.040        6.166      342.584       18.096      864.062
09/12/2014  08:53:00        8.836      -20.455       26.347       15.002       22.889       16.921      225.073      523.900      286.312        0.111        0.052       22.282       17.063        0.586      342.801       18.466      864.056
09/12/2014  08:54:00      -11.436      -31.214        8.679       28.763       25.700       17.299      827.321      660.483      299.262        0.148        0.089       33.243       20.646        0.386      342.427       17.830      864.053
09/12/2014  08:55:00      -17.462      -51.220        4.205       19.091       20.670       17.738      364.474      427.262      314.647        0.203        0.055       54.114       16.583        0.094      342.232       17.499      864.045
09/12/2014  08:56:00      -30.567      -39.284       -2.569       15.299       18.373       13.395      234.070      337.565      179.425        0.162        0.038       49.775       10.041        0.041      342.249       17.527      864.032
09/12/2014  08:57:00      -24.238      -32.635        3.908       21.268       28.271       12.811      452.343      799.267      164.111        0.154        0.071       40.651       14.545        0.128      342.367       17.729      864.029
09/12/2014  08:58:00      -18.129      -21.094        9.932       16.740       12.653       12.992      280.233      160.104      168.784        0.074        0.030       27.814       12.727        0.209      342.527       18.001      864.022
09/12/2014  08:59:00      -54.238      -32.612      -11.706       10.104       10.290        7.093      102.097      105.882       50.308        0.220        0.013       63.287        4.500        0.005      342.299       17.610      864.019
09/12/2014  09:00:00      -35.324      -21.400       -7.422        9.181        6.911        6.529       84.298       47.757       42.623        0.097        0.009       41.301        6.192        0.022      342.354       17.705      864.018
09/12/2014  09:01:00      -34.903      -10.846       -3.129       10.113        9.449        6.532      102.272       89.280       42.671        0.079        0.012       36.549        2.191        0.004      342.371       17.733      864.018
09/12/2014  09:02:00      -22.223      -25.316      -10.250        9.384       14.756        7.943       88.064      217.744       63.090        0.080        0.018       33.686        7.841        0.054      342.354       17.704      864.014
09/12/2014  09:03:00      -22.548      -12.505       -9.043        5.963        7.141        4.049       35.559       50.999       16.398        0.042        0.005       25.783        3.438        0.018      342.494       17.941      864.014
09/12/2014  09:04:00      -17.063       -7.914       -9.262       15.493       12.327        7.638      240.042      151.957       58.346        0.044        0.023       18.809        4.544        0.058      342.566       18.066      864.015
09/12/2014  09:05:00      -10.253      -19.351        3.200       13.800       27.933       15.049      190.427      780.241      226.482        0.084        0.060       21.900       12.619        0.332      342.743       18.368      864.016
09/12/2014  09:06:00       -7.326      -19.402       14.460       19.525       29.846       19.850      381.237      890.764      394.020        0.115        0.083       20.739       22.927        1.222      342.768       18.410      864.012
09/12/2014  09:07:00       21.188       14.635       31.720       23.932       15.530       15.121      572.755      241.189      228.640        0.136        0.052       25.751       10.774        0.175      342.878       18.595      864.005
09/12/2014  09:08:00       -3.827       -6.231       19.646       23.818       26.696       23.297      567.308      712.695      542.729        0.113        0.091        7.312       19.381        7.025      342.970       18.753      863.990
09/12/2014  09:09:00       -5.392       25.716       56.514       17.997       34.112       22.714      323.888     1163.616      515.932        0.294        0.100       26.275       20.047        0.582      343.331       19.367      863.998
09/12/2014  09:10:00      -12.106       10.992       19.396       16.184       26.458       23.652      261.914      700.008      559.405        0.108        0.076       16.352        9.417        0.332      342.937       18.696      863.996
09/12/2014  09:11:00       -5.354        0.227       30.804       13.969       20.697       15.779      195.144      428.351      248.966        0.092        0.044        5.359       12.434        5.383      343.452       19.574      864.005
09/12/2014  09:12:00       -9.699       -8.047        8.032       16.677       22.107       18.924      278.127      488.706      358.121        0.067        0.056       12.603       14.410        1.307      343.207       19.157      864.008
09/12/2014  09:13:00       -6.846        9.022       15.578       34.494       29.195       28.721     1189.869      852.375      824.898        0.162        0.143       11.326       20.596        3.307      343.045       18.881      864.012
09/12/2014  09:14:00      -26.709      -18.067       -1.738       12.937       18.358        8.690      167.372      337.005       75.516        0.081        0.029       32.245        7.397        0.053      342.772       18.415      864.011
09/12/2014  09:15:00      -31.586      -18.887       -0.533       15.124       12.430        9.373      228.729      154.516       87.856        0.091        0.024       36.802        6.692        0.033      342.829       18.512      864.010
09/12/2014  09:16:00      -25.380      -21.347        3.492       24.151       17.475       16.698      583.249      305.392      278.809        0.114        0.058       33.164        6.005        0.033      342.970       18.753      864.014
09/12/2014  09:17:00        9.912       -5.617       12.784       15.223       18.359       13.851      231.739      337.045      191.859        0.053        0.038       11.393        8.982        0.622      343.120       19.008      864.021
09/12/2014  09:18:00      -20.808      -18.350       14.930       25.538       23.506       17.329      652.182      552.516      300.303        0.125        0.075       27.743        9.288        0.112      343.102       18.977      864.020
09/12/2014  09:19:00      -50.733      -40.290        3.073       36.231       17.298       12.062     1312.678      299.214      145.481        0.298        0.088       64.785        8.815        0.019      342.942       18.704      864.015
09/12/2014  09:20:00      -58.355      -22.368       -6.454       23.011       20.118       15.352      529.515      404.718      235.674        0.256        0.058       62.495        8.509        0.019      342.915       18.659      864.006
09/12/2014  09:21:00      -27.885       -1.226       18.545       18.441       21.333       22.328      340.078      455.094      498.518        0.121        0.065       27.912       16.307        0.341      343.400       19.486      864.004
09/12/2014  09:22:00       -0.938        5.875       24.904       20.642       22.547       19.993      426.084      508.369      399.705        0.099        0.067        5.950       12.473        4.395      343.536       19.718      864.005
09/12/2014  09:23:00       -3.272      -23.996        1.057       17.418       18.561       19.850      303.404      344.516      394.030        0.081        0.052       24.218       15.827        0.427      343.295       19.307      864.002
09/12/2014  09:24:00      -13.242      -18.841        6.560       14.533       13.788       17.185      211.220      190.100      295.310        0.063        0.035       23.029       13.192        0.328      343.432       19.541      863.997
09/12/2014  09:25:00       14.080        0.444       23.320       20.835       20.844       22.879      434.095      434.458      523.431        0.107        0.070       14.087       15.736        1.248      343.382       19.455      863.995
09/12/2014  09:26:00      -10.270      -21.790        0.633       35.554       24.891       21.360     1264.120      619.542      456.241        0.146        0.117       24.089       17.795        0.546      343.205       19.154      863.999
09/12/2014  09:27:00       -0.271       -4.868       29.955       13.820       23.974       13.416      190.988      574.748      179.979        0.093        0.047        4.875       11.458        5.524      343.919       20.371      863.997
09/12/2014  09:28:00      -11.830      -36.814        7.593       20.582       23.941       13.890      423.608      573.177      192.942        0.137        0.059       38.669       10.655        0.076      343.262       19.250      863.993
09/12/2014  09:29:00      -51.256       -8.497        6.238       17.721       15.703       16.295      314.037      246.600      265.517        0.178        0.041       51.956       12.871        0.061      343.137       19.037      863.998
09/12/2014  09:30:00       -9.249       -8.919        2.711       20.403        8.958        9.525      416.263       80.237       90.721        0.038        0.029       12.849        5.924        0.213      343.502       19.660      863.999
09/12/2014  09:31:00       -5.031       -0.786       28.996       20.304       17.449       15.139      412.271      304.477      229.190        0.091        0.047        5.092       11.176        4.818      344.104       20.687      863.996
09/12/2014  09:32:00      -31.385        1.737       20.068       26.112       12.307       14.514      681.830      151.451      210.663        0.122        0.052       31.433       16.284        0.268      343.762       20.104      863.997
09/12/2014  09:33:00      -12.973        7.909       33.547       26.235       11.464       10.887      688.280      131.425      118.526        0.115        0.047       15.194        8.117        0.285      343.907       20.349      864.000
09/12/2014  09:34:00      -11.118       -6.129        8.005       25.661       12.659       15.697      658.492      160.261      246.386        0.065        0.053       12.695       10.311        0.660      343.737       20.060      863.995
09/12/2014  09:35:00      -37.896       -8.482       -0.898       27.604       24.155       22.286      761.981      583.464      496.673        0.168        0.092       38.834       16.923        0.190      343.483       19.628      863.984
09/12/2014  09:36:00      -53.773      -41.516       -2.593       21.347       18.893       13.452      455.687      356.953      180.947        0.281        0.050       67.934        6.923        0.010      343.355       19.407      863.972
09/12/2014  09:37:00      -27.316      -68.099        2.383       24.043       20.523       11.943      578.061      421.175      142.642        0.327        0.057       73.373        6.967        0.009      343.312       19.335      863.969
09/12/2014  09:38:00        0.536      -37.752       10.904       20.156       31.349       22.561      406.269      982.764      508.997        0.172        0.095       37.755       19.961        0.280      343.617       19.856      863.969
09/12/2014  09:39:00      -43.945      -81.234       -0.519       33.570       30.623       19.301     1126.972      937.761      372.524        0.548        0.122       92.359       15.443        0.028      343.301       19.315      863.959
09/12/2014  09:40:00      -51.779      -87.600       -0.506       40.659       38.222       23.821     1653.183     1460.949      567.417        0.702        0.184      101.759       25.639        0.063      343.331       19.366      863.956
09/12/2014  09:41:00      -34.146      -62.781        0.172       29.097       24.081       20.772      846.655      579.873      431.484        0.348        0.093       71.466       17.756        0.062      343.313       19.337      863.964
09/12/2014  09:42:00      -32.369      -57.948        5.769       25.276       27.354       17.911      638.862      748.243      320.802        0.307        0.085       66.375       15.448        0.054      343.388       19.463      863.969
09/12/2014  09:43:00       -2.864      -22.189        9.563       24.813       14.512       15.170      615.683      210.603      230.114        0.082        0.053       22.373       11.482        0.263      343.749       20.079      863.967
09/12/2014  09:44:00      -23.888      -31.225        5.807       15.787       38.882       20.139      249.243     1511.781      405.583        0.187        0.108       39.315       23.862        0.368      343.742       20.068      863.975
09/12/2014  09:45:00      -34.572       -9.101        0.819       16.513       21.303       12.725      272.665      453.830      161.920        0.108        0.044       35.750       13.116        0.135      343.587       19.805      863.973
09/12/2014  09:46:00      -33.912        1.388        9.594       32.127       26.999       20.274     1032.167      728.971      411.015        0.171        0.109       33.941       18.674        0.303      344.001       20.510      863.969
09/12/2014  09:47:00      -48.014      -33.637        5.974       37.351       39.717       21.650     1395.134     1577.409      468.744        0.346        0.172       58.624       19.078        0.106      343.867       20.281      863.968
09/12/2014  09:48:00      -71.406      -54.796        1.448       35.708       26.365       19.631     1275.032      695.100      385.375        0.523        0.118       90.008       20.807        0.053      343.604       19.833      863.967
09/12/2014  09:49:00      -86.188      -38.858        1.908       27.955       26.122       13.199      781.459      682.338      174.219        0.529        0.082       94.543        8.978        0.009      343.549       19.739      863.964
09/12/2014  09:50:00      -22.982       -3.301        9.925       16.650       24.023       15.604      277.224      577.081      243.473        0.087        0.055       23.218       11.553        0.248      344.101       20.683      863.967
09/12/2014  09:51:00      -24.274       11.732       17.780       21.365       11.848       17.290      456.469      140.374      298.959        0.097        0.045       26.961       11.655        0.187      344.211       20.870      863.963
09/12/2014  09:52:00      -22.496       18.411       18.508       27.427       18.431       25.688      752.231      339.705      659.872        0.147        0.088       29.069       15.110        0.270      344.321       21.057      863.961
09/12/2014  09:53:00      -30.689       20.556        7.652       22.327       21.660       20.588      498.487      469.147      423.850        0.141        0.070       36.937       15.591        0.178      344.254       20.944      863.955
09/12/2014  09:54:00      -27.319       12.540        5.020       33.765       19.341       27.463     1140.108      374.063      754.207        0.160        0.113       30.060       24.923        0.687      344.333       21.078      863.959
09/12/2014  09:55:00      -49.272       20.366       15.403       32.714       19.962       21.178     1070.177      398.494      448.505        0.250        0.096       53.315       23.045        0.187      344.076       20.638      863.960
09/12/2014  09:56:00      -51.764      -23.116        1.060       26.333       26.992       18.229      693.436      728.545      332.290        0.248        0.088       56.691       15.687        0.077      343.940       20.407      863.960
09/12/2014  09:57:00       -3.138      -13.170       24.336       18.600       21.911       17.067      345.948      480.102      291.275        0.095        0.056       13.538       12.881        0.905      344.681       21.673      863.963
09/12/2014  09:58:00        3.652       -3.399       21.172       20.109       16.217       21.172      404.373      262.981      448.239        0.079        0.056        4.989       18.233       13.359      344.777       21.838      863.965
09/12/2014  09:59:00      -10.426        2.219       23.896       14.690       17.273       20.545      215.793      298.342      422.095        0.081        0.047       10.660       14.999        1.980      344.658       21.633      863.966
09/12/2014  10:00:00       -3.210        4.866       36.092       20.695       13.674       12.861      428.302      186.977      165.397        0.106        0.039        5.829       11.555        3.929      344.971       22.170      863.967
09/12/2014  10:01:00       24.079       -3.672       32.032       18.953       27.531       28.173      359.232      757.929      793.710        0.176        0.096       24.357       15.141        0.386      344.327       21.069      863.973
09/12/2014  10:02:00       15.080       17.326       27.919       23.217       41.831       29.286      539.007     1749.869      857.663        0.223        0.157       22.969       26.744        1.356      344.110       20.696      863.972
09/12/2014  10:03:00       44.029       43.044       42.477       43.545       25.678       27.554     1896.202      659.346      759.236        0.445        0.166       61.574       26.222        0.181      344.432       21.247      863.976
09/12/2014  10:04:00       61.436       59.215       29.183       44.786       34.839       44.529     2005.786     1213.734     1982.802        0.667        0.260       85.327       16.174        0.036      344.098       20.676      863.976
09/12/2014  10:05:00       37.906      -18.747       28.586       39.381       53.403       37.228     1550.876     2851.849     1385.894        0.420        0.289       42.289       30.169        0.509      344.254       20.942      863.974
09/12/2014  10:06:00       11.460       11.017       44.852       36.955       41.208       32.117     1365.671     1698.061     1031.523        0.318        0.205       15.897       19.786        1.549      344.734       21.765      863.975
09/12/2014  10:07:00       18.161      -18.411       31.447       43.330       61.097       35.983     1877.446     3732.861     1294.776        0.428        0.345       25.861       44.644        2.980      345.018       22.251      863.985
09/12/2014  10:08:00        7.245       -3.014       30.449       38.096       35.891       25.449     1451.329     1288.173      647.646        0.219        0.169        7.847       26.137       11.095      344.924       22.088      863.993
09/12/2014  10:09:00       -7.996      -92.581       15.766       34.254       73.486       44.313     1173.339     5400.159     1963.658        0.871        0.427       92.926       45.893        0.244      344.440       21.260      863.983
09/12/2014  10:10:00       10.016      -62.745        2.449       45.190       46.975       46.574     2042.153     2206.696     2169.129        0.523        0.321       63.539       26.029        0.168      344.525       21.406      863.977
09/12/2014  10:11:00       15.266     -118.430      -23.776       53.935       65.598       38.527     2908.937     4303.154     1484.316        1.176        0.435      119.410       26.395        0.049      344.417       21.219      863.978
09/12/2014  10:12:00       -8.498      -66.740       10.852       30.022       77.349       35.865      901.325     5982.881     1286.277        0.641        0.409       67.278       39.210        0.340      344.650       21.621      863.974
09/12/2014  10:13:00        0.289      -59.649       20.625       28.381       42.193       31.885      805.497     1780.239     1016.645        0.379        0.180       59.650       22.838        0.147      344.648       21.618      863.973
09/12/2014  10:14:00        8.176       10.458       15.841       29.138       40.351       30.114      849.027     1628.228      906.866        0.191        0.169       13.275       18.123        1.864      344.626       21.579      863.981
09/12/2014  10:15:00       20.682      -36.395       32.928       44.620       62.018       43.103     1990.921     3846.219     1857.862        0.526        0.385       41.861       31.070        0.551      344.722       21.743      863.968
09/12/2014  10:16:00       17.534       30.236       43.988       33.918       34.286       38.094     1150.408     1175.554     1451.184        0.347        0.189       34.953       25.479        0.531      344.721       21.742      863.967
09/12/2014  10:17:00       34.568       -6.834       23.912       26.865       42.267       28.411      721.754     1786.538      807.205        0.256        0.166       35.237       17.996        0.261      344.768       21.822      863.956
09/12/2014  10:18:00        9.261      -18.909       36.357       25.473       55.278       29.531      648.863     3055.689      872.099        0.317        0.229       21.055       31.598        2.252      345.036       22.280      863.954
09/12/2014  10:19:00        6.200       -7.395       30.124       39.415       47.021       28.497     1553.544     2210.984      812.099        0.279        0.229        9.650       19.273        3.989      344.905       22.057      863.938
09/12/2014  10:20:00       36.641      -61.959       24.002       42.586       65.237       47.210     1813.581     4255.826     2228.756        0.703        0.415       71.983       38.261        0.283      344.593       21.523      863.938
09/12/2014  10:21:00       39.108      -63.452        0.155       31.621       38.644       23.834      999.916     1493.376      568.063        0.431        0.153       74.536       18.790        0.064      343.981       20.475      863.943
09/12/2014  10:22:00       34.368       27.566       42.336       33.773       38.869       22.111     1140.622     1510.819      488.881        0.344        0.157       44.057       10.187        0.053      344.568       21.479      863.943
09/12/2014  10:23:00       37.614      -20.897       11.976       44.260       42.646       37.265     1958.921     1818.669     1388.683        0.358        0.258       43.029       35.991        0.700      344.758       21.804      863.936
09/12/2014  10:24:00       46.145       -1.214       32.693       46.691       33.921       38.015     2180.062     1150.619     1445.106        0.399        0.239       46.161       28.847        0.391      344.516       21.389      863.941
09/12/2014  10:25:00       49.302       18.328       27.762       45.968       31.339       28.277     2113.090      982.122      799.563        0.372        0.195       52.599       27.387        0.271      344.408       21.206      863.935
09/12/2014  10:26:00       57.340      -54.883        4.939       68.848       91.214       33.863     4740.003     8319.906     1146.704        1.026        0.710       79.373       43.006        0.294      344.639       21.600      863.933
09/12/2014  10:27:00       49.440       -0.237       31.906       64.637       78.387       40.844     4177.878     6144.557     1668.194        0.772        0.600       49.441       42.743        0.747      344.929       22.097      863.929
09/12/2014  10:28:00       22.342       13.571       31.316       32.429       30.731       33.559     1051.633      944.395     1126.220        0.239        0.156       26.141       21.956        0.705      345.326       22.776      863.934
09/12/2014  10:29:00       72.108        9.319       32.218       57.193       63.608       47.095     3271.066     4046.003     2217.895        0.793        0.477       72.707       42.386        0.340      344.457       21.290      863.921
09/12/2014  10:30:00       19.279      -28.129       24.973       44.018       48.384       42.608     1937.591     2341.056     1815.449        0.394        0.305       34.101       29.573        0.752      345.076       22.349      863.923
09/12/2014  10:31:00       22.794      -39.746       22.498       54.121       52.689       48.436     2929.083     2776.112     2346.049        0.533        0.403       45.818       35.082        0.586      345.026       22.264      863.916
09/12/2014  10:32:00       22.578      -46.438       12.348       50.424       69.794       44.037     2542.611     4871.221     1939.226        0.608        0.468       51.636       40.750        0.623      345.070       22.338      863.916
09/12/2014  10:33:00        5.433      -20.814       33.262       32.193       55.194       39.168     1036.411     3046.418     1534.155        0.359        0.281       21.511       31.683        2.169      345.027       22.265      863.909
09/12/2014  10:34:00       -0.776      -74.797        6.036       42.039       54.031       37.214     1767.242     2919.334     1384.864        0.585        0.304       74.801       27.767        0.138      344.925       22.091      863.898
09/12/2014  10:35:00       25.171      -32.552       22.837       49.256       67.781       46.805     2426.148     4594.218     2190.751        0.571        0.461       41.148       43.819        1.134      345.314       22.757      863.896
09/12/2014  10:36:00       24.878       13.513       44.741       38.089       45.694       34.563     1450.809     2087.900     1194.626        0.377        0.237       28.311       31.104        1.207      345.163       22.498      863.879
09/12/2014  10:37:00       26.329       14.694       32.141       28.409       30.279       22.690      807.088      916.834      514.832        0.209        0.112       30.151       22.732        0.568      344.906       22.058      863.875
09/12/2014  10:38:00       58.861       43.665       33.962       35.854       36.710       28.785     1285.541     1347.591      828.565        0.499        0.173       73.289        9.704        0.018      344.707       21.717      863.853
09/12/2014  10:39:00       85.514       54.347       42.063       51.507       39.387       46.016     2652.921     1551.315     2117.447        0.918        0.316      101.322       39.194        0.150      344.970       22.167      863.837
09/12/2014  10:40:00       58.949       19.823       49.171       43.898       32.674       45.473     1927.027     1067.568     2067.806        0.567        0.253       62.193       21.496        0.119      345.189       22.543      863.820
09/12/2014  10:41:00       95.313       69.532       31.152       47.817       69.504       54.687     2286.505     4830.871     2990.660        1.250        0.505      117.980       32.776        0.077      345.207       22.571      863.800
09/12/2014  10:42:00       13.949       55.782       77.074       53.451       50.525       36.879     2856.990     2552.770     1360.043        0.801        0.338       57.499       10.049        0.031      345.854       23.682      863.779
09/12/2014  10:43:00       46.795       63.248       60.595       53.073       61.441       53.168     2816.791     3775.026     2826.888        0.964        0.471       78.677       42.426        0.291      345.083       22.362      863.775
09/12/2014  10:44:00       58.345       17.057       42.208       64.926       79.452       43.976     4215.433     6312.688     1933.863        0.897        0.623       60.787       29.786        0.240      345.448       22.987      863.750
09/12/2014  10:45:00       59.854       31.844       23.256       54.969       48.093       40.906     3021.605     2312.941     1673.323        0.607        0.350       67.798       28.808        0.181      345.320       22.768      863.743
09/12/2014  10:46:00        5.568       47.143       53.785       29.689       35.779       29.484      881.423     1280.150      869.308        0.409        0.152       47.470       18.994        0.160      345.544       23.150      863.726
09/12/2014  10:47:00       26.851       -9.264       39.227       47.881       67.367       46.333     2292.622     4538.329     2146.758        0.566        0.449       28.405       39.545        1.938      345.371       22.855      863.718
09/12/2014  10:48:00       10.662        0.192       25.611       26.682       33.184       31.429      711.929     1101.185      987.766        0.178        0.140       10.664       19.717        3.418      346.081       24.071      863.716
09/12/2014  10:49:00       34.316       23.986       42.164       30.278       38.075       29.269      916.755     1449.737      856.698        0.338        0.161       41.867       23.913        0.326      345.751       23.507      863.714
09/12/2014  10:50:00       53.004       33.710       46.055       43.656       64.693       42.931     1905.880     4185.183     1843.056        0.700        0.397       62.816       40.308        0.412      345.403       22.907      863.716
09/12/2014  10:51:00       58.923      -53.645       24.766       65.681      111.095       55.339     4313.990    12342.176     3062.445        1.334        0.986       79.685       69.074        0.751      345.375       22.859      863.712
09/12/2014  10:52:00       32.956      -16.596       34.737       40.442       62.502       46.440     1635.563     3906.527     2156.662        0.513        0.385       36.899       44.945        1.484      345.813       23.611      863.707
09/12/2014  10:53:00       42.309      -11.505       25.900       42.832       54.511       37.972     1834.598     2971.448     1441.903        0.442        0.312       43.845       34.040        0.603      345.562       23.183      863.693
09/12/2014  10:54:00        2.186       31.302       61.922       30.641       40.490       23.304      938.861     1639.463      543.077        0.397        0.156       31.378       14.253        0.206      345.988       23.912      863.684
09/12/2014  10:55:00       76.011       52.446       34.304       64.876       71.504       40.723     4208.833     5112.780     1658.389        1.034        0.549       92.348       23.868        0.067      345.555       23.169      863.679
09/12/2014  10:56:00       80.021       22.755       18.911       59.629       65.202       42.158     3555.627     4251.362     1777.289        0.843        0.479       83.194       28.748        0.119      345.668       23.363      863.657
09/12/2014  10:57:00       45.830        6.239       10.784       58.431       55.125       42.979     3414.227     3038.794     1847.197        0.528        0.415       46.253       25.334        0.300      345.772       23.542      863.658
09/12/2014  10:58:00       73.467      -41.410       11.787       65.790       97.122       52.270     4328.315     9432.733     2732.174        1.187        0.825       84.334       48.344        0.329      345.610       23.262      863.636
09/12/2014  10:59:00       87.735       28.525       39.865       61.605       68.821       48.564     3795.194     4736.351     2358.503        1.049        0.545       92.256       31.772        0.119      345.671       23.368      863.636
09/12/2014  11:00:00       97.089       54.573       16.074       59.337       36.300       37.943     3520.913     1317.698     1439.656        0.947        0.314      111.376       13.811        0.015      345.385       22.877      863.629
09/12/2014  11:01:00       83.477       67.472       29.126       54.216       32.081       43.377     2939.374     1029.218     1881.591        0.911        0.293      107.336       32.871        0.094      345.471       23.024      863.600
09/12/2014  11:02:00       66.496       36.825       44.382       62.842       46.023       35.768     3949.154     2118.124     1279.324        0.755        0.367       76.012       26.785        0.124      345.772       23.543      863.589
09/12/2014  11:03:00       -6.242      -11.066       11.149       23.379       33.389       27.040      546.601     1114.841      731.139        0.134        0.120       12.705       14.728        1.344      345.887       23.739      863.571
09/12/2014  11:04:00      104.809       46.402       50.122      105.248       58.144       60.521    11077.165     3380.748     3662.822        1.688        0.906      114.621       52.656        0.211      346.138       24.169      863.559
09/12/2014  11:05:00       76.911       96.713       64.579       66.916       55.936       59.223     4477.733     3128.876     3507.369        1.527        0.556      123.567       29.848        0.058      345.969       23.877      863.558
09/12/2014  11:06:00       80.799       46.933       23.873       91.998       57.323       49.279     8463.569     3285.943     2428.443        1.174        0.709       93.441       51.541        0.304      346.141       24.175      863.553
09/12/2014  11:07:00       97.453       52.474       15.832       51.331       41.660       37.576     2634.855     1735.562     1411.926        0.914        0.289      110.682       21.846        0.039      345.765       23.529      863.542
09/12/2014  11:08:00      121.127       92.922       27.088       64.313       54.400       60.610     4136.162     2959.382     3673.512        1.740        0.538      152.664       19.520        0.016      345.882       23.730      863.543
09/12/2014  11:09:00      213.452      127.731       44.816       63.848       61.576       54.205     4076.534     3791.573     2938.186        3.734        0.540      248.750       22.542        0.008      345.835       23.645      863.524
09/12/2014  11:10:00      142.841       97.607       10.433       67.598       66.434       51.501     4569.535     4413.425     2652.302        2.084        0.582      173.005       44.751        0.067      345.969       23.878      863.514
09/12/2014  11:11:00       23.420       42.685       55.284       97.634       71.767       60.079     9532.385     5150.479     3609.473        1.186        0.915       48.687       46.052        0.895      346.551       24.880      863.509
09/12/2014  11:12:00       50.742       59.478      100.719       75.150       67.360       60.712     5647.506     4537.364     3686.007        1.506        0.694       78.182       55.877        0.511      346.186       24.252      863.509
09/12/2014  11:13:00       44.814       23.190       73.519       35.254       40.450       31.296     1242.843     1636.206      979.434        0.590        0.193       50.458       24.364        0.233      346.155       24.198      863.504
09/12/2014  11:14:00       46.171       53.021       52.297       45.414       50.231       37.052     2062.473     2523.150     1372.857        0.682        0.298       70.307       33.421        0.226      346.306       24.458      863.482
09/12/2014  11:15:00       73.363       47.116       42.878       85.621       60.296       42.757     7330.888     3635.667     1828.182        1.112        0.640       87.189       38.328        0.193      346.583       24.934      863.476
09/12/2014  11:16:00      113.744       63.030      114.993       88.945       65.206       52.105     7911.222     4251.785     2714.912        2.250        0.744      130.040       43.493        0.112      346.242       24.348      863.458
09/12/2014  11:17:00      110.647       76.763       50.594       60.611       63.793       52.976     3673.727     4069.536     2806.435        1.562        0.527      134.668       35.712        0.070      346.091       24.088      863.442
09/12/2014  11:18:00       85.810       63.065       28.396       66.607       52.956       44.488     4436.549     2804.357     1979.146        1.068        0.461      106.492       12.200        0.013      346.236       24.338      863.427
09/12/2014  11:19:00       92.962       89.735        8.257       55.842       39.954       34.915     3118.377     1596.315     1219.092        1.135        0.297      129.206       29.086        0.051      345.908       23.774      863.407
09/12/2014  11:20:00       78.414       76.993       67.161       69.057       70.491       77.940     4768.818     4968.917     6074.613        1.620        0.791      109.894       56.235        0.262      346.422       24.657      863.396
09/12/2014  11:21:00      153.776      124.651       81.456       92.280       65.131       60.863     8515.564     4241.984     3704.359        3.114        0.823      197.951       51.333        0.067      346.073       24.057      863.379
09/12/2014  11:22:00      113.659       66.512       70.185       97.832      105.776       64.259     9571.194    11188.558     4129.245        2.357        1.244      131.690       55.180        0.176      346.477       24.752      863.364
09/12/2014  11:23:00      202.917      132.147       56.249       82.805       61.496       68.711     6856.700     3781.813     4721.203        3.858        0.768      242.154       51.164        0.045      345.912       23.779      863.366
09/12/2014  11:24:00       99.993       69.603       25.682       65.204       51.398       32.904     4251.509     2641.752     1082.665        1.174        0.399      121.833       18.091        0.022      345.860       23.692      863.353
09/12/2014  11:25:00       48.869       45.177        7.317       41.254       31.962       32.752     1701.888     1021.557     1072.711        0.414        0.190       66.552       14.864        0.050      346.229       24.327      863.339
09/12/2014  11:26:00       58.796       51.052       25.496       49.020       37.365       31.017     2402.960     1396.140      962.058        0.574        0.238       77.867        8.991        0.013      346.441       24.692      863.314
09/12/2014  11:27:00      123.625       92.774       27.094       57.814       45.554       47.267     3342.436     2075.134     2234.128        1.614        0.383      154.564       24.887        0.026      346.169       24.223      863.295
09/12/2014  11:28:00      111.898       50.328       46.608       97.466       61.472       52.789     9499.575     3778.823     2786.664        1.664        0.803      122.695       34.069        0.077      346.553       24.882      863.284
09/12/2014  11:29:00       62.909       67.113       99.473      101.593       76.320       55.871    10321.130     5824.792     3121.532        1.881        0.963       91.987       63.750        0.480      346.505       24.800      863.265
09/12/2014  11:30:00      180.015      109.203       26.785       78.426       65.651       42.341     6150.581     4310.041     1792.756        2.865        0.613      210.549       33.377        0.025      346.120       24.136      863.269
09/12/2014  11:31:00      175.543      127.407        4.514       59.254       70.759       49.720     3510.982     5006.820     2472.125        2.903        0.549      216.906       17.992        0.007      346.135       24.161      863.250
09/12/2014  11:32:00       37.183       38.210       32.418       65.619       66.069       31.580     4305.842     4365.151      997.277        0.678        0.483       53.316       25.977        0.237      346.800       25.307      863.231
09/12/2014  11:33:00       42.510       67.859       79.322       60.537       58.833       48.827     3664.776     3461.354     2384.099        1.111        0.476       80.075       40.938        0.261      346.924       25.522      863.222
09/12/2014  11:34:00       86.866       37.238        8.845       61.606       46.636       36.831     3795.242     2174.938     1356.519        0.817        0.366       94.511       21.085        0.050      346.764       25.247      863.210
09/12/2014  11:35:00      152.200      116.283       31.197       75.584       49.109       46.480     5712.964     2411.692     2160.428        2.397        0.514      191.537       20.320        0.011      346.391       24.602      863.195
09/12/2014  11:36:00      161.990      106.739       14.431       49.793       43.978       41.427     2479.312     1934.060     1716.170        2.198        0.306      193.995       17.131        0.008      346.295       24.438      863.178
09/12/2014  11:37:00       97.608       70.715       21.582       62.840       52.274       39.497     3948.857     2732.550     1559.993        1.162        0.412      120.532       24.714        0.042      346.767       25.251      863.151
09/12/2014  11:38:00      145.288      123.842       79.866       85.548       79.827       67.289     7318.544     6372.424     4527.754        3.052        0.911      190.907       56.863        0.089      346.723       25.174      863.147
09/12/2014  11:39:00      183.419      109.065       17.445       94.076       66.911       77.945     8850.242     4477.143     6075.436        3.262        0.970      213.396       49.250        0.053      346.178       24.233      863.132
09/12/2014  11:40:00      115.774      115.428       66.809       79.780       59.064       56.364     6364.779     3488.569     3176.855        2.211        0.652      163.485       50.565        0.096      346.429       24.669      863.141
09/12/2014  11:41:00       93.976       66.663       53.413       88.201       96.914       53.261     7779.438     9392.269     2836.758        1.807        1.000      115.219       46.734        0.165      346.702       25.138      863.137
09/12/2014  11:42:00      112.444       62.652       28.223       71.288       48.755       47.754     5081.937     2377.090     2280.487        1.355        0.487      128.720       38.693        0.090      346.391       24.605      863.124
09/12/2014  11:43:00       95.354       69.490       42.924       52.247       32.381       29.462     2729.767     1048.510      867.992        1.020        0.232      117.988       21.021        0.032      346.605       24.973      863.107
09/12/2014  11:44:00       84.810       81.003       86.298       95.986       85.363       49.694     9213.371     7286.795     2469.471        2.008        0.948      117.278       36.840        0.099      346.997       25.646      863.078
09/12/2014  11:45:00      162.975      139.140       26.401       68.133       47.141       55.157     4642.098     2222.251     3042.301        2.826        0.495      214.291       46.930        0.048      346.457       24.716      863.081
09/12/2014  11:46:00      114.331       71.229       25.290       47.486       34.838       45.407     2254.900     1213.713     2061.834        1.216        0.277      134.704       28.190        0.044      346.661       25.069      863.068
09/12/2014  11:47:00      144.641      107.490       33.316       54.754       49.368       39.835     2998.009     2437.162     1586.788        2.030        0.351      180.208       21.702        0.015      346.568       24.908      863.043
09/12/2014  11:48:00      119.212       89.291       19.255       28.927       27.131       30.478      836.772      736.104      928.882        1.253        0.125      148.945       20.037        0.018      346.414       24.644      863.017
09/12/2014  11:49:00       66.372       42.567       -3.092       41.884       28.374       21.422     1754.257      805.093      458.896        0.462        0.151       78.849       13.310        0.028      346.466       24.734      862.989
09/12/2014  11:50:00       69.304       11.874       12.269       48.787       34.088       32.156     2380.165     1161.972     1034.008        0.483        0.229       70.314        7.915        0.013      346.802       25.312      862.962
09/12/2014  11:51:00       71.038       70.503       15.860       76.548       60.228       43.919     5859.657     3627.361     1928.867        1.084        0.571      100.086       37.389        0.140      347.036       25.715      862.933
09/12/2014  11:52:00       34.445       -3.831       68.575       74.941       86.021       59.867     5616.111     7399.558     3584.048        1.125        0.830       34.657       58.335        2.833      347.457       26.440      862.914
09/12/2014  11:53:00      179.457     -185.802      -45.930       83.268      104.103       58.951     6933.529    10837.524     3475.264        4.504        1.062      258.316       67.007        0.067      346.705       25.142      862.899
09/12/2014  11:54:00       38.449      -31.344       46.744       60.150       65.221       44.155     3618.015     4253.747     1949.708        0.723        0.491       49.607       47.297        0.909      347.284       26.143      862.895
09/12/2014  11:55:00       49.083      -61.525       39.820       60.465      100.465       48.252     3656.019    10093.241     2328.227        1.193        0.804       78.705       49.211        0.391      347.417       26.370      862.864
09/12/2014  11:56:00       72.298      -20.735       21.432       54.538      105.996       75.167     2974.357    11235.047     5650.089        1.298        0.993       75.212       74.326        0.977      347.118       25.856      862.858
09/12/2014  11:57:00      108.595       56.733       70.684      102.405       82.417       63.594    10486.797     6792.508     4044.151        2.066        1.066      122.522       46.214        0.142      347.182       25.963      862.834
09/12/2014  11:58:00      137.102       71.618       55.185       92.009      119.261       63.991     8465.699    14223.242     4094.817        2.687        1.339      154.681       58.981        0.145      346.985       25.625      862.819
09/12/2014  11:59:00      102.773      139.189      134.799      136.501      103.117       72.609    18632.541    10633.179     5272.058        4.132        1.727      173.019       48.534        0.079      347.296       26.159      862.792
09/12/2014  12:00:00       46.507        9.091       42.648       71.828       76.188       43.730     5159.311     5804.638     1912.349        0.847        0.644       47.388       35.853        0.572      347.736       26.919      862.789
09/12/2014  12:01:00      199.655      104.197       69.539      141.707       91.184       91.123    20080.845     8314.569     8303.323        4.612        1.835      225.209       65.728        0.085      346.927       25.524      862.781
09/12/2014  12:02:00      123.571       72.428       43.620      104.967       87.281       63.902    11018.085     7618.009     4083.465        2.257        1.136      143.233       50.994        0.127      347.266       26.110      862.776
09/12/2014  12:03:00      139.313      153.644      140.964       91.319       89.733       69.300     8339.093     8051.945     4802.484        4.204        1.060      207.400       57.041        0.076      347.007       25.662      862.759
09/12/2014  12:04:00      146.822       70.848       80.596       86.536       97.347       67.046     7488.426     9476.504     4495.125        2.726        1.073      163.022       67.720        0.173      346.959       25.579      862.769
09/12/2014  12:05:00       71.799      -21.790       14.201       64.414       74.962       37.455     4149.182     5619.376     1402.904        0.850        0.559       75.032       29.144        0.151      347.143       25.898      862.747
09/12/2014  12:06:00       67.531       73.271       58.469       90.343       48.658       34.110     8161.844     2367.597     1163.487        1.252        0.585       99.645       16.992        0.029      347.462       26.447      862.715
09/12/2014  12:07:00      180.503       88.505       48.607      104.444       59.779       76.436    10908.626     3573.584     5842.400        3.155        1.016      201.034       65.100        0.105      347.149       25.907      862.707
09/12/2014  12:08:00       83.113       98.422      124.814      110.290       75.369       66.069    12163.834     5680.472     4365.163        2.719        1.110      128.820       75.803        0.346      347.156       25.919      862.692
09/12/2014  12:09:00       83.924      106.444      111.589      103.812       84.832       79.434    10776.978     7196.447     6309.711        2.755        1.214      135.549       77.247        0.325      347.283       26.138      862.666
09/12/2014  12:10:00       88.346       84.781       54.793       81.313       55.660       48.611     6611.743     3098.015     2363.015        1.503        0.604      122.445       41.594        0.115      347.502       26.517      862.658
09/12/2014  12:11:00      135.258     -146.409      -17.801      109.313      102.165       58.506    11949.398    10437.610     3423.006        3.292        1.291      199.325       76.447        0.147      347.159       25.925      862.646
09/12/2014  12:12:00       26.776      -84.702       21.701       56.171       68.846       45.212     3155.217     4739.756     2044.165        0.915        0.497       88.833       38.426        0.187      347.261       26.104      862.619
09/12/2014  12:13:00       54.268     -111.743       -3.220       71.667       92.556       64.821     5136.179     8566.677     4201.701        1.667        0.895      124.224       58.599        0.223      347.316       26.195      862.589
09/12/2014  12:14:00        7.175       81.792      113.222       58.508       75.653       56.436     3423.227     5723.317     3185.008        1.594        0.617       82.106       57.835        0.496      347.745       26.935      862.584
09/12/2014  12:15:00       36.377       18.313       60.473       73.658       77.825       38.473     5425.451     6056.703     1480.179        0.914        0.648       40.727       42.888        1.109      347.700       26.861      862.576
09/12/2014  12:16:00       60.296       40.379       51.037       61.009       40.585       39.918     3722.132     1647.130     1593.464        0.742        0.348       72.567       29.897        0.170      347.739       26.927      862.576
09/12/2014  12:17:00       44.200       47.875       62.717       92.844      103.650       54.232     8619.952    10743.248     2941.083        1.524        1.115       65.159       50.361        0.597      347.650       26.772      862.561
09/12/2014  12:18:00       92.228     -176.179       -9.696       84.590       87.391       47.036     7155.392     7637.196     2212.359        2.832        0.850      198.859       52.410        0.069      347.293       26.156      862.554
09/12/2014  12:19:00       64.428      -90.863       18.699       71.684      108.248       53.945     5138.628    11717.718     2910.088        1.626        0.988      111.387       73.323        0.433      347.448       26.425      862.553
09/12/2014  12:20:00       72.890      -65.382       15.128       89.004       85.373       63.033     7921.677     7288.614     3973.208        1.450        0.959       97.917       60.044        0.376      347.677       26.818      862.534
09/12/2014  12:21:00       68.835       12.945       72.674       87.262      103.056       74.526     7614.685    10620.611     5554.126        1.698        1.189       70.041       75.125        1.150      347.617       26.715      862.521
09/12/2014  12:22:00      104.112      -48.005       29.519       83.035       70.172       65.238     6894.811     4924.086     4255.944        1.504        0.804      114.647       64.197        0.314      347.585       26.661      862.525
09/12/2014  12:23:00      133.405     -164.274      -19.156       70.488      100.741       56.863     4968.544    10148.752     3233.454        3.175        0.918      211.620       59.321        0.079      347.218       26.023      862.505
09/12/2014  12:24:00      126.199     -162.636      -24.771       37.910       48.242       34.001     1437.168     2327.298     1156.083        2.395        0.246      205.856       28.626        0.019      347.018       25.681      862.482
09/12/2014  12:25:00       73.317      -73.501       16.093       48.119       49.434       34.839     2315.440     2443.748     1213.758        0.850        0.299      103.816       25.235        0.059      347.446       26.421      862.450
09/12/2014  12:26:00       14.348      -96.264       19.780       39.965       70.977       51.773     1597.169     5037.747     2680.480        0.959        0.466       97.327       35.429        0.133      347.925       27.247      862.416
09/12/2014  12:27:00       13.710      -13.807       21.778       34.453       27.050       24.256     1187.027      731.677      588.378        0.168        0.125       19.458       15.697        0.651      348.258       27.824      862.391
09/12/2014  12:28:00       15.215       45.088       68.844       56.040       55.818       37.730     3140.447     3115.598     1423.583        0.734        0.384       47.586       34.508        0.526      348.126       27.595      862.385
09/12/2014  12:29:00       88.574       89.187       89.062       90.250       81.320       58.743     8145.035     6612.877     3450.734        2.097        0.910      125.697       54.592        0.189      347.718       26.889      862.382
09/12/2014  12:30:00       81.937       71.959       49.194       68.546       50.257       63.602     4698.585     2525.803     4045.274        1.279        0.563      109.049       29.332        0.072      347.636       26.748      862.380
09/12/2014  12:31:00      116.086      -20.959        7.460       88.521      120.724       44.393     7835.993    14574.301     1970.695        1.917        1.219      117.963       46.584        0.156      347.711       26.878      862.376
09/12/2014  12:32:00       87.062      -12.066       37.145       64.664      100.552       73.713     4181.434    10110.768     5433.600        1.441        0.986       87.894       67.058        0.582      347.590       26.669      862.357
09/12/2014  12:33:00       43.890       -6.904       55.399       49.530      103.748       60.762     2453.210    10763.666     3692.059        1.097        0.845       44.430       69.969        2.480      347.803       27.036      862.319
09/12/2014  12:34:00      102.928      -10.960       40.079      119.848       70.703       67.357    14363.461     4998.970     4536.977        1.811        1.195      103.510       58.051        0.315      347.750       26.945      862.311
09/12/2014  12:35:00       48.757       17.020       41.171       49.093       37.184       39.281     2410.118     1382.651     1542.999        0.485        0.267       51.642       23.905        0.214      347.754       26.952      862.303
09/12/2014  12:36:00       46.491        7.229       45.000       53.016       56.260       33.660     2810.677     3165.216     1133.024        0.567        0.355       47.050       40.196        0.730      347.897       27.199      862.288
09/12/2014  12:37:00       20.097      -12.653       55.702       47.241       82.011       65.810     2231.682     6725.764     4330.987        0.848        0.664       23.749       58.124        5.990      348.072       27.501      862.260
09/12/2014  12:38:00      109.527      -43.453       23.328       72.724       53.644       44.429     5288.781     2877.731     1973.967        1.228        0.507      117.831       43.379        0.136      347.591       26.671      862.248
09/12/2014  12:39:00       87.765      -84.894       22.351       67.353      128.179       62.502     4536.361    16429.843     3906.506        2.014        1.244      122.105       84.367        0.477      347.698       26.855      862.227
09/12/2014  12:40:00       43.818       26.360       44.104       38.577       39.268       39.960     1488.171     1541.982     1596.828        0.459        0.231       51.135       29.382        0.330      347.758       26.959      862.198
09/12/2014  12:41:00       44.824      -40.076       -7.601       37.086       32.995       23.949     1375.363     1088.640      573.560        0.335        0.152       60.127       22.788        0.144      347.860       27.136      862.167
09/12/2014  12:42:00       19.221       95.601      101.950       55.687       65.086       58.244     3101.019     4236.197     3392.392        1.531        0.536       97.514       50.257        0.266      348.321       27.931      862.159
09/12/2014  12:43:00       24.719       60.587       60.288       61.357       37.369       41.615     3764.655     1396.420     1731.801        0.740        0.345       65.435       43.263        0.437      347.998       27.375      862.147
09/12/2014  12:44:00       16.840      -20.945        1.340       33.590       76.663       27.507     1128.301     5877.244      756.655        0.424        0.388       26.876       37.304        1.927      347.534       26.574      862.134
09/12/2014  12:45:00      -71.457       27.951       12.424       49.569       45.631       35.503     2457.101     2082.193     1260.441        0.592        0.290       76.729       27.137        0.125      347.685       26.833      862.115
09/12/2014  12:46:00       52.213       40.922       63.162       57.725       65.899       46.895     3332.123     4342.617     2199.112        0.913        0.494       66.339       51.618        0.605      348.176       27.681      862.096
09/12/2014  12:47:00       82.316        2.519       42.885       89.513      143.978       86.320     8012.546    20729.566     7451.074        2.240        1.810       82.354       93.901        1.300      348.023       27.415      862.072
09/12/2014  12:48:00       34.478      -80.830       48.894       58.446      113.903       47.528     3415.898    12973.805     2258.894        1.438        0.932       87.877       59.609        0.460      348.266       27.834      862.071
09/12/2014  12:49:00       13.792      -73.211       15.998       46.648       69.235       50.027     2176.000     4793.523     2502.747        0.764        0.474       74.499       51.505        0.478      348.125       27.592      862.062
09/12/2014  12:50:00       40.720      -72.308       -4.304       24.699       63.503       36.477      610.039     4032.647     1330.547        0.644        0.299       82.985       31.919        0.148      347.781       26.999      862.040
09/12/2014  12:51:00       81.459       10.372       56.777       65.230       94.869       57.280     4254.932     9000.206     3281.041        1.325        0.827       82.117       65.511        0.636      348.020       27.410      862.021
09/12/2014  12:52:00      109.325       69.952       75.465       95.163       66.587       62.694     9055.961     4433.894     3930.540        1.998        0.871      129.789       52.882        0.166      348.207       27.733      861.976
09/12/2014  12:53:00      125.642       39.236       29.494      106.084      103.479       59.833    11253.715    10707.982     3580.006        2.186        1.277      131.626       19.550        0.022      348.450       28.154      861.968
09/12/2014  12:54:00      171.685      109.486      100.126      109.536       91.526       81.964    11998.170     8376.956     6718.097        3.929        1.355      203.625       80.181        0.155      347.890       27.185      861.975
09/12/2014  12:55:00       53.831       58.339       88.675       72.268       90.899       80.886     5222.636     8262.595     6542.465        1.709        1.001       79.381       78.908        0.988      347.828       27.079      861.970
09/12/2014  12:56:00       63.544       23.464       -7.911       89.432       54.128       24.485     7998.011     2929.894      599.510        0.809        0.576       67.738       12.337        0.033      347.764       26.969      861.944
09/12/2014  12:57:00      172.657      132.509        2.089       54.417       39.693       46.735     2961.194     1575.572     2184.126        2.705        0.336      217.644       17.585        0.007      347.618       26.714      861.909
09/12/2014  12:58:00       23.813       47.900        3.255       37.074       48.460       31.798     1374.482     2348.400     1011.114        0.380        0.237       53.493       30.003        0.315      348.067       27.493      861.888
09/12/2014  12:59:00       70.298       12.977       46.467       80.065       95.863       73.185     6410.479     9189.694     5356.100        1.411        1.048       71.485       68.129        0.908      348.468       28.186      861.866
09/12/2014  13:00:00      218.452      144.907       93.397      112.710       79.745       76.448    12703.547     6359.292     5844.249        5.117        1.245      262.144       64.835        0.061      347.917       27.229      861.853
09/12/2014  13:01:00       35.826       85.691       84.144       64.751       50.407       42.537     4192.753     2540.868     1809.377        1.212        0.427       92.879       39.844        0.184      348.223       27.763      861.860
09/12/2014  13:02:00      119.782       59.810       31.382       70.736       75.961       50.499     5003.533     5770.080     2550.105        1.611        0.666      133.884       24.360        0.033      347.931       27.257      861.841
09/12/2014  13:03:00      175.838      140.568       62.397       97.436       84.093       76.941     9493.725     7071.599     5919.991        3.852        1.124      225.118       56.618        0.063      348.370       28.014      861.807
09/12/2014  13:04:00       10.551       12.278       31.123       68.369       82.744       48.433     4674.316     6846.490     2345.768        0.755        0.693       16.188       43.087        7.084      348.747       28.668      861.802
09/12/2014  13:05:00      -17.869       47.244       80.605       43.423       80.020       59.691     1885.556     6403.194     3563.002        1.045        0.593       50.510       60.227        1.422      348.902       28.938      861.800
09/12/2014  13:06:00      200.681      131.196       70.516       93.686       77.606       75.315     8777.127     6022.762     5672.413        4.146        1.024      239.761       59.546        0.062      348.093       27.533      861.786
09/12/2014  13:07:00      157.899      111.305       44.459       75.426       51.314       49.807     5689.071     2633.138     2480.724        2.505        0.540      193.186       23.666        0.015      347.918       27.234      861.786
09/12/2014  13:08:00      173.236      107.169       49.260       74.188       52.085       52.447     5503.872     2712.801     2750.711        2.744        0.548      203.706       39.296        0.037      348.021       27.410      861.772
09/12/2014  13:09:00      203.674      136.961       56.983       47.763       39.144       39.644     2281.288     1532.285     1571.610        3.444        0.269      245.442       13.962        0.003      347.949       27.282      861.748
09/12/2014  13:10:00      151.081       84.404       53.803       74.840       78.277       75.083     5600.965     6127.227     5637.482        2.510        0.868      173.060       52.191        0.091      348.373       28.020      861.745
09/12/2014  13:11:00      113.930       37.199       63.158       94.771       79.897       58.374     8981.531     6383.466     3407.527        1.856        0.939      119.849       59.151        0.244      348.403       28.071      861.733
09/12/2014  13:12:00      147.835      139.393      114.434       67.476       82.512       61.274     4553.007     6808.209     3754.463        3.475        0.756      203.189       46.343        0.052      348.067       27.488      861.732
09/12/2014  13:13:00       58.253       26.849       12.879       69.153       54.490       33.088     4782.108     2969.181     1094.832        0.656        0.442       64.142       28.733        0.201      348.163       27.659      861.732
09/12/2014  13:14:00       -4.214      -24.195       23.252       29.337       28.824       23.477      860.653      830.813      551.150        0.169        0.112       24.559       20.106        0.670      348.487       28.220      861.695
09/12/2014  13:15:00       43.478       27.656       51.652       42.067       67.285       52.458     1769.657     4527.264     2751.878        0.718        0.452       51.528       52.251        1.028      348.282       27.864      861.692
09/12/2014  13:16:00       18.933       22.816       41.330       36.457       46.225       31.683     1329.108     2136.720     1003.792        0.353        0.223       29.648       23.472        0.627      348.619       28.448      861.681
09/12/2014  13:17:00      146.033     -103.729       19.479      104.261      177.054       90.476    10870.317    31348.293     8185.974        4.143        2.520      179.124      116.319        0.422      348.522       28.276      861.650
09/12/2014  13:18:00       77.299     -214.940      -26.686      109.537      107.286       69.649    11998.432    11510.283     4851.014        4.062        1.418      228.417       65.888        0.083      348.520       28.272      861.633
09/12/2014  13:19:00       94.558     -175.606        2.772       60.263       95.271       50.634     3631.620     9076.639     2563.799        2.753        0.764      199.446       49.647        0.062      348.229       27.770      861.650
09/12/2014  13:20:00       47.874      -35.202       38.379       49.649       55.474       38.202     2465.006     3077.351     1459.387        0.600        0.350       59.423       36.276        0.373      348.621       28.451      861.618
09/12/2014  13:21:00       19.871      -18.589       25.604       38.462       45.711       33.804     1479.331     2089.522     1142.731        0.305        0.236       27.211       29.022        1.138      348.771       28.710      861.602
09/12/2014  13:22:00       98.791       84.032       49.593       67.957       73.024       31.325     4618.198     5332.470      981.281        1.510        0.547      129.696       19.646        0.023      348.423       28.106      861.564
09/12/2014  13:23:00       46.702       16.885       49.621       95.715       70.097       42.805     9161.286     4913.615     1832.254        1.042        0.795       49.661       40.139        0.653      349.036       29.168      861.547
09/12/2014  13:24:00       28.452       61.686       90.308       63.680       59.860       59.450     4055.117     3583.215     3534.310        1.197        0.559       67.931       49.468        0.530      349.127       29.327      861.541
09/12/2014  13:25:00      104.702       49.287       53.106       86.902       74.444       59.013     7551.934     5541.852     3482.553        1.639        0.829      115.723       48.928        0.179      348.583       28.385      861.511
09/12/2014  13:26:00       90.362       32.309      105.369      108.271      125.926       88.433    11722.679    15857.381     7820.369        2.785        1.770       95.964       85.148        0.787      348.783       28.729      861.471
09/12/2014  13:27:00      179.390      132.905      125.082      135.718      102.236      101.197    18419.384    10452.244    10240.753        5.229        1.956      223.259       77.374        0.120      348.345       27.971      861.462
09/12/2014  13:28:00      116.652       86.388       56.974      100.993       70.304       50.289    10199.540     4942.584     2528.985        2.099        0.884      145.157       24.684        0.029      348.568       28.357      861.445
09/12/2014  13:29:00      122.662       77.961       21.691       85.786       65.734       64.693     7359.179     4320.901     4185.216        1.873        0.793      145.341       42.870        0.087      348.657       28.512      861.419
09/12/2014  13:30:00      167.732      211.621      161.033      135.582       79.601       91.963    18382.408     6336.278     8457.259        6.601        1.659      270.032       85.407        0.100      348.444       28.141      861.407
09/12/2014  13:31:00      122.349       65.916      109.287      116.523       93.318       76.858    13577.585     8708.287     5907.126        2.972        1.410      138.975       63.187        0.207      348.562       28.345      861.381
09/12/2014  13:32:00      103.391      132.527      109.562       98.435      100.322       69.574     9689.543    10064.463     4840.578        3.242        1.230      168.087       59.695        0.126      348.496       28.231      861.363
09/12/2014  13:33:00      111.218      -83.920       14.615       85.365      129.317       65.013     7287.219    16722.965     4226.676        2.393        1.412      139.327       87.119        0.391      348.705       28.595      861.367
09/12/2014  13:34:00      143.260     -245.025      -17.057       91.860       96.870       51.163     8438.265     9383.810     2617.654        5.064        1.022      283.833       39.017        0.019      348.413       28.087      861.340
09/12/2014  13:35:00      120.796     -225.170      -24.457       61.313       70.001       62.020     3759.252     4900.163     3846.492        3.920        0.625      255.525       35.868        0.020      348.401       28.066      861.321
09/12/2014  13:36:00       10.634      -98.907       25.518       65.398       93.732       48.212     4276.941     8785.723     2324.352        1.296        0.769       99.477       56.170        0.319      348.840       28.829      861.306
09/12/2014  13:37:00      100.524       14.889       91.377      111.453      135.318       81.877    12421.794    18311.004     6703.821        2.805        1.872      101.621       88.813        0.764      348.872       28.882      861.312
09/12/2014  13:38:00       71.224     -137.337      -17.035       71.222      122.855       54.255     5072.549    15093.399     2943.627        2.366        1.155      154.707       41.600        0.072      348.863       28.866      861.290
09/12/2014  13:39:00      101.583     -114.033      -13.965       95.859      119.989       49.742     9188.903    14397.390     2474.314        2.478        1.303      152.718       41.036        0.072      348.660       28.515      861.287
09/12/2014  13:40:00       95.648     -131.792       -1.954       65.711      111.042       63.775     4317.990    12330.403     4067.209        2.362        1.036      162.842       64.670        0.158      348.692       28.571      861.273
09/12/2014  13:41:00       93.061     -171.554        1.515       95.642      106.533       57.907     9147.379    11349.281     3353.231        3.097        1.192      195.170       49.111        0.063      348.730       28.638      861.243
09/12/2014  13:42:00      157.184      103.356       83.371       95.824       82.420       77.011     9182.206     6793.119     5930.719        3.212        1.095      188.120       71.983        0.146      348.794       28.747      861.233
09/12/2014  13:43:00      102.028       47.725       35.615       88.579       49.737       45.619     7846.235     2473.747     2081.090        1.318        0.620      112.638       41.447        0.135      348.965       29.045      861.212
09/12/2014  13:44:00      122.331      140.983      126.038       95.282       78.389       70.630     9078.650     6144.846     4988.621        3.547        1.011      186.658       62.762        0.113      348.860       28.861      861.197
09/12/2014  13:45:00      138.199      -95.491       15.725      141.747      211.806       97.267    20092.146    44861.741     9460.895        5.143        3.721      167.980      123.395        0.540      349.000       29.103      861.193
09/12/2014  13:46:00      146.968     -193.898      -10.234      103.771      142.528       78.460    10768.473    20314.092     6156.046        4.826        1.862      243.302       75.293        0.096      348.758       28.686      861.188
09/12/2014  13:47:00      123.487     -140.658        5.241       80.388      110.932       67.212     6462.305    12305.890     4517.410        2.917        1.164      187.173       60.216        0.103      349.052       29.195      861.185
09/12/2014  13:48:00       64.615     -168.327        7.825      124.325      161.612       67.442    15456.810    26118.546     4548.478        3.934        2.306      180.303       92.699        0.264      349.163       29.387      861.173
09/12/2014  13:49:00       83.267      -50.082       59.567      116.292      142.480       87.813    13523.821    20300.444     7711.179        2.726        2.077       97.168      113.169        1.356      349.062       29.214      861.179
09/12/2014  13:50:00      140.452     -218.165      -15.832       96.476       77.930       56.126     9307.642     6073.065     3150.180        4.305        0.927      259.466       54.759        0.045      348.823       28.798      861.178
09/12/2014  13:51:00      120.890      -89.937       18.641       76.436       70.924       58.152     5842.495     5030.272     3381.708        1.865        0.713      150.675       51.925        0.119      348.776       28.718      861.181
09/12/2014  13:52:00       40.846      -88.139       17.829       32.460       52.057       25.088     1053.670     2709.955      629.406        0.707        0.220       97.144       21.998        0.051      348.656       28.512      861.173
09/12/2014  13:53:00       26.781      -97.181      -10.063       44.762       28.017       25.018     2003.612      784.930      625.925        0.684        0.171      100.803       12.048        0.014      348.528       28.291      861.154
09/12/2014  13:54:00        4.106      -68.219        1.451       52.915       33.396       24.863     2799.981     1115.273      618.158        0.460        0.227       68.342       23.685        0.120      348.708       28.602      861.126
09/12/2014  13:55:00       12.262       10.731       35.290       22.115       31.738       20.545      489.063     1007.284      422.117        0.171        0.096       16.294       18.844        1.337      349.346       29.707      861.090
09/12/2014  13:56:00       19.103       48.749       55.742       36.143       37.852       28.177     1306.308     1432.758      793.948        0.469        0.177       52.358       19.754        0.142      349.104       29.288      861.099
09/12/2014  13:57:00       51.340       68.366      105.908       59.861       86.223       48.635     3583.280     7434.454     2365.390        1.595        0.669       85.497       55.181        0.417      349.224       29.495      861.099
09/12/2014  13:58:00      119.080       91.207      111.230       99.807       87.949       63.368     9961.349     7734.964     4015.562        2.829        1.086      149.996       58.073        0.150      349.005       29.113      861.102
09/12/2014  13:59:00      168.752       52.180       10.438      111.320       69.850       54.838    12392.210     4879.058     3007.235        2.579        1.014      176.635       44.769        0.064      348.789       28.740      861.087
09/12/2014  14:00:00      136.662       48.474       22.418       83.587       56.760       40.733     6986.796     3221.753     1659.205        1.670        0.593      145.004       33.962        0.055      348.979       29.068      861.077
09/12/2014  14:01:00      126.685       48.235       30.012       76.959       64.630       50.975     5922.680     4177.083     2598.470        1.599        0.635      135.557       34.196        0.064      349.027       29.151      861.053
09/12/2014  14:02:00       44.325       19.527       35.530       49.075       50.699       27.957     2408.357     2570.387      781.575        0.468        0.288       48.436       20.287        0.175      349.322       29.665      861.046
09/12/2014  14:03:00      -20.139      -17.445       18.693       43.789       33.620       21.454     1917.498     1130.288      460.253        0.228        0.175       26.644       23.126        0.753      349.512       29.996      861.045
09/12/2014  14:04:00       24.371      -32.209        8.328       29.534       46.320       28.531      872.272     2145.523      813.990        0.277        0.192       40.390       26.407        0.427      349.255       29.548      861.036
09/12/2014  14:05:00      148.896     -200.493      -35.330      119.530      129.637       79.323    14287.311    16805.663     6292.151        5.049        1.869      249.735       85.248        0.117      349.207       29.463      861.014
09/12/2014  14:06:00       48.298     -138.250      -16.663       95.975      109.489       72.459     9211.274    11987.804     5250.373        2.408        1.322      146.444       72.022        0.242      349.136       29.340      861.004
09/12/2014  14:07:00      -27.801       24.249       -9.250       45.936       62.557       43.200     2110.151     3913.424     1866.254        0.467        0.394       36.891       29.714        0.649      348.951       29.023      860.997
09/12/2014  14:08:00       37.941        2.334        9.819       52.338       74.785       39.315     2739.294     5592.765     1545.671        0.571        0.494       38.013       31.146        0.671      349.244       29.531      860.955
09/12/2014  14:09:00       84.831      -41.736       79.827      114.368      141.548      102.188    13080.111    20035.895    10442.346        2.943        2.178       94.542      111.934        1.402      349.420       29.832      860.927
09/12/2014  14:10:00       91.298     -112.207      -17.770       86.219       91.923       45.894     7433.795     8449.891     2106.277        1.961        0.899      144.658       58.112        0.161      349.185       29.427      860.934
09/12/2014  14:11:00       10.945        4.104       33.191       32.381       32.687       26.227     1048.534     1068.425      687.861        0.202        0.140       11.689       24.311        4.325      349.692       30.307      860.913
09/12/2014  14:12:00       32.248        0.054       19.317       67.591       44.328       32.110     4568.584     1964.971     1031.070        0.449        0.378       32.248       27.134        0.708      349.501       29.976      860.904
09/12/2014  14:13:00       73.348       28.150       25.616       69.759       57.735       49.184     4866.273     3333.359     2419.048        0.872        0.531       78.564       36.884        0.220      349.516       30.001      860.897
09/12/2014  14:14:00      103.270      -51.012       77.707      100.079      170.657       89.889    10015.785    29123.951     8079.973        3.325        2.361      115.182      109.923        0.911      349.348       29.708      860.877
09/12/2014  14:15:00       97.993     -170.575      -41.623       63.950       72.220       41.065     4089.593     5215.767     1686.360        2.571        0.550      196.719       37.391        0.036      349.041       29.175      860.864
09/12/2014  14:16:00       74.804       49.789       70.151       82.345       87.076       49.035     6780.659     7582.264     2404.474        1.488        0.838       89.859       48.702        0.294      349.410       29.817      860.864
09/12/2014  14:17:00      150.790       88.784       25.281       63.923       63.988       56.365     4086.198     4094.408     3177.016        2.131        0.568      174.986       37.261        0.045      349.577       30.106      860.865
09/12/2014  14:18:00       93.339       70.373       12.155       61.067       53.146       38.303     3729.148     2824.491     1467.147        1.092        0.401      116.895       25.476        0.047      349.543       30.048      860.855
09/12/2014  14:19:00       80.140       50.867       16.289       64.914       47.114       42.064     4213.805     2219.753     1769.345        0.874        0.410       94.920       22.839        0.058      349.399       29.799      860.846
09/12/2014  14:20:00       66.906       74.834       82.964       56.896       52.364       49.059     3237.145     2741.946     2406.819        1.267        0.419      100.382       37.636        0.141      349.575       30.104      860.847
09/12/2014  14:21:00       55.796      -45.168       26.388       74.625      123.481       55.157     5568.855    15247.655     3042.316        1.485        1.193       71.787       61.558        0.735      349.750       30.406      860.839
09/12/2014  14:22:00       40.076      -16.394       40.019       57.731       85.400       52.027     3332.843     7293.106     2706.776        0.840        0.667       43.299       32.254        0.555      349.791       30.478      860.828
09/12/2014  14:23:00       82.186       32.784       30.825       86.452       87.625       67.907     7473.973     7678.194     4611.399        1.427        0.988       88.483       53.414        0.364      349.393       29.788      860.825
09/12/2014  14:24:00       68.204       97.139       63.735       66.119       59.814       63.929     4371.785     3577.674     4086.946        1.509        0.602      118.692       55.777        0.221      349.140       29.349      860.810
09/12/2014  14:25:00      109.483       28.626        1.069       77.403       52.425       38.078     5991.208     2748.348     1449.958        1.150        0.509      113.164       24.108        0.045      349.296       29.619      860.809
09/12/2014  14:26:00       45.910      -56.792       -1.294       36.843       60.960       35.991     1357.379     3716.102     1295.340        0.585        0.318       73.028       17.605        0.058      349.307       29.639      860.799
09/12/2014  14:27:00       22.128      -82.599       -0.801       34.436       36.426       28.430     1185.860     1326.827      808.253        0.532        0.166       85.512       11.672        0.019      349.240       29.523      860.771
09/12/2014  14:28:00      -13.980       -0.201        4.135       37.735       23.009       24.100     1423.952      529.396      580.815        0.137        0.127       13.981       13.353        0.912      349.486       29.949      860.740
09/12/2014  14:29:00      -26.931       27.998       22.209       45.177       25.267       20.385     2040.983      638.408      415.549        0.255        0.155       38.848       22.954        0.349      349.682       30.288      860.714
09/12/2014  14:30:00       24.907      -11.517        8.962       30.929       25.291       27.700      956.590      639.645      767.263        0.160        0.118       27.441       24.392        0.790      349.511       29.993      860.689
09/12/2014  14:31:00       37.699       12.596       38.418       31.508       25.241       28.012      992.775      637.087      784.688        0.273        0.121       39.747       18.876        0.226      349.424       29.843      860.685
09/12/2014  14:32:00      111.298       79.061       25.571       87.982       47.768       41.872     7740.911     2281.744     1753.246        1.553        0.589      136.521       14.263        0.011      349.469       29.920      860.679
09/12/2014  14:33:00      188.731      138.637       17.885      106.419       84.869       54.961    11325.057     7202.690     3020.686        3.835        1.077      234.178       31.073        0.018      349.491       29.956      860.652
09/12/2014  14:34:00      150.445       84.295       36.997       73.252       74.672       52.547     5365.908     5575.910     2761.210        2.240        0.685      172.451       15.384        0.008      349.427       29.845      860.649
09/12/2014  14:35:00      209.603      108.132       17.557       43.442       45.921       42.225     1887.221     2108.740     1782.962        3.086        0.289      235.852       17.397        0.005      349.255       29.546      860.651
09/12/2014  14:36:00       83.498       57.864        8.560       77.622       52.970       40.268     6025.161     2805.792     1621.509        1.042        0.523      101.588       25.697        0.064      349.558       30.073      860.649
09/12/2014  14:37:00       54.890       33.983       16.924       50.772       45.090       38.774     2577.796     2033.103     1503.397        0.528        0.306       64.558       30.121        0.218      349.808       30.507      860.648
09/12/2014  14:38:00       48.186       73.210        0.173       64.665       63.603       46.709     4181.620     4045.341     2181.701        0.904        0.520       87.644       31.863        0.132      349.643       30.221      860.636
09/12/2014  14:39:00       19.363       24.832        2.101       49.843       47.914       25.724     2484.287     2295.716      661.748        0.322        0.272       31.489       25.567        0.659      349.865       30.608      860.618
09/12/2014  14:40:00       82.914       68.676        7.425       73.676       63.676       38.286     5428.099     4054.617     1465.829        1.130        0.547      107.662       28.088        0.068      349.659       30.249      860.600
09/12/2014  14:41:00       42.416      153.590      -17.988       77.548       93.869       39.687     6013.718     8811.443     1575.028        2.105        0.820      159.339       41.576        0.068      349.411       29.818      860.583
09/12/2014  14:42:00       55.870      115.945       -3.013       53.549       76.829       51.623     2867.520     5902.703     2664.920        1.400        0.572      128.704       47.056        0.134      349.422       29.838      860.575
09/12/2014  14:43:00       74.186       87.011       -9.052       44.815       47.476       35.496     2008.381     2253.993     1259.966        0.934        0.276      114.343       24.538        0.046      349.320       29.662      860.560
09/12/2014  14:44:00       67.153      -97.458       -5.688       46.464       86.961       30.048     2158.948     7562.249      902.873        1.233        0.531      118.354       28.900        0.060      349.303       29.632      860.560
09/12/2014  14:45:00       48.896     -138.156       11.933       48.802       79.712       41.720     2381.601     6354.061     1740.530        1.605        0.524      146.553       39.417        0.072      349.632       30.201      860.520
09/12/2014  14:46:00       37.538     -126.025        1.601       42.004       91.980       31.696     1764.323     8460.366     1004.626        1.426        0.561      131.497       40.800        0.096      349.657       30.243      860.511
09/12/2014  14:47:00       13.636     -144.968      -18.192       83.532       64.162       36.831     6977.522     4116.785     1356.530        1.699        0.623      145.607       36.948        0.064      349.306       29.636      860.481
09/12/2014  14:48:00       58.632      -85.050       -2.460       41.948       73.303       40.304     1759.636     5373.369     1624.426        0.972        0.438      103.301       19.906        0.037      349.488       29.952      860.453
09/12/2014  14:49:00       72.468     -153.666      -17.858       67.313       45.055       33.726     4531.093     2029.912     1137.431        1.844        0.385      169.897       21.623        0.016      349.310       29.643      860.442
09/12/2014  14:50:00       39.385      -62.810       22.428       56.735       72.922       37.698     3218.867     5317.568     1421.167        0.798        0.498       74.137       39.408        0.283      349.564       30.083      860.417
09/12/2014  14:51:00      106.326       13.057       38.800      132.980      113.668       63.598    17683.721    12920.335     4044.761        2.381        1.732      107.124       59.131        0.305      349.413       29.821      860.402
09/12/2014  14:52:00      106.994       65.696       21.606       67.160       48.276       42.132     4510.489     2330.579     1775.118        1.242        0.431      125.553       27.354        0.047      349.263       29.564      860.364
09/12/2014  14:53:00       26.855        8.937       10.863       49.946       52.738       26.414     2494.585     2781.311      697.713        0.345        0.299       28.303       18.358        0.421      349.445       29.878      860.343
09/12/2014  14:54:00      -43.058      -20.678       -4.646       35.705       20.901       21.334     1274.826      436.856      455.141        0.223        0.108       47.766       19.441        0.166      349.700       30.320      860.325
09/12/2014  14:55:00      -53.364      -37.975        1.623       56.538       43.459       37.047     3196.542     1888.698     1372.488        0.537        0.323       65.496       31.499        0.231      349.756       30.418      860.305
09/12/2014  14:56:00      -48.195      -90.534       -0.207       37.582       45.961       30.299     1412.435     2112.413      918.047        0.748        0.222      102.563       23.873        0.054      349.309       29.642      860.302
09/12/2014  14:57:00      -21.202      -23.013       10.807       52.565       51.144       34.091     2763.126     2615.673     1162.197        0.382        0.327       31.291       39.798        1.618      349.771       30.444      860.304
09/12/2014  14:58:00       15.591      -14.013       27.565       42.622       66.995       45.600     1816.666     4488.265     2079.405        0.479        0.419       20.963       41.112        3.846      349.866       30.609      860.303
09/12/2014  14:59:00       45.784       22.230       76.930       80.806       81.080       62.740     6529.677     6573.950     3936.249        1.277        0.852       50.895       62.570        1.511      349.793       30.481      860.293
09/12/2014  15:00:00       90.608        9.044       78.520       87.699       95.140       66.483     7691.080     9051.696     4419.999        1.781        1.058       91.058       69.505        0.583      349.576       30.104      860.275
09/12/2014  15:01:00       93.432       90.794       87.713       78.435       57.507       62.510     6151.994     3307.064     3907.449        1.901        0.668      130.281       56.621        0.189      349.500       29.972      860.256
09/12/2014  15:02:00      106.164        8.927        8.341       66.059      108.138       42.790     4363.815    11693.813     1831.007        1.465        0.894      106.539       43.608        0.168      349.574       30.100      860.231
09/12/2014  15:03:00       43.405       10.918       89.625       79.661      114.541       70.758     6345.895    13119.699     5006.637        1.725        1.224       44.757       66.082        2.180      349.893       30.654      860.198
09/12/2014  15:04:00       68.687      -45.671       24.324       58.264       62.819       39.570     3394.699     3946.289     1565.789        0.815        0.445       82.485       45.736        0.307      349.573       30.100      860.201
09/12/2014  15:05:00       66.433     -144.484       -0.940       56.213       76.074       46.391     3159.860     5787.250     2152.123        1.819        0.555      159.025       40.424        0.065      349.550       30.060      860.180
09/12/2014  15:06:00      129.363     -130.118      -12.116       61.719       77.928       45.351     3809.274     6072.789     2056.754        2.287        0.597      183.482       45.003        0.060      349.856       30.589      860.140
09/12/2014  15:07:00       63.627     -102.837        6.180       61.076       90.736       45.354     3730.279     8233.022     2057.028        1.434        0.701      120.929       53.150        0.193      349.882       30.636      860.130
09/12/2014  15:08:00      -27.734      -53.437        8.394       90.713       91.602       49.632     8228.897     8391.004     2463.354        1.139        0.954       60.205       54.814        0.829      350.101       31.017      860.122
09/12/2014  15:09:00       -5.355     -102.025      -15.339       62.816       66.414       47.682     3945.799     4410.776     2273.581        1.065        0.532      102.166       44.221        0.187      350.011       30.859      860.112
09/12/2014  15:10:00      -29.666      -51.747      -12.376       44.445       61.400       34.606     1975.317     3769.945     1197.542        0.533        0.347       59.647       30.540        0.262      350.088       30.995      860.096
09/12/2014  15:11:00     -191.952     -208.880       -9.232      118.717      133.064       62.719    14093.821    17706.100     3933.611        5.814        1.787      283.684       48.083        0.029      349.788       30.469      860.110
09/12/2014  15:12:00     -136.073     -170.930        1.870      102.346      132.971       58.434    10474.724    17681.180     3414.522        3.965        1.579      218.478       54.064        0.061      349.509       29.985      860.145
09/12/2014  15:13:00     -127.423      -14.922        2.365       87.488       46.535       35.302     7654.125     2165.479     1246.260        1.376        0.553      128.294       25.528        0.040      349.759       30.422      860.124
09/12/2014  15:14:00      -10.562      -69.858        6.764       40.910       63.970       27.022     1673.604     4092.223      730.164        0.577        0.325       70.651       20.464        0.084      349.733       30.377      860.097
09/12/2014  15:15:00      -56.321      -40.201       -0.160       51.879       61.401       32.178     2691.428     3770.110     1035.420        0.614        0.375       69.196       27.238        0.155      349.769       30.440      860.083
09/12/2014  15:16:00       38.655       31.596       41.963       48.749       58.101       39.969     2376.471     3375.673     1597.545        0.580        0.367       49.925       33.298        0.445      349.777       30.454      860.057
09/12/2014  15:17:00       21.441      -66.605        9.810       54.788      123.285       78.330     3001.738    15199.089     6135.559        1.466        1.217       69.971       88.050        1.584      349.692       30.305      860.030
09/12/2014  15:18:00      -14.392     -207.639       -5.667       83.582      134.830       66.207     6985.955    18179.242     4383.380        3.645        1.477      208.137       53.909        0.067      349.730       30.369      859.987
09/12/2014  15:19:00      -82.788      -89.096      -21.473       57.011       92.741       37.714     3250.299     8600.915     1422.372        1.426        0.664      121.622       33.919        0.078      349.721       30.357      859.996
09/12/2014  15:20:00      -44.084      -37.087       14.176       74.032       49.367       32.204     5480.697     2437.090     1037.068        0.624        0.448       57.609       32.674        0.322      350.111       31.034      859.998
09/12/2014  15:21:00       38.091      -88.110        3.031       67.962       79.263       52.261     4618.803     6282.551     2731.216        1.143        0.682       95.991       36.000        0.141      349.984       30.813      859.973
09/12/2014  15:22:00        2.112     -110.208       -0.969       70.208       70.638       50.910     4929.150     4989.795     2591.816        1.233        0.626      110.228       40.195        0.133      349.838       30.560      859.956
09/12/2014  15:23:00       78.125     -242.123      -48.327       82.444       89.418       52.937     6797.044     7995.591     2802.363        4.233        0.880      254.415       41.766        0.027      349.674       30.272      859.938
09/12/2014  15:24:00       48.038      -72.052        6.317       48.739       67.038       54.482     2375.465     4494.106     2968.316        0.869        0.492       86.597       47.987        0.307      349.646       30.228      859.943
09/12/2014  15:25:00       44.616       44.461       40.146       44.813       28.924       31.804     2008.245      836.569     1011.478        0.472        0.193       62.987       21.685        0.119      349.582       30.115      859.909
09/12/2014  15:26:00       57.247       38.483        0.179       58.227       66.134       36.032     3390.429     4373.642     1298.278        0.691        0.453       68.979       34.616        0.252      349.609       30.162      859.886
09/12/2014  15:27:00       -4.900       13.344       -2.965       26.080       14.077       17.824      680.147      198.169      317.700        0.070        0.060       14.216       15.086        1.126      349.908       30.681      859.882
09/12/2014  15:28:00       33.038      -27.306       -6.750       21.657       37.939       13.316      469.010     1439.359      177.326        0.198        0.104       42.862        8.749        0.042      349.887       30.645      859.896
09/12/2014  15:29:00       84.568     -105.926       15.439       84.908       66.098       57.256     7209.353     4368.896     3278.220        1.673        0.743      135.544       30.896        0.052      349.706       30.330      859.883
09/12/2014  15:30:00      148.150     -125.607       18.440       69.047       93.094       62.877     4767.437     8666.561     3953.552        2.772        0.869      194.231       65.955        0.115      349.909       30.681      859.861
09/12/2014  15:31:00      149.193     -205.696      -28.528       88.046      105.952       52.143     7752.122    11225.726     2718.920        4.354        1.085      254.105       50.217        0.039      349.690       30.299      859.831
09/12/2014  15:32:00       99.997     -177.407       11.926       95.713      142.238       66.345     9161.059    20231.546     4401.612        3.770        1.690      203.648       77.505        0.145      349.744       30.395      859.817
09/12/2014  15:33:00       77.794      -98.388       20.526       76.347      101.020       63.689     5828.839    10204.958     4056.253        1.812        1.005      125.428       71.187        0.322      349.904       30.674      859.799
09/12/2014  15:34:00       51.372     -124.488       19.270       82.595       76.687       74.561     6821.991     5880.853     5559.322        1.838        0.913      134.671       49.861        0.137      349.993       30.828      859.765
09/12/2014  15:35:00        9.807      -64.305       32.716       88.662      130.639       90.914     7860.960    17066.598     8265.422        1.924        1.660       65.048       94.402        2.106      350.018       30.871      859.741
09/12/2014  15:36:00      125.705     -134.744       14.016       89.420      120.070       65.576     7995.959    14416.806     4300.240        3.043        1.336      184.276       73.245        0.158      349.869       30.611      859.743
09/12/2014  15:37:00       56.842      -65.034       26.747       82.091       82.918       50.418     6738.866     6875.318     2541.935        1.216        0.808       86.373       62.929        0.531      350.081       30.982      859.721
09/12/2014  15:38:00        2.079     -140.262       11.593      131.923      106.850       68.289    17403.601    11416.946     4663.341        2.664        1.674      140.278       60.149        0.184      350.046       30.920      859.698
09/12/2014  15:39:00       65.158      -88.981       53.462      106.122      128.680       84.312    11261.842    16558.591     7108.466        2.497        1.746      110.287       94.410        0.733      349.877       30.625      859.682
09/12/2014  15:40:00       12.106      -81.364       32.804       59.514       93.536       60.462     3541.973     8749.011     3655.594        1.189        0.797       82.259       57.030        0.481      350.184       31.161      859.665
09/12/2014  15:41:00       39.217      -61.067       34.026       81.836       75.119       52.576     6697.120     5642.894     2764.191        1.076        0.755       72.575       48.585        0.448      350.141       31.087      859.648
09/12/2014  15:42:00       59.857       22.945       99.048       85.854      104.220       59.797     7370.982    10861.840     3575.688        1.786        1.090       64.105       51.346        0.642      350.039       30.908      859.614
09/12/2014  15:43:00       30.498      -75.468       38.043       96.379      129.279       86.193     9288.896    16712.961     7429.308        2.075        1.672       81.398       87.518        1.156      350.199       31.186      859.598
09/12/2014  15:44:00      -24.357     -151.107       -0.020       98.690       76.046       55.829     9739.797     5783.009     3116.875        2.103        0.932      153.058       46.075        0.091      350.032       30.896      859.623
09/12/2014  15:45:00      -60.166      -89.204        2.018      105.349      104.336       64.486    11098.500    10886.049     4158.406        1.886        1.307      107.598       63.029        0.343      350.074       30.969      859.645
09/12/2014  15:46:00     -150.891     -106.310       -5.990       84.226       79.002       45.045     7093.992     6241.303     2029.040        2.473        0.768      184.580       18.959        0.011      349.903       30.671      859.632
09/12/2014  15:47:00      -21.382      -69.877        5.472      109.809       66.813       56.666    12057.935     4464.008     3211.038        1.255        0.987       73.075       37.212        0.259      349.997       30.836      859.625
09/12/2014  15:48:00      -52.615     -146.155       10.056       73.513      101.043       54.452     5404.186    10209.623     2965.045        2.140        0.929      155.338       46.296        0.089      350.051       30.929      859.611
09/12/2014  15:49:00        6.372      -23.516       25.001       80.916       65.099       40.016     6547.479     4237.846     1601.289        0.680        0.619       24.364       29.204        1.437      350.178       31.151      859.616
09/12/2014  15:50:00       62.406      -48.860       48.203       81.438       90.590       57.254     6632.096     8206.528     3278.043        1.336        0.906       79.258       62.824        0.628      349.927       30.713      859.588
09/12/2014  15:51:00       90.019     -155.614        0.946       57.118       72.352       43.569     3262.490     5234.763     1898.290        2.136        0.520      179.775       29.148        0.026      349.856       30.590      859.578
09/12/2014  15:52:00       79.165      -89.293       11.813       63.616       84.858       38.224     4046.955     7200.847     1461.070        1.354        0.635      119.333       43.410        0.132      349.701       30.320      859.562
09/12/2014  15:53:00       67.921      -41.689        9.420       75.572       84.196       50.443     5711.053     7089.016     2544.501        1.089        0.767       79.694       50.892        0.408      349.891       30.650      859.546
09/12/2014  15:54:00       -6.882      -14.876       38.291       30.582       44.007       38.521      935.287     1936.641     1483.837        0.304        0.218       16.391       30.243        3.404      350.307       31.375      859.557
09/12/2014  15:55:00      -18.589      -67.327        6.087      106.940       81.340       50.678    11436.160     6616.131     2568.245        1.276        1.031       69.846       54.754        0.615      350.026       30.886      859.588
09/12/2014  15:56:00      -70.653      -36.527       14.960      113.624       81.821       55.626    12910.448     6694.643     3094.242        1.462        1.135       79.536       52.470        0.435      349.952       30.757      859.586
09/12/2014  15:57:00      -77.532      -28.202       20.883      105.351       76.132       42.841    11098.829     5796.016     1835.390        1.298        0.937       82.502       49.794        0.364      350.028       30.889      859.596
09/12/2014  15:58:00      -84.315     -140.404        0.192       87.661      109.596       43.595     7684.377    12011.386     1900.523        2.421        1.080      163.775       49.109        0.090      349.953       30.758      859.604
09/12/2014  15:59:00      -18.515     -107.122        4.428       72.856      101.896       37.105     5307.979    10382.818     1376.755        1.445        0.853      108.711       28.728        0.070      349.891       30.651      859.599
09/12/2014  16:00:00      -10.287      -85.150        8.870       87.711      103.735       52.623     7693.291    10760.923     2769.132        1.433        1.061       85.769       63.851        0.554      349.955       30.762      859.548
09/12/2014  16:01:00     -172.790      -47.128      -14.528      109.081       73.100       40.252    11898.702     5343.661     1620.210        2.557        0.943      179.102       44.146        0.061      350.009       30.854      859.558
09/12/2014  16:02:00     -186.438     -118.808       -8.291       91.754       62.643       35.777     8418.852     3924.147     1279.970        3.128        0.681      221.076       30.813        0.019      350.157       31.110      859.553
09/12/2014  16:03:00     -187.136      -45.573        5.503      136.172       82.439       50.288    18542.761     6796.259     2528.847        3.249        1.393      192.605       64.504        0.112      350.245       31.265      859.561
09/12/2014  16:04:00     -160.562      -75.332       16.020      121.292      104.451       64.563    14711.844    10910.063     4168.369        3.075        1.490      177.356       64.873        0.134      350.221       31.223      859.582
09/12/2014  16:05:00     -140.634        8.465       -6.104       77.386       73.318       44.514     5988.573     5375.551     1981.507        1.661        0.667      140.889       41.235        0.086      350.311       31.381      859.606
09/12/2014  16:06:00     -190.642      -60.536       -1.943       91.848       97.214       48.533     8436.092     9450.501     2355.433        3.012        1.012      200.023       38.765        0.038      350.246       31.266      859.599
09/12/2014  16:07:00     -348.206      -68.284      -13.445      177.696      143.495       69.613    31575.929    20590.702     4845.907        9.154        2.851      354.838       84.408        0.057      349.950       30.750      859.594
09/12/2014  16:08:00     -182.982     -103.580       -9.897      111.060       95.947       57.390    12334.381     9205.798     3293.640        3.457        1.242      210.265       58.085        0.076      350.054       30.932      859.562
09/12/2014  16:09:00     -115.371      -48.299        3.163      133.934      101.793       53.684    17938.286    10361.901     2881.990        2.341        1.559      125.073       61.241        0.240      350.212       31.209      859.566
09/12/2014  16:10:00     -172.108      -11.441       -6.357      138.575       78.062       47.676    19202.942     6093.669     2273.028        2.868        1.378      172.488       65.662        0.145      350.404       31.541      859.570
09/12/2014  16:11:00     -275.961       -6.881      -17.482      137.397       77.193       47.510    18877.861     5958.761     2257.169        5.180        1.355      276.047       53.448        0.037      350.230       31.237      859.556
09/12/2014  16:12:00     -295.062      -67.013      -20.574      134.913      138.576       47.667    18201.540    19203.289     2272.182        6.582        1.984      302.576       50.478        0.028      350.237       31.249      859.579
09/12/2014  16:13:00     -324.786     -123.291      -11.317      161.004      133.739       77.878    25922.174    17886.234     6064.975        8.534        2.494      347.400       86.023        0.061      350.087       30.989      859.589
09/12/2014  16:14:00     -484.613      -89.760      -21.556      210.886      128.123       70.811    44472.721    16415.455     5014.188       15.463        3.295      492.856       79.194        0.026      349.909       30.680      859.565
09/12/2014  16:15:00     -225.869      -10.615       12.750      198.831      149.149       73.358    39533.855    22245.504     5381.353        5.922        3.358      226.119       84.429        0.139      350.316       31.388      859.562
09/12/2014  16:16:00     -312.571     -127.532       -5.043      157.598      142.212       67.724    24837.257    20224.133     4586.605        8.181        2.482      337.587       64.361        0.036      350.087       30.989      859.576
09/12/2014  16:17:00     -314.846     -148.489        1.036      145.147      122.026       72.403    21067.761    14890.239     5242.201        8.118        2.060      348.105       68.934        0.039      350.089       30.992      859.563
09/12/2014  16:18:00     -148.842     -199.038       -9.553      159.879      102.192       64.402    25561.316    10443.264     4147.661        5.100        2.008      248.536       83.701        0.113      350.103       31.017      859.568
09/12/2014  16:19:00     -197.493      -51.265       19.376      168.968       90.956       66.477    28550.048     8272.923     4419.133        4.162        2.062      204.039       81.002        0.158      350.262       31.294      859.551
09/12/2014  16:20:00     -164.921     -112.703        0.696      116.903      118.549       53.615    13666.246    14053.896     2874.587        3.524        1.530      199.752       55.485        0.077      350.254       31.280      859.549
09/12/2014  16:21:00     -238.464     -218.766        1.322      166.590      103.409       71.660    27752.282    10693.333     5135.148        7.415        2.179      323.611       86.133        0.071      349.982       30.806      859.543
09/12/2014  16:22:00     -365.676      -22.737      -19.786      162.711      171.320       60.059    26474.819    29350.538     3607.107        9.702        2.972      366.382       78.053        0.045      349.981       30.805      859.499
09/12/2014  16:23:00     -190.372     -205.709        5.488      127.349      215.805       64.578    16217.819    46571.840     4170.295        7.276        3.348      280.282       47.567        0.029      350.075       30.967      859.508
09/12/2014  16:24:00     -283.430     -199.513      -14.209      170.371      119.412       78.534    29026.248    14259.237     6167.550        8.489        2.473      346.609       85.535        0.061      350.132       31.066      859.509
09/12/2014  16:25:00     -223.569     -115.303       16.089      173.256      127.851       68.076    30017.721    16345.869     4634.393        5.726        2.550      251.551       72.856        0.084      350.244       31.262      859.563
09/12/2014  16:26:00     -370.516     -138.328      -16.595      169.521      149.049       79.607    28737.461    22215.638     6337.222       10.698        2.865      395.496       86.252        0.048      350.021       30.874      859.560
09/12/2014  16:27:00     -191.683     -139.616        2.274      163.665      118.486       62.133    26786.286    14038.833     3860.466        5.046        2.234      237.139       71.049        0.090      350.083       30.982      859.575
09/12/2014  16:28:00     -271.010     -172.253      -11.011      187.496      118.963       70.323    35154.566    14152.089     4945.263        7.874        2.713      321.119       66.289        0.043      350.123       31.051      859.577
09/12/2014  16:29:00     -236.260     -157.893        3.460      168.562      124.651       75.126    28413.106    15537.807     5643.912        6.517        2.480      284.164       75.466        0.071      349.937       30.730      859.587
09/12/2014  16:30:00     -128.783     -101.597       30.585      157.407      148.152       87.046    24776.886    21948.936     7577.073        4.106        2.715      164.034      100.824        0.378      350.052       30.928      859.569
09/12/2014  16:31:00     -179.661     -131.091       -7.279      161.083      156.905       76.542    25947.851    24619.086     5858.609        5.296        2.821      222.403       75.176        0.114      350.131       31.065      859.568
09/12/2014  16:32:00     -164.285     -124.273       32.791      174.592      152.672       98.717    30482.269    23308.798     9745.014        5.351        3.177      205.993      106.218        0.266      350.008       30.853      859.522
09/12/2014  16:33:00     -527.363     -104.138       -8.104      225.262      203.769       94.285    50742.948    41521.985     8889.713       19.507        5.058      537.547      108.984        0.041      349.907       30.675      859.504
09/12/2014  16:34:00     -381.828     -178.707       -7.315      218.292      165.196      101.396    47651.441    27289.883    10281.135       13.149        4.261      421.579      121.256        0.083      349.947       30.747      859.510
09/12/2014  16:35:00     -369.879     -266.482       -7.382      161.826      167.139       88.881    26187.564    27935.610     7899.892       13.494        3.101      455.876       86.254        0.036      349.928       30.712      859.514
09/12/2014  16:36:00     -280.540     -274.482      -13.277      145.105      152.010       75.966    21055.465    23107.148     5770.790       10.207        2.497      392.483       74.477        0.036      349.963       30.773      859.528
09/12/2014  16:37:00     -194.117     -238.982        1.769      125.790      160.967       75.186    15823.110    25910.439     5653.008        7.108        2.369      307.886       72.849        0.056      350.080       30.976      859.547
09/12/2014  16:38:00     -362.833     -208.474      -16.801      141.134      127.063       65.815    19918.684    16145.068     4331.672       10.789        2.020      418.460       58.239        0.019      349.981       30.804      859.538
09/12/2014  16:39:00     -255.298     -135.057        6.860      165.426      104.026       58.849    27365.751    10821.332     3463.262        6.255        2.083      288.821       75.283        0.068      350.042       30.913      859.527
09/12/2014  16:40:00     -224.023     -204.022       10.060      137.126      167.272       72.020    18803.669    27980.001     5186.933        7.193        2.599      303.004       70.169        0.054      349.995       30.831      859.526
09/12/2014  16:41:00     -476.293     -217.738       -6.726      216.052      172.576       89.706    46678.319    29782.385     8047.252       17.939        4.225      523.703       76.323        0.021      349.807       30.502      859.530
09/12/2014  16:42:00     -333.397     -161.478       -5.601      200.909      160.205       71.326    40364.499    25665.771     5087.359       10.418        3.556      370.444       71.794        0.038      349.928       30.713      859.540
09/12/2014  16:43:00     -204.551     -105.279        8.324      139.568      134.060       77.023    19479.155    17971.960     5932.516        4.818        2.169      230.054       76.094        0.109      350.038       30.903      859.565
09/12/2014  16:44:00     -312.913     -200.974      -16.030      182.710      127.279       68.443    33383.013    16199.950     4684.442        9.641        2.713      371.894       81.140        0.048      349.935       30.726      859.574
09/12/2014  16:45:00     -336.833     -226.925      -24.979      166.294      132.687       73.326    27653.811    17605.874     5376.648       10.810        2.532      406.142       84.527        0.043      349.993       30.826      859.579
09/12/2014  16:46:00     -375.299     -274.715       -9.086      196.368      202.308       86.947    38560.296    40928.343     7559.821       15.171        4.352      465.100       83.482        0.032      349.874       30.618      859.582
09/12/2014  16:47:00     -336.807     -141.636       -5.955      148.680      112.720       64.948    22105.890    12705.863     4218.202        8.628        1.951      365.376       56.435        0.024      349.876       30.622      859.595
09/12/2014  16:48:00     -304.372     -155.759      -14.088      131.097      114.631       68.585    17186.465    13140.272     4703.905        7.606        1.752      341.911       55.766        0.027      349.850       30.576      859.586
09/12/2014  16:49:00     -172.379     -224.040        9.225      205.314      126.966       77.520    42154.003    16120.463     6009.287        7.213        3.214      282.681       92.023        0.106      349.885       30.640      859.548
09/12/2014  16:50:00     -148.702      -61.796        3.488      147.615      118.491       56.443    21790.303    14040.215     3185.758        3.247        1.951      161.032       74.852        0.216      350.027       30.885      859.555
09/12/2014  16:51:00      -98.450      -74.573       27.289       99.095       77.057       49.496     9819.788     5937.767     2449.817        1.710        0.910      123.505       52.186        0.179      350.058       30.940      859.585
09/12/2014  16:52:00     -189.744     -127.079       -4.088      116.546      100.484       66.205    13582.883    10096.990     4383.073        4.011        1.403      228.368       65.607        0.083      350.040       30.907      859.587
09/12/2014  16:53:00     -326.916     -162.976      -10.713      183.137      170.227       67.626    33539.128    28977.322     4573.261       10.031        3.354      365.288       70.491        0.037      349.788       30.468      859.573
09/12/2014  16:54:00     -387.089     -201.738      -33.817      191.824      148.568       63.584    36796.398    22072.348     4042.925       12.729        3.146      436.505       63.646        0.021      349.928       30.713      859.563
09/12/2014  16:55:00     -173.259      -86.650       19.179      133.324      138.478       69.222    17775.324    19176.245     4791.749        3.981        2.087      193.719       68.950        0.127      350.160       31.115      859.586
09/12/2014  16:56:00     -237.964       40.730       -5.722      219.499      183.950       88.530    48180.005    33837.590     7837.546        7.407        4.493      241.424       97.276        0.162      349.988       30.817      859.572
09/12/2014  16:57:00     -401.969      -46.888      -30.526      183.539      130.086       92.511    33686.710    16922.293     8558.257       11.193        2.958      404.694       93.804        0.054      349.928       30.711      859.564
09/12/2014  16:58:00     -502.030      -72.567      -15.661      217.653      184.859       96.671    47372.855    34172.822     9345.217       17.420        4.545      507.248      107.361        0.045      349.850       30.578      859.557
09/12/2014  16:59:00     -373.611     -203.274      -19.165      198.748      158.556       96.067    39500.736    25139.980     9228.868       12.756        3.693      425.330      101.680        0.057      349.764       30.428      859.584
09/12/2014  17:00:00     -273.826     -181.154        8.060      213.186      162.909       99.551    45448.319    26539.262     9910.314        9.487        4.095      328.325      121.435        0.137      349.853       30.584      859.589
09/12/2014  17:01:00     -410.768     -200.270      -18.947      206.633      156.140       87.569    42697.265    24379.643     7668.250       14.196        3.737      456.988      100.122        0.048      349.829       30.540      859.633
09/12/2014  17:02:00     -237.369      -59.349        8.305      154.394      109.457       65.619    23837.397    11980.732     4305.850        5.002        2.006      244.676       74.581        0.093      349.865       30.604      859.653
09/12/2014  17:03:00     -262.648     -171.773        7.845      184.503      128.516       83.017    34041.437    16516.366     6891.785        7.799        2.872      313.831       87.273        0.077      349.780       30.456      859.647
09/12/2014  17:04:00     -200.551     -148.348       10.574      172.755      136.018       85.251    29844.120    18501.017     7267.780        5.897        2.781      249.456       92.922        0.139      349.762       30.424      859.622
09/12/2014  17:05:00     -238.198     -147.937       10.812      230.268      158.402       82.719    53023.405    25091.140     6842.439        8.183        4.248      280.399       91.840        0.107      349.851       30.581      859.635
09/12/2014  17:06:00     -476.892     -160.790      -35.998      212.482      154.290       88.237    45148.796    23805.523     7785.831       16.564        3.837      503.268       67.455        0.018      349.709       30.332      859.628
09/12/2014  17:07:00     -289.302     -132.569      -10.845      176.329       98.026       75.343    31092.017     9609.172     5676.498        7.387        2.319      318.229       76.025        0.057      349.772       30.442      859.640
09/12/2014  17:08:00     -184.274      -17.492       -1.968      120.140      121.911       58.283    14433.586    14862.173     3396.939        3.347        1.635      185.103       25.835        0.019      349.780       30.457      859.650
09/12/2014  17:09:00     -276.817      -11.642        1.436      169.057      115.491       73.139    28580.160    13338.233     5349.386        6.201        2.363      277.062       69.212        0.062      349.843       30.566      859.651
09/12/2014  17:10:00     -409.971     -124.224      -24.385      123.405      134.167       62.999    15228.865    18000.734     3968.857       11.064        1.860      428.378       58.976        0.019      349.712       30.337      859.671
09/12/2014  17:11:00     -227.379      -75.029       12.287      177.375      127.243       74.347    31461.950    16190.794     5527.540        5.532        2.659      239.438       81.729        0.117      349.765       30.430      859.653
09/12/2014  17:12:00     -248.403      -83.004       -7.045       92.431       88.521       66.443     8543.564     7836.042     4414.693        4.472        1.040      261.904       62.502        0.057      349.821       30.526      859.650
09/12/2014  17:13:00     -505.518     -161.445      -14.111      248.260      128.495       84.485    61633.256    16510.886     7137.665       18.353        4.264      530.672       96.119        0.033      349.664       30.256      859.628
09/12/2014  17:14:00     -370.819      -24.109      -36.943      163.044      151.184       75.344    26583.509    22856.453     5676.722        9.728        2.756      371.602       64.188        0.030      349.710       30.333      859.623
09/12/2014  17:15:00     -576.765       83.376      -51.643      169.330      143.389       78.136    28672.678    20560.371     6105.269       19.880        2.767      582.761       66.416        0.013      349.618       30.174      859.616
09/12/2014  17:16:00     -394.626       -9.889      -17.945      172.910      155.539       82.380    29897.862    24192.514     6786.530       10.850        3.044      394.750       71.479        0.033      349.779       30.455      859.581
09/12/2014  17:17:00     -359.871      -80.405       -3.591      209.418      137.902       84.475    43856.033    19016.919     7136.033       10.299        3.500      368.744       97.332        0.070      349.800       30.490      859.608
09/12/2014  17:18:00     -219.247     -120.473        0.494      140.614       98.625       67.166    19772.199     9726.953     4511.305        4.829        1.701      250.166       60.492        0.058      349.843       30.566      859.650
09/12/2014  17:19:00     -179.145      -67.463      -18.297      192.551      106.264       52.044    37076.059    11292.060     2708.595        4.402        2.554      191.427       54.972        0.082      349.924       30.708      859.660
09/12/2014  17:20:00     -309.284     -128.643        2.083      213.676      177.462       91.344    45657.394    31492.740     8343.643        9.884        4.275      334.971       96.194        0.082      349.791       30.475      859.639
09/12/2014  17:21:00     -360.940     -147.545        8.508      249.711      150.708      106.926    62355.560    22713.034    11433.133       12.429        4.825      389.933      128.566        0.109      349.736       30.379      859.642
09/12/2014  17:22:00     -555.612     -113.142      -52.053      217.978      132.434       92.629    47514.278    17538.648     8580.186       19.891        3.682      567.015      105.480        0.035      349.593       30.133      859.664
09/12/2014  17:23:00     -320.174     -181.624       -1.256      155.522      135.059       80.366    24187.136    18240.839     6458.716        9.219        2.444      368.102       80.636        0.048      349.642       30.217      859.682
09/12/2014  17:24:00     -243.012      -72.132      -12.076      100.058       84.501       52.924    10011.538     7140.499     2800.959        4.218        0.998      253.492       51.701        0.042      349.696       30.308      859.673
09/12/2014  17:25:00     -198.376     -178.879        8.097      159.099      125.732       75.099    25312.434    15808.481     5639.885        5.908        2.338      267.115       91.261        0.117      349.632       30.199      859.634
09/12/2014  17:26:00     -131.490     -106.232       -1.028      116.763       90.095       61.815    13633.506     8117.121     3821.138        2.707        1.279      169.041       71.970        0.181      349.715       30.342      859.650
09/12/2014  17:27:00     -197.994      -15.060        4.195      162.943      104.583       58.200    26550.444    10937.607     3387.276        4.015        2.044      198.566       63.749        0.103      349.767       30.435      859.633
09/12/2014  17:28:00     -396.446     -158.924      -19.358      205.917      223.973       90.089    42401.710    50164.038     8115.970       14.172        5.034      427.113       90.231        0.045      349.610       30.161      859.657
09/12/2014  17:29:00     -233.445      -53.637       -2.788      149.612      138.097       71.979    22383.660    19070.898     5181.031        5.200        2.332      239.527       75.003        0.098      349.708       30.330      859.639
09/12/2014  17:30:00     -319.287     -122.911        7.434      194.632      176.241       94.953    37881.768    31061.015     9016.031        9.752        3.898      342.128      102.210        0.089      349.643       30.218      859.656
09/12/2014  17:31:00     -410.857      -76.591      -17.547      198.346      161.084       88.961    39341.019    25948.198     7914.007       12.408        3.660      417.935       91.999        0.048      349.600       30.143      859.663
09/12/2014  17:32:00     -308.048      -56.113       -5.393      155.334      114.803       65.349    24128.744    13179.836     4270.473        6.982        2.079      313.117       72.221        0.053      349.664       30.255      859.680
09/12/2014  17:33:00     -297.518     -123.789       -9.904      184.334      151.314       79.049    33979.172    22895.776     6248.666        8.352        3.156      322.243       89.845        0.078      349.639       30.213      859.667
09/12/2014  17:34:00     -188.822      -74.573       17.919      173.623      138.545       78.725    30145.021    19194.584     6197.563        4.853        2.777      203.014       92.908        0.209      349.667       30.261      859.679
09/12/2014  17:35:00     -290.146      -99.392       -6.389      150.447      137.287       61.517    22634.420    18847.675     3784.333        6.968        2.263      306.698       66.893        0.048      349.661       30.249      859.692
09/12/2014  17:36:00     -204.057     -132.684       15.567      216.180      160.850       99.510    46733.660    25872.786     9902.229        7.098        4.125      243.402      105.166        0.187      349.586       30.120      859.678
09/12/2014  17:37:00     -385.837     -162.555      -18.248      175.627      156.596       76.264    30844.811    24522.405     5816.147       11.840        3.059      418.682       73.911        0.031      349.487       29.947      859.673
09/12/2014  17:38:00     -323.237     -101.540        6.142      213.300      174.809       93.928    45496.967    30558.282     8822.496        9.984        4.244      338.810      103.620        0.094      349.531       30.025      859.653
09/12/2014  17:39:00     -232.704       -2.817        4.676      138.490      131.929       65.653    19179.475    17405.392     4310.359        4.753        2.045      232.721       68.210        0.086      349.560       30.073      859.660
09/12/2014  17:40:00     -321.705      -69.499      -12.560      183.652      106.447       74.970    33728.019    11330.869     5620.532        7.957        2.534      329.127       84.269        0.066      349.597       30.138      859.660
09/12/2014  17:41:00     -406.820       14.948      -23.181      178.096      116.578       75.460    31718.233    13590.357     5694.202       10.862        2.550      407.094       82.795        0.041      349.487       29.947      859.649
09/12/2014  17:42:00     -436.414     -100.056      -26.310      148.656      185.277       82.768    22098.676    34327.529     6850.590       13.221        3.164      447.737       82.241        0.034      349.476       29.928      859.630
09/12/2014  17:43:00     -353.120     -112.581      -16.045      235.067      149.819       84.138    55256.373    22445.627     7079.181       11.119        4.239      370.632      100.402        0.073      349.543       30.044      859.640
09/12/2014  17:44:00     -348.444      -92.465      -16.120      129.781      138.112       68.216    16843.162    19075.059     4653.363        8.539        2.029      360.504       50.270        0.019      349.559       30.073      859.617
09/12/2014  17:45:00     -342.454     -131.822       -7.212      126.280      116.104       56.765    15946.711    13480.070     3222.293        8.367        1.632      366.949       56.005        0.023      349.574       30.099      859.644
09/12/2014  17:46:00     -370.650      -25.746       -0.329      238.362      163.299       87.765    56816.280    26666.686     7702.613       11.460        4.559      371.543      114.002        0.094      349.506       29.981      859.633
09/12/2014  17:47:00     -499.847     -125.189      -34.668      191.823      115.201       83.807    36795.987    13271.244     7023.674       16.190        2.855      515.286       77.624        0.023      349.449       29.880      859.628
09/12/2014  17:48:00     -258.502     -153.768        0.783      201.599      148.513       88.910    40642.176    22056.131     7905.053        8.052        3.530      300.779      101.039        0.113      349.454       29.891      859.628
09/12/2014  17:49:00     -121.690      -62.123       29.976      128.913      107.682       79.584    16618.671    11595.404     6333.626        2.705        1.727      136.630       74.542        0.298      349.557       30.071      859.611
09/12/2014  17:50:00     -298.469        7.725      -14.240      140.757      118.214       70.461    19812.460    13974.604     4964.789        6.404        1.938      298.569       67.704        0.051      349.543       30.046      859.612
09/12/2014  17:51:00     -311.365      -44.848      -17.604      213.268      113.759       74.594    45483.152    12941.030     5564.263        8.162        3.199      314.578      103.582        0.108      349.518       30.000      859.609
09/12/2014  17:52:00     -239.064      -53.677       -3.446      165.975      108.614       65.267    27547.639    11797.052     4259.841        5.182        2.180      245.016       66.103        0.073      349.501       29.972      859.606
09/12/2014  17:53:00     -235.953     -187.870       -3.805      121.356      103.088       70.095    14727.234    10627.166     4913.348        6.062        1.513      301.611       55.879        0.034      349.485       29.943      859.617
09/12/2014  17:54:00     -274.379      -53.495       -3.765      148.424      133.365       71.053    22029.818    17786.296     5048.464        6.150        2.243      279.545       78.411        0.079      349.477       29.930      859.604
09/12/2014  17:55:00     -419.609     -149.029      -10.817      244.083      138.267       95.309    59576.491    19117.725     9083.723       14.307        4.389      445.288      110.233        0.061      349.372       29.748      859.599
09/12/2014  17:56:00     -346.379     -205.504        9.874      255.882      161.831      102.507    65475.362    26189.187    10507.708       13.222        5.109      402.753      118.715        0.087      349.373       29.749      859.586
09/12/2014  17:57:00     -334.787      -64.569      -12.297      146.339      123.563       64.687    21414.971    15267.866     4184.368        7.863        2.043      340.957       56.906        0.028      349.391       29.781      859.599
09/12/2014  17:58:00     -443.910     -134.998        0.429      276.080      130.369       91.278    76220.007    16995.980     8331.723       15.840        5.077      463.984      120.483        0.067      349.315       29.650      859.578
09/12/2014  17:59:00     -292.977     -187.548        6.136      209.877      150.674       86.393    44048.368    22702.599     7463.788        9.762        3.711      347.864      102.072        0.086      349.356       29.720      859.566
09/12/2014  18:00:00     -343.625     -207.448      -31.012      140.389      139.814       68.379    19708.948    19548.090     4675.692       10.300        2.197      401.389       60.836        0.023      349.297       29.618      859.564
09/12/2014  18:01:00     -405.929     -227.581      -15.002      155.879      153.598       79.187    24298.335    23592.291     6270.659       13.547        2.708      465.373       61.746        0.018      349.302       29.629      859.560
09/12/2014  18:02:00     -383.499     -227.397      -10.384      151.764      120.406       78.838    23032.438    14497.680     6215.465       12.131        2.187      445.849       73.636        0.027      349.272       29.576      859.571
09/12/2014  18:03:00     -340.025     -155.766       -6.148      182.006      133.691       76.750    33126.130    17873.204     5890.622        9.839        2.844      374.006       90.364        0.058      349.281       29.592      859.561
09/12/2014  18:04:00     -294.483      -93.869        7.445      235.766      139.489       75.729    55585.770    19457.251     5734.885        8.817        4.039      309.081      100.644        0.106      349.268       29.570      859.550
09/12/2014  18:05:00     -299.645      -92.991       -7.112      167.107      124.457       80.222    27924.735    15489.590     6435.533        7.416        2.492      313.743       92.057        0.086      349.293       29.612      859.532
09/12/2014  18:06:00     -374.354     -201.295       -1.293      219.380      157.190       97.448    48127.734    24708.821     9496.109       13.148        4.117      425.041      110.145        0.067      349.254       29.543      859.504
09/12/2014  18:07:00     -367.441     -233.263       -3.556      233.835      177.385      106.546    54678.610    31465.388    11352.014       14.345        4.875      435.229      122.511        0.079      349.239       29.518      859.533
09/12/2014  18:08:00     -323.114     -171.753       -5.934      125.521      134.875       64.708    15755.453    18191.145     4187.128        8.603        1.907      365.926       52.793        0.021      349.262       29.558      859.554
09/12/2014  18:09:00     -275.671     -151.215       -5.152      119.693      133.683       65.266    14326.439    17871.236     4259.636        6.767        1.823      314.420       66.442        0.045      349.284       29.596      859.564
09/12/2014  18:10:00     -395.803      -27.785      -19.213      160.144      142.474       73.383    25646.031    20298.824     5385.121       10.456        2.566      396.777       82.583        0.043      349.258       29.552      859.558
09/12/2014  18:11:00     -300.359     -120.626      -20.420      208.193      123.910       81.636    43344.473    15353.724     6664.411        8.526        3.268      323.676      104.437        0.104      349.227       29.496      859.533
09/12/2014  18:12:00     -315.030      -91.528      -15.963      214.737       96.438       73.478    46111.930     9300.306     5399.065        8.433        3.041      328.057       90.480        0.076      349.224       29.493      859.533
09/12/2014  18:13:00     -291.737     -100.275       -2.776      174.566      113.608       62.235    30473.307    12906.743     3873.137        7.121        2.363      308.489       67.861        0.048      349.210       29.469      859.538
09/12/2014  18:14:00     -294.191     -133.677      -12.026      151.653      105.644       61.098    22998.508    11160.591     3732.965        7.122        1.895      323.137       66.421        0.042      349.215       29.476      859.535
09/12/2014  18:15:00     -241.850      -90.318      -13.186      146.664       90.372       64.650    21510.360     8167.038     4179.593        5.033        1.693      258.164       67.035        0.067      349.218       29.482      859.548
09/12/2014  18:16:00     -403.960     -104.397       -6.354      241.869      178.134       94.310    58500.604    31731.554     8894.433       13.661        4.956      417.231      113.516        0.074      349.151       29.365      859.543
09/12/2014  18:17:00     -210.282     -124.786       10.437      151.844      128.981       84.276    23056.569    16636.090     7102.489        5.334        2.340      244.520       87.474        0.128      349.152       29.367      859.549
09/12/2014  18:18:00     -268.491      -40.073       -8.915      166.593       94.893       63.594    27753.295     9004.669     4044.169        5.728        2.040      271.465       74.374        0.075      349.152       29.368      859.560
09/12/2014  18:19:00     -203.444        3.935       -9.198       96.433       84.604       59.277     9299.326     7157.843     3513.816        3.073        0.999      203.483       53.123        0.068      349.180       29.416      859.563
09/12/2014  18:20:00     -210.739     -124.480       -5.033      124.503      144.172       69.246    15500.962    20785.423     4795.046        5.050        2.054      244.758       76.297        0.097      349.124       29.318      859.561
09/12/2014  18:21:00     -216.497      -64.431       -5.759      169.805      111.661       74.845    28833.757    12468.158     5601.847        4.897        2.345      225.881       90.568        0.161      349.129       29.327      859.561
09/12/2014  18:22:00     -283.523     -148.568       -5.828      165.790      143.706       72.987    27486.175    20651.508     5327.105        7.797        2.673      320.090       76.191        0.057      349.081       29.244      859.555
09/12/2014  18:23:00     -352.410     -207.891       -6.806      259.340      207.233       90.671    67257.447    42945.639     8221.297       14.292        5.921      409.159      106.796        0.068      349.064       29.214      859.549
09/12/2014  18:24:00     -320.094     -147.175      -10.529      141.304      127.894       70.928    19966.787    16356.781     5030.851        8.279        2.068      352.308       67.490        0.037      349.091       29.260      859.554
09/12/2014  18:25:00     -338.522     -135.503        0.338      173.251      147.430       84.708    30015.937    21735.589     7175.436        9.593        2.946      364.634       91.546        0.063      349.057       29.200      859.556
09/12/2014  18:26:00     -305.871     -131.950       -5.569      164.187      112.245       59.480    26957.408    12598.925     3537.928        7.704        2.155      333.119       72.062        0.047      349.086       29.251      859.567
09/12/2014  18:27:00     -414.035     -269.625      -33.630      187.055      145.557       78.484    34989.593    21186.713     6159.791       15.378        3.117      494.088       78.078        0.025      349.046       29.182      859.565
09/12/2014  18:28:00     -273.631     -148.756      -10.323      160.125      151.133       64.752    25639.907    22841.174     4192.828        7.488        2.634      311.451       65.300        0.044      349.047       29.186      859.565
09/12/2014  18:29:00     -230.475     -115.385        1.493      122.837      100.734       53.319    15088.918    10147.255     2842.865        4.725        1.404      257.745       63.380        0.060      349.038       29.168      859.570
09/12/2014  18:30:00     -275.466      -98.718      -10.285      180.936      122.370       78.837    32737.777    14974.334     6215.292        6.982        2.696      292.621       71.083        0.059      349.014       29.129      859.591
09/12/2014  18:31:00     -335.076     -147.563        6.499      169.308      157.984       81.271    28665.219    24959.079     6604.965        9.715        3.011      366.129       87.482        0.057      349.011       29.122      859.581
09/12/2014  18:32:00     -314.493     -135.628       -7.905      200.750      151.873       82.229    40300.577    23065.397     6761.644        9.373        3.506      342.492       90.440        0.070      348.981       29.072      859.584
09/12/2014  18:33:00     -309.083     -198.844        9.456      216.561      152.873       97.326    46898.456    23370.093     9472.314       10.744        3.987      367.521      104.563        0.081      348.946       29.009      859.575
09/12/2014  18:34:00     -391.481     -177.597       -6.696      192.726      176.706       95.100    37143.424    31225.145     9043.932       13.111        3.871      429.881       93.849        0.048      348.897       28.926      859.569
09/12/2014  18:35:00     -303.834      -90.302       -4.944      166.867      136.415       74.908    27844.444    18608.968     5611.143        7.627        2.603      316.970       80.092        0.064      348.882       28.900      859.588
09/12/2014  18:36:00     -337.868     -208.697       -3.712      182.368      171.040       93.252    33258.201    29254.546     8695.900       11.445        3.560      397.126      102.821        0.067      348.888       28.911      859.581
09/12/2014  18:37:00     -329.180     -214.976        3.553      204.675      175.025      105.741    41891.788    30633.727    11181.101       11.913        4.185      393.159      118.357        0.091      348.842       28.828      859.570
09/12/2014  18:38:00     -312.939     -221.674       -9.847      186.462      134.957       98.803    34768.097    18213.293     9762.087       10.494        3.137      383.497       92.633        0.058      348.835       28.817      859.582
09/12/2014  18:39:00     -266.754     -156.492       -4.237      176.017      132.604       81.220    30981.918    17583.881     6596.609        7.540        2.758      309.269       72.417        0.055      348.851       28.843      859.578
09/12/2014  18:40:00     -208.277     -100.793       17.902      164.109      138.428       73.478    26931.643    19162.178     5399.081        5.267        2.575      231.384       81.274        0.123      348.830       28.808      859.583
09/12/2014  18:41:00     -249.653     -134.961        7.431      252.938      133.139       96.027    63977.426    17725.862     9221.198        8.575        4.546      283.798      121.894        0.184      348.788       28.735      859.574
09/12/2014  18:42:00     -449.627     -233.506      -33.451      163.785      167.157       91.218    26825.666    27941.314     8320.777       16.044        3.154      506.645       76.353        0.023      348.799       28.755      859.570
09/12/2014  18:43:00     -390.494     -162.715      -13.724      205.253      190.629      102.443    42128.643    36339.323    10494.472       13.404        4.448      423.039      107.344        0.064      348.786       28.732      859.573
09/12/2014  18:44:00     -351.403     -160.637      -26.194      171.342      149.603       77.579    29357.969    22381.007     6018.455       10.386        2.888      386.378       86.550        0.050      348.774       28.712      859.582
09/12/2014  18:45:00     -331.396     -185.276        9.822      216.527      162.751       87.305    46884.105    26488.012     7622.120       11.261        4.050      379.672       98.929        0.068      348.770       28.707      859.593
09/12/2014  18:46:00     -348.974     -236.876      -10.221      188.186      169.591       94.154    35413.865    28761.121     8864.913       12.551        3.652      421.773      107.341        0.065      348.736       28.646      859.586
09/12/2014  18:47:00     -317.149     -172.458       -5.116      169.359      145.290       75.916    28682.626    21109.276     5763.290        9.294        2.778      361.006       72.910        0.041      348.716       28.613      859.599
09/12/2014  18:48:00     -269.462     -201.069        7.507      185.260      144.555       93.531    34321.239    20896.157     8748.120        8.852        3.198      336.212       99.708        0.088      348.661       28.516      859.583
09/12/2014  18:49:00     -246.426     -118.585       -1.264      153.169      112.423       60.711    23460.651    12638.832     3685.841        5.728        1.989      273.474       68.545        0.063      348.668       28.528      859.594
09/12/2014  18:50:00     -270.651     -129.131       -4.066      108.662      106.990       56.236    11807.426    11446.836     3162.442        5.818        1.321      299.878       61.638        0.042      348.637       28.476      859.614
09/12/2014  18:51:00     -289.398     -165.582       -1.248      188.423      113.705       68.851    35503.140    12928.847     4740.477        8.216        2.659      333.419       75.906        0.052      348.610       28.428      859.608
09/12/2014  18:52:00     -278.193     -138.508       -8.839      188.526      132.814       81.869    35541.906    17639.661     6702.481        7.826        2.994      310.767       84.379        0.074      348.609       28.426      859.595
09/12/2014  18:53:00     -232.365     -198.050        3.144      175.828      140.214       90.875    30915.407    19659.880     8258.176        7.602        2.942      305.315       98.994        0.105      348.565       28.350      859.592
09/12/2014  18:54:00     -343.652     -156.856      -11.438      135.528      133.572       73.967    18367.931    17841.585     5471.180        9.225        2.084      377.757       69.145        0.034      348.587       28.388      859.600
09/12/2014  18:55:00     -289.098     -100.508        6.337      187.206      157.430       82.355    35046.015    24784.316     6782.369        8.016        3.331      306.072       92.501        0.091      348.524       28.280      859.589
09/12/2014  18:56:00     -179.531      -52.841       13.587      155.027      135.029       81.077    24033.302    18232.960     6573.551        4.202        2.442      187.146       87.646        0.219      348.515       28.266      859.592
09/12/2014  18:57:00     -185.992     -102.338       26.239      170.730      135.248      103.186    29148.806    18292.033    10647.359        5.191        2.904      212.288      109.916        0.268      348.468       28.184      859.572
09/12/2014  18:58:00     -257.749     -105.999        3.508      205.091      183.455       89.961    42062.321    33655.566     8093.041        8.073        4.191      278.694      110.782        0.158      348.507       28.250      859.578
09/12/2014  18:59:00     -317.740     -154.407      -21.694      155.932      127.576       69.531    24314.717    16275.603     4834.617        8.534        2.271      353.271       60.395        0.029      348.491       28.222      859.592
09/12/2014  19:00:00     -289.910     -114.615        0.432      190.353      121.626       71.590    36234.176    14792.980     5125.146        7.666        2.808      311.744       83.225        0.071      348.476       28.195      859.583
09/12/2014  19:01:00     -200.522      -91.779       14.112      158.918      108.671       62.191    25255.035    11809.495     3867.768        4.488        2.047      220.527       63.431        0.083      348.413       28.088      859.584
09/12/2014  19:02:00     -274.121      -69.340       -6.277      141.445       90.818       63.322    20006.629     8247.920     4009.678        5.612        1.613      282.755       62.701        0.049      348.427       28.112      859.600
09/12/2014  19:03:00     -208.918     -130.974       -3.934      143.878       96.216       74.805    20700.999     9257.436     5595.786        4.818        1.778      246.578       77.704        0.099      348.381       28.032      859.601
09/12/2014  19:04:00     -233.714      -91.913       -3.301      161.717      162.684       72.064    26152.379    26466.088     5193.164        6.044        2.891      251.138       65.211        0.067      348.362       27.999      859.590
09/12/2014  19:05:00     -245.414     -208.856       -8.521      154.228      117.206       74.377    23786.427    13737.266     5531.880        7.348        2.153      322.256       63.686        0.039      348.380       28.030      859.594
09/12/2014  19:06:00     -355.342      -49.977      -12.607      145.322      142.761       68.377    21118.492    20380.632     4675.398        8.754        2.309      358.840       73.221        0.042      348.349       27.975      859.622
09/12/2014  19:07:00     -260.259     -117.979      -10.075      177.094      130.709       61.749    31362.128    17084.845     3812.884        6.700        2.613      285.751       77.248        0.073      348.303       27.898      859.619
09/12/2014  19:08:00     -147.142      -86.208       10.929      105.967      134.390       59.657    11228.974    18060.717     3558.994        3.102        1.642      170.536       55.090        0.104      348.268       27.837      859.603
09/12/2014  19:09:00     -215.407     -159.530        6.735      196.798      151.519       86.668    38729.440    22958.088     7511.323        7.054        3.460      268.049      102.355        0.146      348.239       27.786      859.625
09/12/2014  19:10:00     -161.816      -26.635        3.129      105.366       87.085       57.585    11101.941     7583.801     3316.049        2.445        1.100      163.993       62.082        0.143      348.196       27.713      859.605
09/12/2014  19:11:00     -209.566     -107.269       19.438      178.716      145.670       86.266    31939.282    21219.653     7441.879        5.819        3.030      235.424       98.611        0.175      348.203       27.725      859.594
09/12/2014  19:12:00     -285.446      -58.490       -9.256      194.575      115.947       59.181    37859.299    13443.789     3502.380        6.989        2.740      291.377       69.134        0.056      348.224       27.761      859.603
09/12/2014  19:13:00     -310.879      -59.159       -5.580      154.892      103.673       68.131    23991.648    10747.988     4641.848        6.977        1.969      316.458       75.313        0.057      348.211       27.738      859.586
09/12/2014  19:14:00     -285.833     -140.173       -7.371      169.657      109.874       65.504    28783.573    12072.228     4290.717        7.327        2.257      318.354       79.300        0.062      348.162       27.654      859.586
09/12/2014  19:15:00     -389.156      -97.476       -8.388      148.254      103.466       78.852    21979.355    10705.117     6217.672        9.995        1.945      401.178       80.234        0.040      348.175       27.676      859.591
09/12/2014  19:16:00     -310.645      -27.532      -16.850      164.962      109.918       57.070    27212.409    12082.057     3257.013        7.004        2.128      311.862       70.650        0.051      348.147       27.627      859.586
09/12/2014  19:17:00     -158.412      -74.947        8.184      152.958      101.806       72.235    23396.288    10364.415     5217.883        3.487        1.949      175.247       87.555        0.250      348.078       27.510      859.589
09/12/2014  19:18:00     -330.834     -155.320      -22.183      151.148      122.260       63.961    22845.754    14947.402     4091.056        8.797        2.094      365.479       64.770        0.031      348.100       27.546      859.584
09/12/2014  19:19:00     -180.849     -103.815        7.044      125.526      100.072       57.587    15756.836    10014.490     3316.232        3.631        1.454      208.527       68.342        0.107      348.069       27.492      859.597
09/12/2014  19:20:00     -372.491     -163.223      -14.180      157.441      108.580       64.141    24787.707    11789.534     4114.086       10.314        2.035      406.684       66.524        0.027      348.090       27.528      859.596
09/12/2014  19:21:00     -258.894      -94.923        4.366       92.792       99.746       57.039     8610.363     9949.295     3253.423        4.893        1.091      275.747       55.118        0.040      348.011       27.391      859.616
09/12/2014  19:22:00     -190.865      -89.227       10.611      188.847      108.864       72.099    35663.320    11851.349     5198.224        4.860        2.636      210.691       86.254        0.168      348.011       27.394      859.606
09/12/2014  19:23:00     -154.454      -59.065       -4.309      115.137       93.488       59.284    13256.438     8740.053     3514.615        2.643        1.276      165.363       57.627        0.121      347.996       27.367      859.620
09/12/2014  19:24:00     -207.489      -93.711       -9.126      134.166      124.632       59.471    18000.631    15533.082     3536.786        4.449        1.854      227.669       61.257        0.072      347.951       27.290      859.620
09/12/2014  19:25:00     -340.711       -0.442      -19.437      150.925      125.840       76.682    22778.226    15835.621     5880.137        8.047        2.225      340.711       85.247        0.063      347.943       27.275      859.609
09/12/2014  19:26:00     -316.082     -148.886       -0.207      129.550      111.823       66.747    16783.275    12504.458     4455.130        7.790        1.687      349.392       70.450        0.041      347.938       27.267      859.608
09/12/2014  19:27:00     -302.447     -124.463       -3.645      171.721      137.049       70.864    29487.994    18782.331     5021.734        8.013        2.665      327.055       81.585        0.062      347.910       27.218      859.618
09/12/2014  19:28:00     -317.988     -154.191      -12.234      122.864      131.178       62.221    15095.449    17207.645     3871.394        8.060        1.809      353.399       61.238        0.030      347.952       27.290      859.617
09/12/2014  19:29:00     -328.622      -71.923      -12.516      191.273      157.242       71.655    36585.383    24725.147     5134.411        8.987        3.322      336.401       87.905        0.068      347.909       27.217      859.624
09/12/2014  19:30:00     -284.120     -143.432      -14.923      184.749      128.266       77.479    34132.237    16452.201     6002.970        7.904        2.829      318.272      107.052        0.113      347.935       27.262      859.620
09/12/2014  19:31:00     -281.194     -122.287       -2.117      144.169      106.260       57.936    20784.618    11291.166     3356.579        6.472        1.772      306.634       54.051        0.031      347.920       27.236      859.639
09/12/2014  19:32:00     -260.794      -27.063        2.296      164.686      145.983       66.504    27121.606    21311.141     4422.800        6.079        2.643      262.194       75.489        0.083      347.908       27.215      859.645
09/12/2014  19:33:00     -135.190     -118.404       13.248      153.575      147.675       85.482    23585.191    21807.863     7307.108        4.258        2.635      179.710       88.128        0.240      347.879       27.163      859.630
09/12/2014  19:34:00     -210.110      -91.479        2.151      195.399      119.731       75.291    38180.797    14335.606     5668.782        5.534        2.909      229.161       94.888        0.171      347.856       27.126      859.640
09/12/2014  19:35:00     -241.626       -6.490       -2.495      121.193       95.897       64.399    14687.629     9196.202     4147.199        4.323        1.402      241.713       60.045        0.062      347.902       27.204      859.660
09/12/2014  19:36:00     -320.653      -30.357      -31.652      189.729      116.634       81.980    35996.975    13603.416     6720.791        8.052        2.816      322.086       93.004        0.083      347.894       27.190      859.661
09/12/2014  19:37:00     -233.760     -100.967       -3.023      174.110       97.332       73.595    30314.443     9473.594     5416.157        5.502        2.260      254.633       75.159        0.087      347.834       27.088      859.663
09/12/2014  19:38:00     -207.148      -60.631       -7.099      100.012      108.961       58.069    10002.450    11872.515     3372.034        3.594        1.262      215.839       55.705        0.067      347.784       27.000      859.675
09/12/2014  19:39:00     -266.584     -144.515        7.005      194.567      125.649       73.765    37856.292    15787.640     5441.245        7.553        2.954      303.235       93.729        0.096      347.817       27.056      859.689
09/12/2014  19:40:00     -244.817      -40.849       -3.593      141.715      118.259       72.242    20083.245    13985.294     5218.906        5.045        1.964      248.201       72.264        0.085      347.805       27.037      859.704
09/12/2014  19:41:00     -272.269        5.446       -5.893      170.369      104.624       62.601    29025.454    10946.164     3918.912        5.904        2.195      272.323       72.033        0.070      347.790       27.011      859.706
09/12/2014  19:42:00     -187.444      -78.513       -4.237      145.188      103.466       66.946    21079.592    10705.127     4481.701        3.879        1.813      203.223       80.306        0.156      347.720       26.892      859.715
09/12/2014  19:43:00     -334.497      -29.982      -17.456      121.936       94.164       73.592    14868.282     8866.924     5415.714        7.112        1.458      335.838       71.993        0.046      347.785       27.002      859.706
09/12/2014  19:44:00     -364.333     -103.305      -23.951      175.255      107.812       70.983    30714.482    11623.468     5038.635        9.567        2.369      378.695       72.191        0.036      347.760       26.959      859.725
09/12/2014  19:45:00     -230.609      -58.712       16.985      189.661      120.012       82.922    35971.156    14402.785     6876.026        5.707        2.862      237.966      101.739        0.183      347.693       26.844      859.731
09/12/2014  19:46:00     -212.496      -89.687      -21.991       97.092       80.332       52.733     9426.921     6453.308     2780.737        3.617        0.933      230.647       43.002        0.035      347.711       26.876      859.736
09/12/2014  19:47:00     -246.710      -80.348      -12.467      116.702      121.781       60.569    13619.254    14830.720     3668.560        4.979        1.606      259.464       63.775        0.060      347.711       26.876      859.756
09/12/2014  19:48:00     -376.237     -113.418      -22.606      175.350      132.451       75.029    30747.656    17543.157     5629.403       10.442        2.696      392.960       82.810        0.044      347.737       26.920      859.761
09/12/2014  19:49:00     -227.944      -89.346       -7.285      101.624       97.765       56.990    10327.404     9557.983     3247.879        4.156        1.157      244.829       49.808        0.041      347.724       26.898      859.775
09/12/2014  19:50:00     -327.446     -146.346      -13.187      143.782      128.841       64.500    20673.139    16600.106     4160.231        8.512        2.072      358.661       66.192        0.034      347.714       26.880      859.767
09/12/2014  19:51:00     -342.261     -114.712      -21.110      178.698      157.539       73.920    31932.960    24818.466     5464.167        9.647        3.111      360.973       78.122        0.047      347.690       26.838      859.764
09/12/2014  19:52:00     -225.891      -85.113       11.211      163.599      132.624       76.344    26764.599    17589.143     5828.458        5.428        2.509      241.394       80.655        0.112      347.671       26.806      859.755
09/12/2014  19:53:00     -209.114     -112.386       -4.904      163.711      120.639       81.475    26801.376    14553.779     6638.238        5.218        2.400      237.401       90.102        0.144      347.644       26.760      859.753
09/12/2014  19:54:00     -192.352      -72.016        3.791      117.053      111.706       70.255    13701.297    12478.335     4935.776        3.665        1.556      205.391       63.566        0.096      347.587       26.662      859.769
09/12/2014  19:55:00     -172.636      -67.940       17.960      198.560      105.314       71.861    39425.889    11090.957     5163.982        4.520        2.784      185.523       90.388        0.237      347.570       26.633      859.751
09/12/2014  19:56:00     -345.396     -109.178        0.001      208.499      157.553       94.449    43471.955    24822.889     8920.525       10.420        3.861      362.240       93.573        0.067      347.624       26.725      859.762
09/12/2014  19:57:00     -303.771     -180.605       -7.158      183.083      138.586       81.498    33519.435    19205.984     6641.855        9.215        2.968      353.405       93.233        0.070      347.616       26.711      859.768
09/12/2014  19:58:00     -256.758     -110.888        5.846      113.242       91.387       55.924    12823.698     8351.652     3127.487        5.127        1.215      279.680       61.572        0.048      347.556       26.608      859.800
09/12/2014  19:59:00     -323.109      -38.590        6.876      201.047      159.049      100.875    40419.872    25296.627    10175.866        9.090        3.795      325.405      110.024        0.114      347.593       26.673      859.783
09/12/2014  20:00:00     -428.947     -126.699      -24.784      175.582      117.381       75.388    30829.093    13778.374     5683.414       12.547        2.515      447.268       83.447        0.035      347.640       26.751      859.819
09/12/2014  20:01:00     -380.447     -102.067      -10.653      158.419      116.472       75.745    25096.540    13565.685     5737.356        9.983        2.220      393.901       66.176        0.028      347.620       26.718      859.812
09/12/2014  20:02:00     -236.631        4.318       -4.950      195.428       88.608       72.827    38192.043     7851.407     5303.818        5.368        2.567      236.670       84.092        0.126      347.547       26.594      859.821
09/12/2014  20:03:00     -297.868      -91.255      -12.276      129.768       93.156       62.387    16839.764     8678.023     3892.123        6.330        1.470      311.533       68.394        0.048      347.591       26.666      859.845
09/12/2014  20:04:00     -268.846      -80.778        4.832      162.991      103.599       65.846    26566.022    10732.787     4335.755        6.022        2.082      280.719       72.503        0.067      347.588       26.664      859.842
09/12/2014  20:05:00     -267.795      -94.703       -6.071      150.273      116.011       61.531    22582.048    13458.516     3786.100        6.027        1.991      284.047       74.407        0.069      347.561       26.616      859.834
09/12/2014  20:06:00     -318.503     -127.777       -1.942      204.498      153.822       83.396    41819.473    23661.074     6954.963        9.509        3.622      343.178       95.256        0.077      347.588       26.663      859.813
09/12/2014  20:07:00     -382.840      -95.639      -14.022      167.009      174.723       72.135    27891.947    30528.164     5203.527       10.976        3.181      394.606       66.526        0.028      347.621       26.720      859.821
09/12/2014  20:08:00     -114.284      -41.172       27.176      150.585      134.856       81.156    22675.755    18186.082     6586.218        3.146        2.372      121.474       77.024        0.402      347.539       26.578      859.821
09/12/2014  20:09:00     -261.230      -93.391       -9.384      119.190      119.493       61.605    14206.357    14278.491     3795.137        5.466        1.614      277.422       56.970        0.042      347.540       26.580      859.821
09/12/2014  20:10:00     -309.066      -48.750       -9.252      138.968      118.001       78.356    19312.020    13924.305     6139.626        6.867        1.969      312.887       71.718        0.053      347.534       26.571      859.830
09/12/2014  20:11:00     -365.414     -132.276       -9.236      182.712      119.178       76.045    33383.602    14203.286     5782.792       10.223        2.668      388.619       81.144        0.044      347.549       26.596      859.842
09/12/2014  20:12:00     -328.367     -178.952      -30.878      184.056      148.142       85.472    33876.751    21945.950     7305.484       10.195        3.156      373.963       83.143        0.049      347.554       26.605      859.826
09/12/2014  20:13:00     -216.614     -124.856        1.883      134.426      111.112       68.714    18070.379    12345.800     4721.556        4.882        1.757      250.022       73.005        0.085      347.491       26.495      859.845
09/12/2014  20:14:00     -386.074     -130.352      -20.268      227.282      152.167       93.494    51657.059    23154.829     8741.069       12.499        4.178      407.486      110.756        0.074      347.530       26.563      859.842
09/12/2014  20:15:00     -263.578      -79.370      -14.081      134.065      102.319       62.175    17973.484    10469.246     3865.737        5.413        1.615      275.269       66.294        0.058      347.470       26.459      859.857
09/12/2014  20:16:00     -291.257     -119.514       -8.037      190.957      149.169       78.443    36464.701    22251.444     6153.268        8.201        3.243      314.824       73.716        0.055      347.520       26.544      859.873
09/12/2014  20:17:00     -401.724     -106.204       -7.453      181.349      141.810       86.788    32887.390    20110.123     7532.121       11.661        3.026      415.526       91.909        0.049      347.522       26.547      859.897
09/12/2014  20:18:00     -429.694     -142.112       -3.412      247.850      161.943       87.503    61429.593    26225.510     7656.739       15.006        4.766      452.584      105.157        0.054      347.515       26.536      859.910
09/12/2014  20:19:00     -389.689     -125.281      -17.807      241.279      135.519       89.613    58215.793    18365.400     8030.451       12.623        4.231      409.332      113.284        0.077      347.515       26.537      859.930
09/12/2014  20:20:00     -279.396     -151.873       -0.724      190.449      140.037       73.255    36270.888    19610.341     5366.229        8.118        3.062      318.005       77.153        0.059      347.501       26.513      859.932
09/12/2014  20:21:00     -426.180      -78.235      -14.050      241.655      137.954       80.530    58397.375    19031.418     6485.151       13.592        4.196      433.302      106.057        0.060      347.476       26.469      859.939
09/12/2014  20:22:00     -283.776     -117.181      -12.836      122.013      136.197       68.420    14887.238    18549.661     4681.291        6.627        1.906      307.018       64.123        0.044      347.455       26.433      859.940
09/12/2014  20:23:00     -330.699     -214.175        3.962      230.469      213.072      111.271    53116.006    45399.604    12381.295       13.305        5.545      393.995      111.834        0.081      347.398       26.336      859.941
09/12/2014  20:24:00     -414.865     -176.401      -27.042      181.386      132.626       80.835    32901.023    17589.733     6534.361       13.048        2.851      450.810       73.556        0.027      347.451       26.425      859.979
09/12/2014  20:25:00     -360.139     -145.587        5.943      240.742      143.921       85.480    57956.523    20713.228     7306.759       11.844        4.299      388.453       94.372        0.059      347.472       26.462      859.996
09/12/2014  20:26:00     -284.999     -166.820       -8.187      249.100      171.524       92.764    62050.666    29420.362     8605.162       10.458        5.004      330.232      108.062        0.107      347.485       26.485      860.007
09/12/2014  20:27:00     -345.881     -112.358       -6.150      224.608      126.665       93.245    50448.546    16043.957     8694.670       10.373        3.759      363.673      108.331        0.089      347.464       26.448      860.017
09/12/2014  20:28:00     -326.729     -160.518      -21.786      155.799      158.630       71.895    24273.474    25163.360     5168.921        9.379        2.730      364.030       80.394        0.049      347.451       26.426      860.043
09/12/2014  20:29:00     -254.008      -45.679       -8.595      159.694      120.690       73.560    25502.058    14566.042     5411.107        5.607        2.274      258.083       91.722        0.126      347.388       26.319      860.071
09/12/2014  20:30:00     -207.094      -57.066        6.541      154.237      127.838       71.066    23789.051    16342.598     5050.446        4.568        2.259      214.813       71.270        0.110      347.369       26.284      860.075
09/12/2014  20:31:00     -306.203     -140.234       -4.644      128.741      108.185       67.557    16574.339    11704.013     4563.916        7.314        1.642      336.788       68.515        0.041      347.371       26.286      860.071
09/12/2014  20:32:00     -298.635     -179.707      -16.527      151.476      124.748       78.475    22944.972    15562.175     6158.280        8.320        2.233      348.536       69.737        0.040      347.376       26.297      860.061
09/12/2014  20:33:00     -323.393      -94.632       -5.730      215.475      182.049       93.131    46429.398    33141.933     8673.476       10.089        4.412      336.955       98.206        0.085      347.374       26.293      860.080
09/12/2014  20:34:00     -532.652     -276.753      -34.457      170.854      234.581      101.726    29191.231    55028.282    10348.227       22.802        4.728      600.259       89.222        0.022      347.441       26.408      860.101
09/12/2014  20:35:00     -246.611      -65.164        6.053      184.652      140.430       93.420    34096.475    19720.628     8727.249        6.381        3.127      255.075       97.445        0.146      347.369       26.286      860.118
09/12/2014  20:36:00     -364.403     -114.032       -9.300      180.731      160.328       79.111    32663.847    25705.203     6258.580       10.524        3.231      381.828       89.308        0.055      347.362       26.273      860.114
09/12/2014  20:37:00     -335.235      -83.950      -28.721      144.467      141.527       63.509    20870.780    20029.829     4033.432        8.259        2.247      345.586       62.794        0.033      347.336       26.228      860.112
09/12/2014  20:38:00     -301.478     -104.587        5.486      199.870      160.712       95.999    39948.119    25828.260     9215.841        8.841        3.750      319.105      109.223        0.117      347.358       26.266      860.113
09/12/2014  20:39:00     -274.673     -151.967      -15.963      187.472      156.599       73.061    35145.855    24523.288     5337.962        8.189        3.250      313.910       91.269        0.085      347.317       26.197      860.107
09/12/2014  20:40:00     -290.098      -95.373       -0.712      151.983      152.984       77.700    23098.939    23403.978     6037.265        7.289        2.627      305.373       71.850        0.055      347.273       26.117      860.089
09/12/2014  20:41:00     -361.791     -170.784        0.269      218.247      176.045      100.404    47631.748    30991.689    10080.938       12.437        4.435      400.075      116.074        0.084      347.292       26.153      860.052
09/12/2014  20:42:00     -383.153     -113.602       -8.290      184.223      145.836       82.728    33938.010    21268.187     6843.861       11.090        3.103      399.639       95.911        0.058      347.257       26.090      860.082
09/12/2014  20:43:00     -379.463     -136.255       -1.812      203.494      164.969      100.814    41409.742    27214.634    10163.451       12.066        3.939      403.185      105.505        0.068      347.282       26.134      860.088
09/12/2014  20:44:00     -201.392     -105.771      -13.303      145.427      108.351       59.449    21148.919    11739.907     3534.185        4.417        1.821      227.478       53.135        0.055      347.303       26.171      860.126
09/12/2014  20:45:00     -299.928     -197.479      -11.827      164.695      152.065       87.518    27124.356    23123.821     7659.338        9.349        2.895      359.103       95.024        0.070      347.337       26.230      860.130
09/12/2014  20:46:00     -272.800     -134.856       -6.625      118.251      116.176       64.220    13983.230    13496.852     4124.178        6.212        1.580      304.313       59.921        0.039      347.263       26.103      860.126
09/12/2014  20:47:00     -227.026      -47.568        2.915      149.448      122.157       76.843    22334.671    14922.293     5904.884        4.848        2.158      231.956       70.533        0.092      347.255       26.087      860.127
09/12/2014  20:48:00     -314.937     -102.483        6.215      207.259      181.389       75.867    42956.460    32901.887     5755.872        9.566        4.081      331.192       89.970        0.074      347.246       26.074      860.111
09/12/2014  20:49:00     -299.511     -137.899       -0.776      168.777      154.490       76.865    28485.575    23867.250     5908.298        8.348        2.913      329.732       72.429        0.048      347.285       26.141      860.112
09/12/2014  20:50:00     -287.127     -178.044      -12.366      186.343      134.381       89.060    34723.555    18058.361     7931.687        8.749        3.036      337.849       93.519        0.077      347.260       26.097      860.099
09/12/2014  20:51:00     -340.246     -194.316      -22.034      186.068      138.022       90.315    34621.357    19049.971     8156.737       10.791        3.091      391.824       98.200        0.063      347.232       26.050      860.111
09/12/2014  20:52:00     -329.827     -121.216       -7.202      157.547      143.528       79.544    24821.187    20600.177     6327.206        8.763        2.587      351.396       81.321        0.054      347.234       26.052      860.115
09/12/2014  20:53:00     -434.162      -98.439      -24.120      203.395      149.161       85.551    41369.437    22248.876     7318.922       13.484        3.547      445.182      100.472        0.051      347.220       26.029      860.100
09/12/2014  20:54:00     -334.451     -208.972      -22.888      189.488      147.317       86.179    35905.872    21702.326     7426.810       11.053        3.252      394.369       85.248        0.047      347.233       26.048      860.126
09/12/2014  20:55:00     -213.878      -74.042       30.251      138.837      148.062       76.462    19275.729    21922.446     5846.489        4.959        2.352      226.332       55.397        0.060      347.136       25.885      860.143
09/12/2014  20:56:00     -264.601      -42.371       -7.130      148.412      143.666       69.791    22025.986    20640.013     4870.782        5.969        2.377      267.972       76.810        0.082      347.159       25.923      860.150
09/12/2014  20:57:00     -254.909     -185.238      -15.029      172.363      128.515       60.766    29709.063    16516.232     3692.474        7.471        2.496      315.106       72.159        0.052      347.162       25.929      860.131
09/12/2014  20:58:00     -364.433     -137.315      -15.899      127.723       91.373       61.349    16313.135     8349.012     3763.735        9.017        1.421      389.444       64.257        0.027      347.134       25.879      860.172
09/12/2014  20:59:00     -317.254      -86.752       -9.302      172.322      157.825       79.469    29694.992    24908.873     6315.398        8.458        3.046      328.901       83.435        0.064      347.095       25.812      860.137
09/12/2014  21:00:00     -335.887      -16.146      -15.318      157.686      118.348       78.866    24864.805    14006.168     6219.823        7.920        2.255      336.275       72.871        0.047      347.078       25.784      860.145
09/12/2014  21:01:00     -473.664     -200.145       -9.800      220.125      176.307       90.614    48454.853    31084.138     8210.896       17.612        4.387      514.214       94.417        0.034      347.122       25.859      860.186
09/12/2014  21:02:00     -328.868     -159.206      -14.272      171.735      148.767       79.269    29493.034    22131.631     6283.537        9.580        2.895      365.377       77.779        0.045      347.142       25.894      860.192
09/12/2014  21:03:00     -327.901     -162.534      -16.692      155.965      133.075       67.919    24325.021    17708.860     4612.936        9.042        2.332      365.973       65.268        0.032      347.114       25.844      860.167
09/12/2014  21:04:00     -311.325     -220.544       -8.462      250.365      157.025       96.058    62682.691    24656.944     9227.107       12.108        4.828      381.527      122.882        0.104      347.080       25.787      860.163
09/12/2014  21:05:00     -221.232      -91.598       -0.817      170.687      131.743       86.558    29134.161    17356.294     7492.267        5.565        2.699      239.445       82.105        0.118      347.049       25.734      860.182
09/12/2014  21:06:00     -358.502      -48.665      -19.692      183.137       98.324       73.554    33539.027     9667.653     5410.160        8.994        2.431      361.790       86.313        0.057      347.041       25.719      860.177
09/12/2014  21:07:00     -430.914      -46.217       -5.100      222.263      159.932       94.959    49400.965    25578.244     9017.219       13.591        4.200      433.386      106.726        0.061      346.994       25.639      860.148
09/12/2014  21:08:00     -244.805      -75.300       -4.453      138.804      138.390       78.889    19266.418    19151.761     6223.470        5.512        2.232      256.124       59.705        0.054      346.984       25.622      860.187
09/12/2014  21:09:00     -266.105     -104.078        1.815      150.073      166.651       75.194    22521.868    27772.659     5654.171        6.879        2.797      285.734       80.720        0.080      346.941       25.549      860.149
09/12/2014  21:10:00     -294.730     -101.671        2.913      135.703      155.921       63.578    18415.214    24311.288     4042.208        7.198        2.338      311.773       61.930        0.039      346.901       25.477      860.181
09/12/2014  21:11:00     -223.533      -80.208       -6.464      175.805      150.207       69.819    30907.331    22562.257     4874.729        5.738        2.917      237.488       70.845        0.089      346.935       25.537      860.212
09/12/2014  21:12:00     -142.007      -54.145        0.806      119.988      111.895       65.374    14397.000    12520.589     4273.803        2.714        1.560      151.979       54.334        0.128      346.949       25.563      860.225
09/12/2014  21:13:00     -198.087     -143.745       -3.519      139.926       80.407       50.299    19579.348     6465.249     2529.966        4.424        1.429      244.747       64.963        0.070      347.015       25.676      860.199
09/12/2014  21:14:00     -287.746      -97.362      -15.724      192.248       91.908       62.324    36959.382     8447.090     3884.284        7.090        2.465      303.771       84.745        0.078      346.892       25.463      860.199
09/12/2014  21:15:00     -343.530     -137.861      -14.762      177.788      166.245       88.439    31608.575    27637.270     7821.390       10.214        3.353      370.160       81.964        0.049      346.938       25.542      860.228
09/12/2014  21:16:00     -183.713     -166.168       17.478      186.915      127.588       73.463    34937.043    16278.632     5396.752        5.913        2.831      247.714       94.167        0.145      346.953       25.569      860.233
09/12/2014  21:17:00     -251.519     -115.799      -12.539      140.003      114.187       72.545    19600.939    13038.762     5262.831        5.736        1.895      276.895       73.862        0.071      346.924       25.516      860.247
09/12/2014  21:18:00     -238.281     -100.340       -8.419      120.033      115.002       66.340    14407.990    13225.414     4400.999        4.947        1.602      258.546       58.083        0.050      346.935       25.538      860.244
09/12/2014  21:19:00     -291.079      -76.018        1.386      188.238      136.128       80.240    35433.517    18530.742     6438.498        7.545        3.020      300.842       95.996        0.102      346.879       25.441      860.287
09/12/2014  21:20:00     -343.864     -245.634      -18.883      151.834      121.303       78.708    23053.661    14714.524     6194.949       11.144        2.198      422.585       78.702        0.035      346.968       25.594      860.324
09/12/2014  21:21:00     -170.705      -64.422       11.817      101.600      115.386       47.322    10322.625    13313.962     2239.373        2.965        1.294      182.456       47.290        0.067      346.974       25.606      860.304
09/12/2014  21:22:00     -173.488     -112.505      -14.930      127.758      102.366       71.298    16322.041    10478.707     5083.433        3.743        1.594      206.774       61.123        0.087      346.934       25.537      860.324
09/12/2014  21:23:00     -250.957      -76.320       -4.386      228.422      166.008       78.552    52176.810    27558.619     6170.365        7.735        4.295      262.306      100.644        0.147      346.890       25.461      860.327
09/12/2014  21:24:00     -280.484      -20.049       -4.172      149.922      151.472       71.632    22476.582    22943.666     5131.085        6.481        2.528      281.200       70.036        0.062      346.917       25.507      860.339
09/12/2014  21:25:00     -255.441      -32.717       -1.815      140.222      108.386       66.600    19662.256    11747.586     4435.580        5.108        1.792      257.527       72.529        0.079      346.833       25.363      860.355
09/12/2014  21:26:00     -453.239      -83.060      -33.692      137.530      113.473       69.128    18914.551    12876.046     4778.703       12.501        1.828      460.786       67.147        0.021      346.908       25.490      860.369
09/12/2014  21:27:00     -218.370     -110.548        0.932      169.386      124.809       58.455    28691.461    15577.371     3417.020        5.379        2.384      244.758       66.185        0.073      346.811       25.324      860.357
09/12/2014  21:28:00     -295.309      -70.742      -12.920      145.781       92.274       54.992    21252.002     8514.492     3024.173        6.258        1.640      303.664       54.396        0.032      346.794       25.295      860.394
09/12/2014  21:29:00     -172.807        4.005      -14.304       89.114       77.256       47.422     7941.229     5968.546     2248.833        2.312        0.808      172.853       37.603        0.047      346.831       25.360      860.381
09/12/2014  21:30:00     -166.862     -112.254       -2.843      123.025       92.108       59.604    15135.113     8483.820     3552.689        3.381        1.359      201.107       64.975        0.104      346.751       25.222      860.409
09/12/2014  21:31:00     -199.082     -109.416        2.475      187.945      123.700       71.291    35323.141    15301.572     5082.422        5.365        2.785      227.168       68.822        0.092      346.744       25.211      860.423
09/12/2014  21:32:00     -463.465      -94.619      -32.809      238.141      180.866       91.888    56710.999    32712.433     8443.342       16.133        4.893      473.025      114.522        0.059      346.830       25.357      860.423
09/12/2014  21:33:00     -291.530      -47.168       -5.316      166.911      115.194       81.531    27859.320    13269.582     6647.273        6.750        2.389      295.321       86.473        0.086      346.783       25.276      860.460
09/12/2014  21:34:00     -250.609     -115.062       -9.102      130.810      158.716       69.644    17111.212    25190.712     4850.346        6.163        2.358      275.761       72.133        0.068      346.791       25.290      860.459
09/12/2014  21:35:00     -156.108     -124.892        8.064      129.922       92.069       62.332    16879.800     8476.778     3885.219        3.463        1.462      199.919       53.865        0.073      346.764       25.244      860.458
09/12/2014  21:36:00     -190.867      -69.042        4.835      128.980      101.234       58.591    16635.782    10248.272     3432.956        3.576        1.516      202.971       63.198        0.097      346.756       25.228      860.496
09/12/2014  21:37:00     -248.104      -43.794      -11.084      106.038       86.931       52.262    11244.072     7557.032     2731.360        4.256        1.077      251.940       37.079        0.022      346.738       25.198      860.522
09/12/2014  21:38:00     -243.656      -43.604       -6.815      132.712      105.886       50.936    17612.371    11211.915     2594.480        4.636        1.571      247.527       61.724        0.062      346.759       25.235      860.532
09/12/2014  21:39:00     -318.959     -140.580      -16.692      118.401      116.724       54.153    14018.788    13624.572     2932.531        7.617        1.529      348.565       52.806        0.023      346.713       25.152      860.523
09/12/2014  21:40:00     -247.803      -62.469        1.436      149.479      118.930       70.238    22344.067    14144.402     4933.376        5.336        2.071      255.555       78.306        0.094      346.747       25.214      860.558
09/12/2014  21:41:00     -302.051     -122.306       -2.263      136.209      119.048       62.381    18552.789    14172.433     3891.451        7.140        1.831      325.873       68.680        0.044      346.727       25.179      860.573
09/12/2014  21:42:00     -318.964     -215.736      -13.972      131.396      115.618       75.468    17264.857    13367.629     5695.401        9.240        1.816      385.072       68.251        0.031      346.882       25.445      860.598
09/12/2014  21:43:00     -182.793     -144.597       -3.072      153.453      126.638       68.598    23547.802    16037.181     4705.716        4.930        2.215      233.070       78.945        0.115      346.879       25.441      860.600
09/12/2014  21:44:00     -252.215     -119.036      -11.557      129.815       96.976       65.470    16851.998     9404.258     4286.385        5.422        1.527      278.894       66.704        0.057      346.834       25.365      860.624
09/12/2014  21:45:00     -272.545      -80.340      -17.136      143.118       91.591       58.906    20482.876     8388.977     3469.872        5.668        1.617      284.139       59.372        0.044      346.775       25.262      860.616
09/12/2014  21:46:00     -351.374      -74.139      -22.851      165.329      128.430       62.181    27333.673    16494.230     3866.462        8.858        2.385      359.110       73.051        0.041      346.758       25.233      860.631
09/12/2014  21:47:00     -274.041     -101.419        0.619      163.605      108.454       69.214    26766.742    11762.210     4790.623        6.435        2.166      292.206       82.148        0.079      346.700       25.132      860.630
09/12/2014  21:48:00     -189.040     -107.933       14.734      146.977      117.199       71.333    21602.358    13735.493     5088.331        4.401        2.021      217.682       77.701        0.127      346.659       25.063      860.626
09/12/2014  21:49:00     -236.758     -167.903      -10.532       85.537       79.184       56.407     7316.517     6270.049     3181.699        5.056        0.838      290.251       47.372        0.027      346.655       25.055      860.637
09/12/2014  21:50:00     -249.615      -75.203       -5.375      154.016      123.544       67.751    23721.065    15263.157     4590.133        5.578        2.179      260.697       54.360        0.043      346.659       25.063      860.652
09/12/2014  21:51:00     -245.759     -106.216        1.638      117.392      100.611       60.303    13780.960    10122.603     3636.402        4.961        1.377      267.730       57.806        0.047      346.658       25.061      860.641
09/12/2014  21:52:00     -378.979     -136.627      -11.160      154.131      125.746       65.641    23756.479    15812.022     4308.678       10.314        2.194      402.855       65.186        0.026      346.662       25.067      860.654
09/12/2014  21:53:00     -302.400      -29.074      -11.914      119.603       89.635       59.455    14304.949     8034.452     3534.950        5.915        1.294      303.794       66.108        0.047      346.697       25.127      860.673
09/12/2014  21:54:00     -152.352       20.043      -13.721       86.588       60.454       44.452     7497.399     3654.705     1975.987        1.846        0.656      153.665       38.575        0.063      346.765       25.247      860.667
09/12/2014  21:55:00     -199.269      -18.313       -9.846       67.253       72.393       51.301     4522.934     5240.812     2631.835        2.627        0.620      200.108       36.368        0.033      346.735       25.193      860.664
09/12/2014  21:56:00     -230.154     -103.030        1.070      119.070       95.998       50.818    14177.641     9215.649     2582.494        4.478        1.299      252.163       57.591        0.052      346.712       25.153      860.671
09/12/2014  21:57:00     -177.279      -94.963        5.486      118.725       71.542       39.933    14095.509     5118.294     1594.681        3.064        1.040      201.112       47.226        0.055      346.715       25.158      860.662
09/12/2014  21:58:00     -161.718      -94.657        1.601       95.777       60.769       39.619     9173.177     3692.849     1569.658        2.477        0.722      187.384       47.368        0.064      346.673       25.087      860.675
09/12/2014  21:59:00     -162.450     -149.465        0.150      104.062      117.970       49.402    10828.817    13916.829     2440.551        3.795        1.359      220.748       45.821        0.043      346.729       25.183      860.632
09/12/2014  22:00:00     -235.638      -70.740        6.457      105.464       89.608       56.526    11122.617     8029.578     3195.233        4.146        1.117      246.027       47.542        0.037      346.673       25.086      860.618
09/12/2014  22:01:00     -225.843      -65.793      -15.246      110.254       80.459       61.994    12155.969     6473.690     3843.292        3.902        1.124      235.231       60.231        0.066      346.566       24.903      860.648
09/12/2014  22:02:00     -287.356      -69.465      -27.123      171.211      103.148       63.322    29313.312    10639.499     4009.636        6.604        2.198      295.633       59.920        0.041      346.611       24.981      860.667
09/12/2014  22:03:00     -114.303      -70.218       13.954       96.989       83.009       47.874     9406.936     6890.448     2291.944        1.839        0.929      134.148       51.839        0.149      346.517       24.820      860.669
09/12/2014  22:04:00     -210.888      -77.715       -5.680      126.708       80.106       51.601    16054.917     6416.913     2662.700        3.784        1.257      224.752       61.629        0.075      346.608       24.975      860.684
09/12/2014  22:05:00     -115.206     -107.833       -0.580       65.475       80.379       34.631     4286.927     6460.759     1199.332        1.842        0.597      157.798       38.827        0.061      346.619       24.994      860.696
09/12/2014  22:06:00      -66.085     -129.152       18.054       74.072       65.705       52.536     5486.638     4317.099     2759.989        1.697        0.628      145.077       46.730        0.104      346.631       25.016      860.708
09/12/2014  22:07:00     -102.032     -175.768       -1.415       75.762       58.851       31.528     5739.888     3463.397      993.993        2.575        0.510      203.236       30.454        0.022      346.673       25.087      860.732
09/12/2014  22:08:00     -122.791     -118.679        6.142       84.952       55.896       42.666     7216.804     3124.312     1820.398        2.068        0.608      170.769       38.181        0.050      346.621       24.999      860.752
09/12/2014  22:09:00      -76.635     -158.790        8.062       70.856       78.935       27.777     5020.538     6230.732      771.550        2.159        0.601      176.315       24.819        0.020      346.615       24.989      860.773
09/12/2014  22:10:00      -32.697     -104.174        4.009       33.820       38.516       23.051     1143.800     1483.452      531.349        0.755        0.158      109.184       19.891        0.033      346.602       24.967      860.774
09/12/2014  22:11:00     -101.338      -16.632       -1.810      101.441       56.422       35.584    10290.235     3183.401     1266.212        1.264        0.737      102.694       44.959        0.192      346.496       24.785      860.790
09/12/2014  22:12:00     -210.016     -107.124      -13.226      163.010      110.186       50.341    26572.310    12141.005     2534.168        4.850        2.062      235.759       62.858        0.071      346.653       25.054      860.781
09/12/2014  22:13:00      -64.052     -143.667       -4.844       80.195       61.096       36.561     6431.170     3732.671     1336.719        1.813        0.575      157.299       21.733        0.019      346.596       24.957      860.781
09/12/2014  22:14:00      -83.051      -97.296       -6.611       83.353       79.063       38.759     6947.696     6250.908     1502.257        1.555        0.735      127.922       42.428        0.110      346.531       24.844      860.779
09/12/2014  22:15:00     -160.863      -93.280        7.846       89.805       47.969       40.294     8064.877     2301.063     1623.566        2.331        0.599      185.952       49.123        0.070      346.504       24.798      860.806
09/12/2014  22:16:00      -92.263     -105.556        0.053       86.384       35.580       28.127     7462.185     1265.962      791.115        1.459        0.476      140.195       31.208        0.050      346.576       24.923      860.809
09/12/2014  22:17:00      -34.919     -139.657       -4.714       62.713       34.825       33.280     3932.959     1212.785     1107.588        1.350        0.313      143.956       16.222        0.013      346.488       24.771      860.805
09/12/2014  22:18:00      -49.312     -129.791       -0.947       40.108       66.019       19.452     1608.625     4358.566      378.362        1.281        0.317      138.843       11.314        0.007      346.411       24.638      860.814
09/12/2014  22:19:00      -47.513     -151.147       -5.597       36.020       32.592       28.403     1297.464     1062.241      806.755        1.415        0.158      158.439       15.312        0.009      346.536       24.854      860.822
09/12/2014  22:20:00       45.954     -146.285       -8.420       63.355       37.750       26.419     4013.843     1425.028      697.954        1.486        0.307      153.333        5.817        0.001      346.434       24.678      860.823
09/12/2014  22:21:00       76.093     -102.393      -17.343       62.416       64.096       37.218     3895.752     4108.355     1385.178        1.298        0.469      127.571       39.068        0.094      346.476       24.751      860.800
09/12/2014  22:22:00       31.012      -67.304        4.191       51.131       57.349       32.371     2614.371     3288.897     1047.902        0.623        0.348       74.105       28.156        0.144      346.354       24.539      860.806
09/12/2014  22:23:00      -77.303      -46.124       -9.536       34.027       39.119       18.272     1157.868     1530.310      333.881        0.561        0.151       90.018       14.115        0.025      346.362       24.555      860.841
09/12/2014  22:24:00      -44.291      -61.182       -0.618       29.936       32.724       16.681      896.138     1070.892      278.266        0.397        0.112       75.531       11.390        0.023      346.374       24.576      860.854
09/12/2014  22:25:00      -24.396      -83.059       -2.189       18.378       38.367       16.614      337.749     1472.061      276.030        0.479        0.104       86.568       14.525        0.028      346.438       24.686      860.866
09/12/2014  22:26:00      -28.413     -116.794       -2.182       23.850       30.651       17.799      568.823      939.458      316.788        0.814        0.091      120.201       14.426        0.014      346.396       24.614      860.865
09/12/2014  22:27:00      -95.976      -58.099       -0.236       42.389       38.737       22.186     1796.785     1500.559      492.226        0.819        0.189      112.191       17.104        0.023      346.284       24.422      860.882
09/12/2014  22:28:00      -82.804     -134.806        0.420       62.164       48.088       32.748     3864.403     2312.487     1072.405        1.614        0.362      158.206       22.470        0.020      346.248       24.359      860.898
09/12/2014  22:29:00      -67.926     -127.785       -2.695       48.258       34.363       30.987     2328.794     1180.849      960.205        1.271        0.223      144.717       20.709        0.020      346.242       24.349      860.911
09/12/2014  22:30:00      -97.859     -130.672        2.158       53.795       57.444       32.221     2893.938     3299.772     1038.198        1.694        0.362      163.253       17.903        0.012      346.294       24.437      860.912
09/12/2014  22:31:00      -56.067     -118.558        5.388       68.038       41.870       33.192     4629.184     1753.075     1101.690        1.236        0.374      131.147       25.556        0.038      346.235       24.337      860.909
09/12/2014  22:32:00      -16.296      -64.363       25.717       31.881       50.630       24.356     1016.387     2563.357      593.204        0.462        0.209       66.394       16.213        0.060      346.105       24.113      860.916
09/12/2014  22:33:00      -78.661      -74.086       12.497       52.492       54.032       38.349     2755.383     2919.464     1470.626        0.949        0.357      108.057       32.259        0.089      346.119       24.137      860.921
09/12/2014  22:34:00     -141.325      -91.629       -9.526       60.539       54.789       39.499     3664.931     3001.854     1560.184        1.834        0.411      168.430       32.921        0.038      346.227       24.322      860.926
09/12/2014  22:35:00      -76.119      -24.888        2.740       66.845       56.943       31.386     4468.230     3242.543      985.051        0.756        0.435       80.085       34.682        0.188      346.068       24.049      860.930
09/12/2014  22:36:00     -148.927     -110.686       -7.016       56.256       88.710       30.233     3164.707     7869.533      914.035        2.321        0.597      185.555       30.191        0.026      346.213       24.296      860.926
09/12/2014  22:37:00     -107.465      -79.311        3.489       64.055       70.222       34.060     4102.997     4931.197     1160.076        1.402        0.510      133.563       34.333        0.066      346.190       24.257      860.913
09/12/2014  22:38:00      -75.773      -41.003       -1.899       52.490       34.121       26.116     2755.203     1164.256      682.021        0.601        0.230       86.155       30.188        0.123      346.181       24.244      860.900
09/12/2014  22:39:00     -107.640      -55.990        3.675       52.714       41.655       27.604     2778.772     1735.150      761.973        1.000        0.264      121.331       28.632        0.056      346.054       24.025      860.905
09/12/2014  22:40:00      -95.012      -62.023       -2.139       60.044       36.960       25.320     3605.299     1366.060      641.104        0.924        0.281      113.464       23.338        0.042      346.169       24.222      860.912
09/12/2014  22:41:00      -86.960      -74.334        7.032       72.237       54.708       37.547     5218.140     2992.936     1409.790        1.138        0.481      114.401       44.203        0.149      346.155       24.199      860.923
09/12/2014  22:42:00      -61.475      -72.025       -5.345       51.836       40.027       22.199     2686.977     1602.148      492.814        0.689        0.239       94.693       19.562        0.043      346.213       24.296      860.924
09/12/2014  22:43:00      -67.866      -74.366        0.756       27.891       35.481       18.934      777.885     1258.904      358.505        0.627        0.120      100.678       10.977        0.012      346.201       24.277      860.932
09/12/2014  22:44:00      -64.875      -75.132        3.822       41.211       63.968       24.672     1698.355     4091.854      608.722        0.813        0.320       99.266       22.802        0.053      346.159       24.205      860.943
09/12/2014  22:45:00      -15.490      -73.862        6.522       34.558       23.848       19.130     1194.232      568.718      365.975        0.393        0.106       75.469        8.143        0.012      346.112       24.126      860.954
09/12/2014  22:46:00       -9.113      -56.232        6.804       15.403       23.423       12.913      237.257      548.655      166.738        0.212        0.048       56.966        8.190        0.021      346.084       24.074      860.950
09/12/2014  22:47:00       42.838       27.568        9.429       35.751       25.714       15.352     1278.159      661.190      235.695        0.243        0.109       50.943       13.908        0.075      345.716       23.444      860.943
09/12/2014  22:48:00       53.897       33.821       14.027       15.302       13.810       17.821      234.150      190.704      317.574        0.249        0.037       63.630        8.565        0.018      345.443       22.977      860.941
09/12/2014  22:49:00       99.491       50.617        8.342       22.140       17.137       17.268      490.186      293.668      298.190        0.681        0.054      111.627       10.865        0.009      345.461       23.008      860.947
09/12/2014  22:50:00      104.431       49.500       12.204       24.502       27.207       18.371      600.329      740.226      337.501        0.759        0.084      115.568       13.463        0.014      345.372       22.856      860.941
09/12/2014  22:51:00      103.771       55.717       10.565       30.597       29.346       17.460      936.172      861.209      304.855        0.804        0.105      117.783        9.265        0.006      345.513       23.098      860.932
09/12/2014  22:52:00       64.858       20.992       11.288       24.639       18.904       16.541      607.059      357.344      273.607        0.301        0.062       68.170       11.276        0.027      345.326       22.776      860.931
09/12/2014  22:53:00       77.961       28.409       11.233       36.589       20.172       18.409     1338.739      406.924      338.906        0.455        0.104       82.976        8.691        0.011      345.624       23.286      860.946
09/12/2014  22:54:00       41.432       14.023       25.383       29.050       20.041       19.252      843.891      401.633      370.656        0.209        0.081       43.741       13.780        0.099      345.555       23.168      860.956
09/12/2014  22:55:00       16.428       30.406       46.556       30.810       26.093       16.717      949.281      680.835      279.469        0.264        0.095       34.560       18.465        0.285      345.714       23.442      860.958
09/12/2014  22:56:00       -4.965       29.586       38.878       17.464       21.592       20.025      304.994      466.198      401.005        0.179        0.059       30.000       17.510        0.341      345.719       23.451      860.959
09/12/2014  22:57:00       -4.251       -3.454       14.388        9.824       13.196        9.297       96.509      174.125       86.429        0.030        0.018        5.478        5.294        0.934      345.598       23.243      860.951
09/12/2014  22:58:00       -5.793        4.255       28.831       11.471       23.234       11.719      131.575      539.814      137.327        0.085        0.040        7.187        6.512        0.821      345.617       23.275      860.951
09/12/2014  22:59:00       10.361      -45.559        1.708       24.314       22.224       19.609      591.191      493.902      384.519        0.183        0.073       46.722       15.286        0.107      345.845       23.667      860.956
09/12/2014  23:00:00       15.824      -50.508       17.817       34.104       29.113       25.523     1163.110      847.561      651.415        0.289        0.133       52.929       22.048        0.174      345.858       23.687      860.952
09/12/2014  23:01:00       -6.340      -28.189        5.479       14.706       15.374       10.147      216.252      236.364      102.957        0.071        0.028       28.894        6.703        0.054      345.817       23.619      860.948
09/12/2014  23:02:00       57.018      -48.396        5.854       33.481       40.015       28.238     1120.964     1601.207      797.392        0.457        0.176       74.788       27.859        0.139      345.804       23.596      860.935
09/12/2014  23:03:00        4.159      -64.412        8.456       30.303       21.445       18.423      918.278      459.901      339.420        0.298        0.086       64.546       16.645        0.067      345.679       23.382      860.941
09/12/2014  23:04:00       -1.902      -39.452        2.445       28.727       18.480       14.078      825.250      341.525      198.194        0.147        0.068       39.497        6.441        0.027      345.596       23.240      860.940
09/12/2014  23:05:00       39.074      -45.328        3.553       23.385       21.111       15.102      546.837      445.682      228.071        0.241        0.061       59.845       15.990        0.071      345.637       23.310      860.937
09/12/2014  23:06:00       25.792      -27.212        4.478       19.233       17.920       10.422      369.905      321.120      108.610        0.111        0.040       37.493        8.146        0.047      345.561       23.177      860.930
09/12/2014  23:07:00       43.074      -50.943        2.603       20.917       16.065       13.359      437.512      258.085      178.458        0.267        0.044       66.713       13.519        0.041      345.618       23.275      860.943
09/12/2014  23:08:00       38.814      -16.624        6.621       20.727       21.399       14.212      429.598      457.904      201.982        0.146        0.054       42.225       11.746        0.077      345.521       23.112      860.950
09/12/2014  23:09:00       15.940      -14.091       21.106       21.336       25.113       16.112      455.229      630.653      259.604        0.112        0.067       21.275       16.345        0.590      345.373       22.855      860.956
09/12/2014  23:10:00        5.224        1.571       25.238       15.397       16.936       17.126      237.078      286.820      293.312        0.074        0.041        5.455        4.196        0.591      345.051       22.306      860.972
09/12/2014  23:11:00        9.849       -4.158       14.912       17.189       20.562       12.566      295.473      422.788      157.917        0.061        0.044       10.691       11.282        1.114      344.923       22.087      861.002
09/12/2014  23:12:00       20.224       25.915       29.138       22.384       15.397       11.306      501.039      237.060      127.820        0.140        0.043       32.872        9.487        0.083      344.877       22.009      861.005
09/12/2014  23:13:00       22.719       71.777       -1.663       20.714       24.611       22.389      429.069      605.703      501.272        0.360        0.077       75.286       19.528        0.067      344.809       21.891      861.000
09/12/2014  23:14:00       33.545       56.510       -2.475       19.950       28.544       17.384      397.993      814.749      302.211        0.292        0.076       65.716       17.047        0.067      344.864       21.986      861.006
09/12/2014  23:15:00       52.782       36.509       15.783       26.386       17.389       13.186      696.205      302.374      173.861        0.277        0.059       64.178       14.442        0.051      344.888       22.027      861.002
09/12/2014  23:16:00       15.053       14.771       14.129       33.921       34.978       18.634     1150.664     1223.447      347.216        0.168        0.136       21.089       15.400        0.533      344.993       22.205      860.997
09/12/2014  23:17:00       25.976      -75.388       -5.957       47.900       30.221       19.992     2294.388      913.289      399.694        0.500        0.180       79.737       18.623        0.055      345.134       22.447      860.996
09/12/2014  23:18:00       49.097      -77.271       -1.658       32.962       19.507       15.684     1086.478      380.514      245.982        0.505        0.086       91.550       12.617        0.019      345.209       22.576      860.999
09/12/2014  23:19:00       17.319      -18.559       17.274       20.222       30.613       15.198      408.948      937.141      230.975        0.126        0.079       25.385       15.200        0.359      345.074       22.344      860.999
09/12/2014  23:20:00       -0.565      -20.846        4.672       13.109       13.579       11.135      171.841      184.391      123.992        0.047        0.024       20.854        4.602        0.049      345.041       22.288      860.993
09/12/2014  23:21:00      -16.977       -0.372        4.316       15.579       10.385        7.568      242.699      107.839       57.280        0.036        0.020       16.981        6.467        0.145      345.002       22.223      861.002
09/12/2014  23:22:00      -34.655        2.119       -0.721        9.376        6.724        4.777       87.902       45.214       22.820        0.068        0.008       34.720        3.460        0.010      345.087       22.369      861.004
09/12/2014  23:23:00      -47.143       -7.559       -4.576       11.139        9.034        6.195      124.082       81.614       38.376        0.127        0.012       47.745        2.002        0.002      344.967       22.161      861.002
09/12/2014  23:24:00      -87.288      -32.703      -11.505       19.491       15.373       11.578      379.907      236.336      134.058        0.479        0.038       93.213        6.798        0.005      344.656       21.629      861.001
09/12/2014  23:25:00     -101.828      -63.466       -6.520       33.819       21.033       20.098     1143.709      442.399      403.947        0.821        0.100      119.987       12.961        0.012      344.738       21.768      861.008
09/12/2014  23:26:00     -116.458      -57.926       -2.973       33.793       27.897       16.276     1141.943      778.236      264.905        0.956        0.109      130.069       13.838        0.011      344.743       21.778      860.994
09/12/2014  23:27:00     -116.879      -17.970       -6.122       38.591       29.670       19.733     1489.251      880.303      389.396        0.839        0.138      118.252       17.454        0.022      344.623       21.573      860.980
09/12/2014  23:28:00      -94.501      -15.550       -3.224       49.945       31.361       22.123     2494.489      983.514      489.448        0.657        0.198       95.771       23.541        0.060      344.383       21.163      860.970
09/12/2014  23:29:00     -133.038      -30.552       -5.854       40.665       27.377       22.687     1653.676      749.494      514.693        1.079        0.146      136.501       21.434        0.025      344.391       21.178      860.957
09/12/2014  23:30:00     -118.536      -38.511        0.437       49.135       30.131       20.653     2414.214      907.895      426.533        0.964        0.187      124.635       21.686        0.030      344.420       21.227      860.954
09/12/2014  23:31:00     -114.016      -46.210       -0.955       38.695       30.655       17.702     1497.311      939.704      313.362        0.894        0.138      123.024       18.976        0.024      344.467       21.306      860.953
09/12/2014  23:32:00      -95.064      -29.240        5.148       58.847       36.055       20.565     3462.922     1299.989      422.927        0.755        0.259       99.460       23.088        0.054      344.448       21.274      860.944
09/12/2014  23:33:00     -129.900      -36.129        0.937       37.627       32.020       21.274     1415.813     1025.292      452.568        1.054        0.145      134.830       18.797        0.019      344.579       21.497      860.941
09/12/2014  23:34:00     -156.155      -37.050       -2.877       22.757       27.371       16.000      517.889      749.192      256.002        1.364        0.076      160.490       11.746        0.005      344.554       21.456      860.939
09/12/2014  23:35:00     -114.439      -19.822       -0.163       60.135       30.126       26.320     3616.166      907.560      692.752        0.935        0.261      116.143       28.845        0.062      344.361       21.125      860.941
09/12/2014  23:36:00      -92.007       -5.756        0.507       42.346       38.430       24.247     1793.222     1476.863      587.920        0.618        0.193       92.187       20.850        0.051      344.247       20.932      860.959
09/12/2014  23:37:00     -108.860        2.780       -6.577       47.882       35.701       27.950     2292.727     1274.568      781.227        0.812        0.217      108.895       25.797        0.056      344.377       21.152      860.966
09/12/2014  23:38:00     -148.411       -1.521      -11.438       34.763       33.711       20.656     1208.453     1136.398      426.653        1.246        0.139      148.419       17.481        0.014      344.377       21.153      860.972
09/12/2014  23:39:00     -190.842       39.112      -11.218       36.426       40.286       24.862     1326.866     1622.953      618.122        2.082        0.178      194.809       20.942        0.012      344.380       21.156      860.994
09/12/2014  23:40:00     -128.390       -9.428       -9.715       51.643       42.781       24.712     2667.051     1830.187      610.697        1.089        0.255      128.736       24.361        0.036      344.169       20.797      861.002
09/12/2014  23:41:00     -110.856      -13.561       -3.589       34.932       27.086       18.324     1220.241      733.640      335.785        0.739        0.114      111.683       18.903        0.029      344.063       20.616      861.011
09/12/2014  23:42:00     -112.866        4.762       -3.465       29.931       23.551       19.237      895.853      554.641      370.077        0.730        0.091      112.966       16.963        0.023      344.179       20.815      861.025
09/12/2014  23:43:00     -111.902      -10.759       -8.466       26.306       17.767       16.900      692.001      315.679      285.607        0.700        0.065      112.418       13.604        0.015      344.175       20.808      861.018
09/12/2014  23:44:00     -144.405      -11.530      -20.441       24.795       24.173       14.395      614.793      584.325      207.207        1.140        0.070      144.864       11.964        0.007      344.325       21.063      861.022
09/12/2014  23:45:00     -160.380        5.537      -16.826       35.164       21.129       13.941     1236.505      446.427      194.356        1.396        0.094      160.475       12.177        0.006      344.435       21.251      861.015
09/12/2014  23:46:00     -176.681       26.031      -17.614       42.183       35.857       20.385     1779.367     1285.703      415.561        1.784        0.174      178.588        9.949        0.003      344.475       21.320      861.013
09/12/2014  23:47:00     -175.079       30.144      -22.205       26.437       24.030       18.339      698.901      577.450      336.313        1.683        0.081      177.655        7.644        0.002      344.407       21.203      861.013
09/12/2014  23:48:00     -156.070       26.171      -17.105       35.967       36.823       18.897     1293.656     1355.902      357.109        1.417        0.150      158.249       13.096        0.007      344.274       20.977      861.016
09/12/2014  23:49:00     -108.363       -3.104      -15.041       34.189       24.184       20.395     1168.890      584.851      415.972        0.707        0.108      108.407       17.946        0.027      344.409       21.207      861.015
09/12/2014  23:50:00      -76.293      -19.402      -13.496       23.892       22.387       12.903      570.829      501.163      166.481        0.381        0.062       78.722        8.343        0.011      344.390       21.177      861.013
09/12/2014  23:51:00      -80.245      -33.324       -9.874       39.282       22.566       21.886     1543.083      509.206      479.004        0.509        0.127       86.890       16.166        0.035      344.153       20.769      861.022
09/12/2014  23:52:00     -122.763      -34.021       -9.143       32.463       24.465       21.179     1053.846      598.548      448.557        0.921        0.105      127.390       17.979        0.020      344.015       20.533      861.016
09/12/2014  23:53:00     -117.817      -30.366      -11.639       24.746       19.932       15.501      612.368      397.281      240.290        0.809        0.062      121.667        9.468        0.006      343.950       20.421      861.013
09/12/2014  23:54:00      -97.445       -4.433      -10.841       42.771       21.195       16.516     1829.335      449.234      272.775        0.609        0.128       97.546       19.993        0.042      343.920       20.370      860.995
09/12/2014  23:55:00     -103.797      -28.627      -11.116       18.649       18.340       15.067      347.770      336.362      227.023        0.631        0.046      107.673       13.483        0.016      343.880       20.304      860.996
09/12/2014  23:56:00      -92.358      -14.152      -12.347       23.828       19.799       15.850      567.785      392.008      251.237        0.505        0.061       93.436       14.491        0.024      343.880       20.303      860.993
09/12/2014  23:57:00      -89.300       -1.633      -13.284       22.198       21.784       15.413      492.734      474.530      237.559        0.468        0.060       89.315       11.947        0.018      343.854       20.258      860.985
09/12/2014  23:58:00      -68.770        3.580      -18.561       26.681       17.061       15.821      711.865      291.077      250.311        0.317        0.063       68.863       11.326        0.027      343.963       20.445      860.983
09/12/2014  23:59:00      -77.972       33.771      -21.114       32.867       44.002       13.093     1080.269     1936.133      171.417        0.543        0.159       84.971       16.904        0.040      344.234       20.908      860.975
